[[{"header":{"parameterUnit":"m.s-1","parameterCategory":1,"la1":30.6,"la2":29.2853,"lo1":-89.7004,"lo2":-87.6739,"dx":0.0162,"dy":0.0183,"nx":112,"ny":82,"refTime":"2023-02-10T18:00:00:Z","depth":0,"parameterNumber":2,"parameterNumberName":"U-component_of_WINDS"},"data":[0.0,0.0,0.0,0.0,0.0,0.0,0.0,0.0,0.0,0.0,0.0,0.0,0.0,0.0,0.0,0.0,0.0,0.0,0.0,0.0,0.0,0.0,0.0,0.0,0.0,0.0,0.0,0.0,0.0,0.0,0.0,0.0,0.0,0.0,0.0,0.0,0.0,0.0,0.0,0.0,0.0,0.0,0.0,0.0,0.0,0.0,0.0,0.0,0.0,0.0,0.0,0.0,0.0,0.0,0.0,0.0,0.0,0.0,0.0,0.0,0.0,0.0,0.0,0.0,0.0,0.0,0.0,0.0,0.0,0.0,0.0,0.0,0.0,0.0,0.0,0.0,0.0,0.0,0.0,0.0,0.0,0.0,0.0,0.0,0.0,0.0,0.0,0.0,0.0,0.0,-7.4536,-7.5482,-7.6571,-7.7187,-7.7187,-7.7187,-7.7187,-7.7187,0.0,0.0,0.0,0.0,0.0,0.0,0.0,0.0,0.0,0.0,0.0,0.0,0.0,0.0,0.0,0.0,0.0,0.0,0.0,0.0,0.0,0.0,0.0,0.0,0.0,0.0,0.0,0.0,0.0,0.0,0.0,0.0,0.0,0.0,0.0,0.0,0.0,0.0,0.0,0.0,0.0,0.0,0.0,0.0,0.0,0.0,0.0,0.0,0.0,0.0,0.0,0.0,0.0,0.0,0.0,0.0,0.0,0.0,0.0,0.0,0.0,0.0,0.0,0.0,0.0,0.0,0.0,0.0,0.0,0.0,0.0,0.0,0.0,0.0,0.0,0.0,0.0,0.0,0.0,0.0,0.0,0.0,0.0,0.0,0.0,0.0,0.0,0.0,0.0,0.0,0.0,0.0,0.0,0.0,0.0,0.0,0.0,0.0,0.0,0.0,0.0,0.0,0.0,0.0,-7.6358,-7.6862,-7.7069,-7.7187,-7.7187,-7.7187,-7.7187,-7.7187,0.0,0.0,0.0,0.0,0.0,0.0,0.0,0.0,0.0,0.0,0.0,0.0,0.0,0.0,0.0,0.0,0.0,0.0,0.0,0.0,0.0,0.0,0.0,0.0,0.0,0.0,0.0,0.0,0.0,0.0,0.0,0.0,0.0,0.0,0.0,0.0,0.0,0.0,0.0,0.0,0.0,0.0,0.0,0.0,0.0,0.0,0.0,0.0,0.0,0.0,0.0,0.0,0.0,0.0,0.0,0.0,0.0,0.0,0.0,0.0,0.0,0.0,0.0,0.0,0.0,0.0,0.0,0.0,0.0,0.0,0.0,0.0,0.0,0.0,0.0,0.0,0.0,0.0,0.0,0.0,0.0,0.0,0.0,0.0,0.0,0.0,0.0,0.0,0.0,0.0,0.0,0.0,0.0,0.0,0.0,0.0,0.0,0.0,0.0,0.0,0.0,0.0,0.0,-7.6187,-7.6721,-7.7002,-7.7145,-7.7187,-7.7187,-7.7187,-7.7187,-7.7187,-7.7187,0.0,0.0,0.0,0.0,0.0,0.0,0.0,0.0,0.0,0.0,0.0,0.0,0.0,0.0,0.0,0.0,0.0,0.0,0.0,0.0,0.0,0.0,0.0,0.0,0.0,0.0,0.0,0.0,0.0,0.0,0.0,0.0,0.0,0.0,0.0,0.0,0.0,0.0,0.0,0.0,0.0,0.0,0.0,0.0,0.0,0.0,0.0,0.0,0.0,0.0,0.0,0.0,0.0,0.0,0.0,0.0,0.0,0.0,0.0,0.0,0.0,0.0,0.0,0.0,0.0,0.0,0.0,0.0,0.0,0.0,0.0,0.0,0.0,0.0,0.0,0.0,0.0,0.0,0.0,0.0,0.0,0.0,0.0,0.0,0.0,0.0,0.0,0.0,0.0,0.0,0.0,0.0,0.0,0.0,0.0,0.0,0.0,0.0,0.0,0.0,0.0,0.0,-7.6568,-7.6749,-7.6942,-7.7103,-7.7187,-7.7187,-7.7187,-7.7187,-7.7187,-7.7187,0.0,0.0,0.0,0.0,0.0,0.0,0.0,0.0,0.0,0.0,0.0,0.0,0.0,0.0,0.0,0.0,0.0,0.0,0.0,0.0,0.0,0.0,0.0,0.0,0.0,0.0,0.0,0.0,0.0,0.0,0.0,0.0,0.0,0.0,0.0,0.0,0.0,0.0,0.0,0.0,0.0,0.0,0.0,0.0,0.0,0.0,0.0,0.0,0.0,0.0,0.0,0.0,0.0,0.0,0.0,0.0,0.0,0.0,0.0,0.0,0.0,0.0,0.0,0.0,0.0,0.0,0.0,0.0,0.0,0.0,0.0,0.0,0.0,0.0,0.0,0.0,0.0,0.0,0.0,0.0,0.0,0.0,0.0,0.0,0.0,0.0,0.0,0.0,0.0,0.0,0.0,0.0,0.0,0.0,0.0,0.0,0.0,0.0,0.0,0.0,0.0,0.0,-7.6755,-7.6945,-7.7147,-7.7187,-7.7187,-7.7187,-7.7187,-7.7187,-7.7187,-7.7187,0.0,0.0,0.0,0.0,0.0,0.0,0.0,0.0,0.0,0.0,0.0,0.0,0.0,0.0,0.0,0.0,0.0,0.0,0.0,0.0,0.0,0.0,0.0,0.0,0.0,0.0,0.0,0.0,0.0,0.0,0.0,0.0,0.0,0.0,0.0,0.0,0.0,0.0,0.0,0.0,0.0,0.0,0.0,0.0,0.0,0.0,0.0,0.0,0.0,0.0,0.0,0.0,0.0,0.0,0.0,0.0,0.0,0.0,0.0,0.0,0.0,0.0,0.0,0.0,0.0,0.0,0.0,0.0,0.0,0.0,0.0,0.0,0.0,0.0,0.0,0.0,0.0,0.0,0.0,0.0,0.0,0.0,0.0,0.0,0.0,0.0,0.0,0.0,0.0,0.0,0.0,0.0,0.0,0.0,0.0,0.0,0.0,0.0,0.0,0.0,0.0,0.0,-7.677,-7.6993,0.0,-7.7187,-7.7187,-7.7187,-7.7187,-7.7187,-7.7187,0.0,0.0,0.0,0.0,0.0,0.0,0.0,0.0,0.0,0.0,0.0,0.0,0.0,0.0,0.0,0.0,0.0,0.0,0.0,0.0,0.0,0.0,0.0,0.0,0.0,0.0,0.0,0.0,0.0,0.0,0.0,0.0,0.0,0.0,0.0,0.0,0.0,0.0,0.0,0.0,0.0,0.0,0.0,0.0,0.0,0.0,0.0,0.0,0.0,0.0,0.0,0.0,0.0,0.0,0.0,0.0,0.0,0.0,0.0,0.0,0.0,0.0,0.0,0.0,0.0,0.0,0.0,0.0,0.0,0.0,0.0,0.0,0.0,0.0,0.0,0.0,0.0,0.0,0.0,0.0,0.0,0.0,0.0,0.0,0.0,0.0,0.0,0.0,0.0,0.0,0.0,0.0,0.0,0.0,0.0,0.0,0.0,0.0,0.0,0.0,0.0,0.0,-7.6567,-7.6843,-7.7052,0.0,-7.7187,-7.7187,-7.7187,-7.7187,-7.7187,-7.7187,0.0,0.0,0.0,0.0,0.0,0.0,0.0,0.0,0.0,0.0,0.0,0.0,0.0,0.0,0.0,0.0,0.0,0.0,0.0,0.0,0.0,0.0,0.0,0.0,0.0,0.0,0.0,0.0,0.0,0.0,0.0,0.0,0.0,0.0,0.0,0.0,0.0,0.0,0.0,0.0,0.0,0.0,0.0,0.0,0.0,0.0,0.0,0.0,0.0,0.0,0.0,0.0,0.0,0.0,0.0,0.0,0.0,0.0,0.0,0.0,0.0,0.0,0.0,0.0,0.0,0.0,0.0,0.0,0.0,0.0,0.0,0.0,0.0,0.0,0.0,0.0,0.0,0.0,0.0,0.0,0.0,0.0,0.0,0.0,0.0,0.0,0.0,0.0,0.0,0.0,0.0,0.0,0.0,0.0,0.0,0.0,0.0,0.0,0.0,0.0,0.0,0.0,-7.6582,-7.6942,-7.7187,-7.7187,-7.7187,-7.7187,-7.7187,-7.7187,-7.7187,0.0,0.0,0.0,0.0,0.0,0.0,0.0,0.0,0.0,0.0,0.0,0.0,0.0,0.0,0.0,0.0,0.0,0.0,0.0,0.0,0.0,0.0,0.0,0.0,0.0,0.0,0.0,0.0,0.0,0.0,0.0,0.0,0.0,0.0,0.0,0.0,0.0,0.0,0.0,0.0,0.0,0.0,0.0,0.0,0.0,0.0,0.0,0.0,0.0,0.0,0.0,0.0,0.0,0.0,0.0,0.0,0.0,0.0,0.0,0.0,0.0,0.0,0.0,0.0,0.0,0.0,0.0,0.0,0.0,0.0,0.0,0.0,0.0,0.0,0.0,0.0,0.0,0.0,0.0,0.0,0.0,0.0,0.0,0.0,0.0,0.0,0.0,0.0,0.0,0.0,0.0,0.0,0.0,0.0,0.0,0.0,0.0,0.0,0.0,0.0,0.0,0.0,0.0,-7.6582,-7.6942,-7.7187,-7.7187,-7.7187,-7.7187,-7.7187,-7.7187,-7.7187,-7.7187,0.0,0.0,0.0,0.0,0.0,0.0,0.0,0.0,0.0,0.0,0.0,0.0,0.0,0.0,0.0,0.0,0.0,0.0,0.0,0.0,0.0,0.0,0.0,0.0,0.0,0.0,0.0,0.0,0.0,0.0,0.0,0.0,0.0,0.0,0.0,0.0,0.0,0.0,0.0,0.0,0.0,0.0,0.0,0.0,0.0,0.0,0.0,0.0,0.0,0.0,0.0,0.0,0.0,0.0,0.0,0.0,0.0,0.0,0.0,0.0,0.0,0.0,0.0,0.0,0.0,0.0,0.0,0.0,0.0,0.0,0.0,0.0,0.0,0.0,0.0,0.0,0.0,0.0,0.0,0.0,0.0,0.0,0.0,0.0,0.0,0.0,0.0,0.0,0.0,0.0,0.0,0.0,0.0,0.0,0.0,0.0,0.0,0.0,0.0,0.0,0.0,0.0,-7.6582,-7.6942,-7.7187,-7.7187,-7.7187,-7.7187,-7.7187,-7.7187,-7.7187,-7.7187,0.0,0.0,0.0,0.0,0.0,0.0,0.0,0.0,0.0,0.0,0.0,0.0,0.0,0.0,0.0,0.0,0.0,0.0,0.0,0.0,0.0,0.0,0.0,0.0,0.0,0.0,0.0,0.0,0.0,0.0,0.0,0.0,0.0,0.0,0.0,0.0,0.0,0.0,0.0,0.0,0.0,0.0,0.0,0.0,0.0,0.0,0.0,0.0,0.0,0.0,0.0,0.0,0.0,0.0,0.0,0.0,0.0,0.0,0.0,0.0,0.0,0.0,0.0,0.0,0.0,0.0,0.0,0.0,0.0,0.0,0.0,0.0,0.0,0.0,0.0,0.0,0.0,0.0,0.0,0.0,0.0,0.0,0.0,0.0,0.0,0.0,0.0,0.0,0.0,0.0,0.0,0.0,0.0,0.0,0.0,0.0,0.0,0.0,0.0,0.0,0.0,0.0,-7.6582,-7.6942,-7.7187,-7.7187,-7.7187,-7.7187,-7.7187,-7.7187,-7.7187,-7.7187,0.0,0.0,0.0,0.0,0.0,0.0,0.0,0.0,0.0,0.0,0.0,0.0,0.0,0.0,0.0,0.0,0.0,0.0,0.0,0.0,0.0,0.0,0.0,0.0,0.0,0.0,0.0,0.0,0.0,0.0,0.0,0.0,0.0,0.0,0.0,0.0,0.0,0.0,0.0,0.0,0.0,0.0,0.0,0.0,0.0,0.0,0.0,0.0,0.0,0.0,0.0,0.0,0.0,0.0,0.0,0.0,0.0,0.0,0.0,0.0,-6.3796,0.0,0.0,0.0,0.0,0.0,0.0,0.0,0.0,0.0,0.0,0.0,0.0,0.0,0.0,0.0,0.0,0.0,0.0,0.0,0.0,0.0,0.0,0.0,0.0,0.0,0.0,0.0,0.0,0.0,0.0,0.0,0.0,0.0,0.0,0.0,0.0,0.0,0.0,0.0,0.0,0.0,-7.6582,-7.6942,-7.7187,-7.7187,-7.7187,-7.7187,-7.7187,-7.7187,-7.7187,-7.7187,-7.7187,0.0,0.0,0.0,0.0,0.0,0.0,0.0,0.0,0.0,0.0,0.0,0.0,0.0,0.0,0.0,0.0,0.0,0.0,0.0,0.0,0.0,0.0,0.0,0.0,0.0,0.0,0.0,0.0,0.0,0.0,0.0,0.0,0.0,0.0,0.0,0.0,0.0,0.0,0.0,0.0,0.0,0.0,0.0,0.0,0.0,0.0,0.0,0.0,0.0,0.0,0.0,0.0,0.0,0.0,0.0,0.0,0.0,0.0,0.0,0.0,-6.453,0.0,0.0,0.0,0.0,0.0,0.0,0.0,0.0,0.0,0.0,0.0,0.0,0.0,0.0,0.0,0.0,0.0,0.0,0.0,0.0,0.0,0.0,0.0,0.0,0.0,0.0,0.0,0.0,0.0,0.0,0.0,0.0,0.0,0.0,0.0,0.0,0.0,0.0,0.0,0.0,-7.6582,-7.6942,-7.7187,-7.7187,-7.7187,-7.7187,-7.7187,-7.7187,-7.7187,-7.7187,-7.7187,0.0,0.0,0.0,0.0,0.0,0.0,0.0,0.0,0.0,0.0,0.0,0.0,0.0,0.0,0.0,0.0,0.0,0.0,0.0,0.0,0.0,0.0,0.0,0.0,0.0,0.0,0.0,0.0,0.0,0.0,0.0,0.0,0.0,0.0,0.0,0.0,0.0,0.0,0.0,0.0,0.0,0.0,0.0,0.0,0.0,0.0,0.0,0.0,0.0,0.0,0.0,0.0,0.0,0.0,-6.2879,-6.3062,-6.3759,-6.4237,-6.453,-6.453,-6.5264,-6.6512,0.0,0.0,0.0,0.0,0.0,0.0,0.0,0.0,0.0,0.0,0.0,0.0,0.0,0.0,0.0,0.0,0.0,0.0,0.0,0.0,0.0,0.0,0.0,0.0,0.0,-7.6015,-7.6015,0.0,0.0,0.0,0.0,0.0,0.0,0.0,0.0,0.0,0.0,0.0,0.0,-7.6663,-7.699,-7.7187,-7.7187,-7.7187,-7.7187,-7.7187,-7.7187,-7.7187,-7.7187,-7.7187,-7.7187,0.0,0.0,0.0,0.0,0.0,0.0,0.0,0.0,0.0,0.0,0.0,0.0,0.0,0.0,0.0,0.0,0.0,0.0,0.0,0.0,0.0,0.0,0.0,0.0,0.0,0.0,0.0,0.0,0.0,0.0,0.0,0.0,-5.3203,-5.3203,0.0,0.0,0.0,0.0,0.0,0.0,0.0,0.0,0.0,0.0,0.0,0.0,0.0,0.0,-6.0236,-6.1153,-6.1961,-6.2658,-6.2743,-6.3209,-6.3906,-6.4053,-6.4861,-6.6182,-6.6182,0.0,-6.6549,-6.7247,0.0,0.0,0.0,0.0,0.0,0.0,0.0,0.0,0.0,0.0,0.0,0.0,0.0,0.0,0.0,0.0,0.0,0.0,0.0,0.0,0.0,0.0,-7.6015,-7.6015,-7.6015,-7.6015,0.0,-7.6015,-7.6015,-7.6015,0.0,0.0,0.0,0.0,0.0,0.0,0.0,0.0,-7.6843,-7.7054,-7.7187,-7.7187,-7.7187,-7.7187,-7.7187,-7.7187,-7.7187,-7.7187,-7.7187,-7.7187,-7.7187,-7.7187,0.0,0.0,0.0,0.0,0.0,0.0,0.0,0.0,0.0,0.0,0.0,0.0,0.0,0.0,0.0,0.0,0.0,0.0,0.0,0.0,0.0,0.0,0.0,0.0,0.0,0.0,0.0,0.0,0.0,-5.3203,-5.3203,-5.3203,-5.3592,-5.3995,0.0,0.0,0.0,0.0,0.0,0.0,0.0,0.0,0.0,-5.8657,-5.9465,-6.0272,-6.108,-6.1887,-6.2438,-6.278,-6.278,-6.3282,-6.4127,-6.4567,-6.5411,-6.6512,-6.699,-6.7173,-6.7173,-6.754,-6.7687,-6.776,0.0,0.0,0.0,0.0,0.0,-7.2845,-7.4144,0.0,0.0,0.0,0.0,0.0,0.0,0.0,0.0,0.0,0.0,0.0,0.0,0.0,0.0,-7.6015,-7.6015,-7.6015,-7.6015,-7.6015,-7.6015,0.0,-7.6015,-7.6015,-7.6015,0.0,0.0,0.0,0.0,-7.6785,-7.6876,-7.7097,-7.7187,-7.7187,-7.7187,-7.7187,-7.7187,-7.7187,-7.7187,-7.7187,-7.7187,-7.7187,-7.7187,-7.7187,-7.7187,0.0,0.0,0.0,0.0,0.0,0.0,0.0,0.0,0.0,0.0,0.0,0.0,0.0,0.0,0.0,0.0,0.0,0.0,0.0,0.0,0.0,0.0,0.0,0.0,0.0,0.0,0.0,0.0,-5.3203,-5.3203,-5.3203,-5.3922,-5.4473,0.0,0.0,0.0,0.0,0.0,0.0,-5.7997,-5.8217,-5.8584,-5.9184,-6.0199,-6.1006,-6.1594,-6.2401,-6.278,-6.278,-6.3025,-6.3576,-6.442,-6.5228,-6.6035,-6.6843,-6.743,-6.7687,-6.7687,-6.7687,-6.7797,-6.8091,-6.8898,-6.9412,-6.9975,-7.2,-7.3086,-7.3699,-7.4898,-7.5616,-7.6015,-7.6015,0.0,-7.6015,-7.6015,0.0,0.0,0.0,0.0,-7.6015,-7.6015,0.0,-7.6015,-7.6015,-7.6015,-7.6015,-7.6015,-7.6015,-7.6015,0.0,-7.6015,-7.6005,-7.6066,0.0,0.0,0.0,0.0,-7.6926,-7.699,-7.7103,-7.7187,-7.7187,-7.7187,-7.7187,-7.7187,-7.7187,-7.7187,-7.7187,-7.7187,-7.7187,-7.7187,-7.7187,-7.7187,-7.7187,0.0,0.0,0.0,0.0,0.0,0.0,0.0,0.0,0.0,0.0,0.0,0.0,0.0,0.0,0.0,0.0,0.0,0.0,0.0,0.0,0.0,0.0,0.0,0.0,0.0,0.0,0.0,0.0,0.0,-5.3203,-5.3922,0.0,0.0,0.0,0.0,-5.7886,-5.796,-5.7997,-5.7997,-5.8731,-5.9148,-5.9184,-6.0713,-6.1557,-6.1594,-6.2401,-6.278,-6.278,-6.3649,-6.4457,-6.5264,-6.6072,-6.688,-6.7614,-6.7677,-6.7687,-6.7687,-6.7687,-6.8128,-6.8935,-6.9743,-7.084,-7.2211,-7.3673,-7.4533,-7.5089,-7.5733,-7.5962,-7.6015,-7.6015,-7.6015,-7.6015,-7.6015,-7.6015,0.0,0.0,-7.6015,-7.6015,-7.6015,-7.6015,-7.6015,-7.6015,-7.6015,-7.6015,-7.6015,-7.6015,-7.6015,0.0,-7.6015,-7.6052,-7.6254,0.0,-7.6429,-7.6795,-7.6876,-7.699,-7.7147,-7.7187,-7.7187,-7.7187,-7.7187,-7.7187,-7.7187,-7.7187,-7.7187,-7.7187,-7.7187,-7.7187,-7.7187,-7.7187,-7.7187,-7.7187,-7.7187,0.0,0.0,0.0,0.0,0.0,0.0,0.0,0.0,0.0,0.0,0.0,0.0,0.0,0.0,0.0,0.0,0.0,0.0,0.0,0.0,0.0,0.0,0.0,0.0,0.0,0.0,0.0,0.0,-5.3922,-5.4693,0.0,-5.6308,-5.7116,-5.7703,-5.796,-5.7997,-5.7997,-5.7997,-5.8767,-5.9441,-5.9979,-6.1043,-6.1851,-6.2365,-6.2658,-6.3099,-6.3649,-6.3943,-6.4787,-6.6072,-6.6366,-6.6953,-6.7687,-6.7687,-6.7981,-6.8458,-6.8458,-6.8641,-6.9045,-7.0367,-7.1421,-7.2372,-7.3793,-7.4649,-7.5201,-7.5803,-7.6015,-7.6015,-7.6015,-7.6015,-7.6015,-7.6015,-7.6015,-7.6015,-7.6015,-7.6015,-7.6015,-7.6015,-7.6015,-7.6015,-7.6015,-7.6015,-7.6015,-7.6015,-7.6015,-7.6015,-7.6015,-7.6015,-7.602,-7.6068,-7.6327,-7.6521,-7.6702,-7.6933,-7.7104,-7.7187,-7.7187,-7.7187,-7.7187,-7.7187,-7.7187,-7.7187,-7.7187,-7.7187,-7.7187,-7.7187,-7.7187,-7.7187,-7.7187,-7.7187,-7.7187,-7.7187,-7.7187,0.0,0.0,0.0,0.0,0.0,0.0,0.0,0.0,0.0,0.0,0.0,0.0,0.0,0.0,0.0,0.0,0.0,0.0,0.0,0.0,0.0,0.0,0.0,0.0,0.0,0.0,-5.3812,-5.4326,-5.5354,-5.6198,-5.6748,-5.7519,-5.7997,-5.7997,-5.7997,-5.8107,-5.84,-5.9171,-5.9979,-6.0786,-6.1594,-6.2254,-6.278,-6.278,-6.3246,-6.409,-6.4383,-6.5191,-6.6512,-6.6769,-6.7173,-6.7724,-6.7981,-6.8421,-6.8935,-6.9486,-6.9706,-6.9816,-7.0881,-7.196,-7.2997,-7.3973,-7.4769,-7.5446,-7.5848,-7.6015,-7.6015,-7.6015,-7.6015,-7.6015,-7.6015,-7.6015,-7.6015,-7.6015,-7.6015,-7.6015,-7.6015,-7.6015,-7.6015,-7.6015,-7.6015,-7.6015,-7.6015,-7.6015,-7.6015,-7.6015,-7.6015,-7.602,-7.6106,-7.6371,-7.6604,-7.6702,-7.6995,-7.7187,-7.7187,-7.7187,-7.7187,-7.7187,-7.7187,-7.7187,-7.7187,-7.7187,-7.7187,-7.7187,-7.7187,-7.7187,-7.7187,-7.7187,-7.7187,-7.7187,-7.7187,-7.7187,-7.7187,0.0,0.0,0.0,0.0,0.0,0.0,0.0,0.0,0.0,0.0,0.0,0.0,0.0,0.0,0.0,0.0,0.0,0.0,0.0,0.0,0.0,0.0,0.0,-5.3203,-5.3922,-5.4436,-5.4473,-5.5868,-5.6822,-5.6859,-5.7556,-5.7997,-5.7997,-5.7997,-5.8364,-5.9148,-5.9979,-6.0786,-6.1557,-6.2401,-6.278,-6.278,-6.2817,-6.3282,-6.4127,-6.4971,-6.5778,-6.6549,-6.732,-6.7687,-6.776,-6.8568,-6.8935,-6.9119,-7.066,-7.1293,-7.1329,-7.1358,-7.2544,-7.4293,-7.4315,-7.5037,-7.6015,-7.6015,-7.6015,-7.6015,-7.6015,-7.6015,-7.6015,-7.6015,-7.6015,-7.6015,-7.6015,-7.6015,-7.6015,-7.6015,-7.6015,-7.6015,-7.6015,-7.6015,-7.6015,-7.6015,-7.6015,-7.6015,-7.6015,-7.6015,-7.6052,-7.6277,-7.6475,-7.6683,-7.686,-7.7057,0.0,-7.7187,-7.7187,-7.7187,-7.7187,-7.7187,-7.7187,-7.7187,-7.7187,-7.7187,-7.7187,-7.7187,-7.7187,-7.7187,-7.7187,-7.7187,-7.7187,-7.7187,-7.7226,-7.7226,0.0,0.0,0.0,0.0,0.0,0.0,0.0,0.0,0.0,0.0,0.0,0.0,0.0,0.0,0.0,0.0,0.0,0.0,0.0,0.0,0.0,0.0,-5.3387,-5.3995,-5.4252,-5.484,-5.6014,-5.6528,-5.7042,-5.7593,-5.7886,-5.7997,-5.7997,-5.7997,-5.8364,-5.9148,-5.9979,-6.0786,-6.1557,-6.2401,-6.278,-6.278,-6.3429,-6.4163,-6.4971,-6.5778,-6.6586,-6.7357,-6.7577,-6.8017,-6.8568,-6.8788,-6.9559,-7.0669,-7.1109,-7.1651,-7.2222,-7.2664,-7.3415,-7.4336,-7.4749,-7.5362,-7.6015,-7.6015,-7.6015,-7.6015,-7.6015,-7.6015,-7.6015,-7.6015,-7.6015,-7.6015,-7.6015,-7.6015,-7.6015,-7.6015,-7.6015,-7.6015,-7.6015,-7.6015,-7.6015,-7.6015,-7.6015,-7.6015,-7.6015,-7.6015,-7.6005,-7.6079,-7.6351,-7.6604,-7.6651,0.0,0.0,-7.7187,-7.7187,-7.7187,-7.7187,-7.7187,-7.7187,-7.7187,-7.7187,-7.7187,-7.7187,-7.7187,-7.7187,-7.7187,-7.7187,-7.7187,-7.7187,-7.7187,-7.75,0.0,0.0,0.0,0.0,0.0,0.0,0.0,0.0,0.0,0.0,0.0,0.0,0.0,0.0,0.0,0.0,0.0,0.0,0.0,0.0,0.0,0.0,-5.3482,-5.3995,-5.4803,-5.4913,-5.5354,-5.6638,-5.7116,-5.7483,-5.796,-5.7997,-5.8143,-5.8474,-5.851,-5.8988,-6.0162,-6.0639,-6.1263,-6.2071,-6.2915,-6.3356,-6.3356,-6.4163,-6.5007,-6.5815,-6.6292,-6.6916,-6.7687,-6.7687,-6.8128,0.0,-6.9265,-7.0146,-7.1329,-7.1688,-7.2253,0.0,0.0,0.0,0.0,0.0,-7.5702,-7.6015,-7.6015,-7.6015,-7.6015,-7.6015,-7.6015,-7.6015,-7.6015,-7.6015,-7.6015,-7.6015,-7.6015,-7.6015,-7.6015,-7.6015,-7.6015,-7.6015,-7.6015,-7.6015,-7.6015,-7.6015,-7.6015,-7.6015,0.0,0.0,-7.6015,-7.6338,-7.6582,-7.6582,-7.6939,-7.7187,0.0,-7.7187,-7.7187,-7.7187,-7.7187,-7.7187,-7.7187,-7.7187,0.0,0.0,0.0,-7.7187,-7.7187,-7.7539,0.0,0.0,0.0,-7.8515,0.0,0.0,0.0,0.0,-7.918,-7.9453,0.0,0.0,0.0,0.0,0.0,0.0,0.0,0.0,0.0,0.0,0.0,0.0,0.0,0.0,0.0,0.0,-5.3885,-5.4693,-5.5486,-5.5706,-5.6014,-5.6859,-5.7556,-5.7997,-5.7997,-5.807,-5.8437,-5.9148,-5.9258,-6.0015,-6.152,0.0,0.0,0.0,0.0,-6.4127,-6.4237,-6.5044,-6.5778,-6.6512,-6.6586,-6.699,-6.7687,-6.7797,-6.8274,-6.9082,-6.9889,-7.0697,-7.1505,-7.2202,-7.2926,-7.3516,-7.3553,-7.398,-7.4609,-7.5622,-7.6015,0.0,0.0,0.0,0.0,-7.6015,-7.6015,-7.6015,-7.6015,-7.6015,-7.6015,-7.6015,-7.6015,-7.6015,-7.6015,-7.6015,-7.6015,-7.6015,-7.6092,-7.613,-7.613,-7.6207,-7.6284,-7.6284,-7.6284,-7.6284,-7.6284,-7.6454,-7.6582,-7.6582,-7.6939,0.0,-7.7187,-7.7187,-7.7187,-7.7187,0.0,0.0,-7.7344,-7.7422,-7.7461,-7.7461,-7.7461,-7.7461,-7.7461,-7.8203,-7.8633,-7.8633,-7.9336,-7.9765,-7.9844,-7.9844,-8.0273,-8.1133,-8.0234,-8.0312,0.0,0.0,0.0,0.0,0.0,0.0,0.0,0.0,0.0,0.0,0.0,0.0,0.0,0.0,0.0,-5.3203,-5.3885,-5.4693,-5.5486,-5.6161,-5.6859,-5.7666,-5.7923,-5.7997,-5.7997,-5.8584,-5.9038,-5.9184,-5.9795,-6.0603,-6.1557,-6.1594,0.0,-6.3796,-6.4016,-6.442,-6.5081,-6.5888,-6.6366,-6.6512,0.0,0.0,-6.7724,-6.8385,-6.9119,-6.9926,-7.0734,-7.1541,-7.2275,-7.2459,-7.3119,-7.4183,-7.4612,-7.5147,-7.5686,-7.5917,-7.6015,-7.6015,-7.6015,-7.6015,-7.6015,-7.6015,-7.6015,-7.6015,-7.6015,-7.6015,0.0,-7.6015,-7.6015,-7.6015,-7.6015,-7.6015,-7.6015,-7.6015,-7.6553,-7.7053,-7.7053,-7.7553,-7.8015,-7.8015,-7.8015,-7.8015,-7.8015,-7.7229,-7.6582,-7.6582,-7.6939,-7.7187,-7.7187,-7.7187,-7.7187,-7.7187,-7.7812,-7.8242,-7.8242,-7.8828,-7.9219,-7.9219,-7.9219,-7.9219,-7.9219,-7.9375,-7.9453,-7.9453,-7.9609,-8.0039,-8.0742,-8.0742,-8.1211,-8.2031,-8.1133,-8.1211,0.0,0.0,0.0,0.0,0.0,0.0,0.0,0.0,0.0,0.0,0.0,-5.3203,0.0,0.0,-5.3335,-5.3739,-5.4473,-5.528,-5.6088,-5.6895,-5.7556,-5.796,-5.7997,-5.8143,-5.8547,-5.8964,-5.9515,-6.0346,-6.0786,-6.152,-6.2768,-6.2842,-6.3429,-6.4677,-6.5081,-6.5485,-6.5888,-6.6696,-6.7283,-6.7724,-6.8128,-6.8495,-6.8898,-6.9302,-6.9926,-7.0734,-7.1138,-7.1762,-7.2553,-7.3145,-7.3897,-7.4769,-7.5344,-7.5718,-7.6015,-7.6015,-7.6015,-7.6015,-7.6015,-7.6015,-7.6015,-7.6015,-7.6015,-7.6015,-7.6015,-7.6015,-7.6015,-7.6015,-7.6015,-7.6015,-7.6015,-7.6322,-7.663,-7.663,-7.7284,-7.79,-7.79,-7.8207,-7.8477,-7.8477,-7.8477,-7.8477,-7.8477,-7.812,-7.7866,-7.7866,-7.8188,-7.8437,-7.8437,-7.8437,-7.8437,-7.8437,-7.8828,-7.9101,-7.9101,-7.9453,-7.9687,-7.9687,-7.9687,-7.9687,-7.9687,-8.0117,-8.0351,-8.0351,-8.0781,-8.1211,-8.164,-8.164,-8.1875,-8.2304,-8.1836,-8.1875,0.0,0.0,0.0,0.0,0.0,0.0,0.0,0.0,-5.3203,-5.3203,-5.3203,-5.3203,-5.3203,-5.3335,-5.3665,-5.4289,-5.5207,-5.6051,-5.6712,-5.7483,-5.807,-5.8217,-5.8217,-5.851,-5.9148,-5.9478,-6.0199,-6.1484,-6.1887,-6.2658,-6.4016,-6.4237,-6.4714,-6.5521,-6.6145,-6.6586,-6.6733,-6.754,-6.8238,-6.8898,-6.9082,-6.9486,-7.011,-7.0257,-7.0697,-7.1321,-7.1572,-7.2097,-7.2761,-7.398,-7.473,-7.5145,-7.5749,-7.6015,-7.6015,-7.6015,-7.6015,-7.6015,-7.6015,-7.6015,-7.6015,-7.6015,-7.6015,-7.6015,-7.6015,-7.6015,-7.6015,-7.6015,-7.613,-7.6245,-7.6245,-7.6899,-7.7515,-7.7515,-7.8169,-7.8746,-7.8746,-7.89,-7.9015,-7.9015,-7.9015,-7.9007,-7.9042,-7.9365,-7.9501,-7.9151,-7.9437,-7.9687,-7.9687,-7.9687,-7.9687,-7.9687,-7.9844,-8.0039,-8.0195,-8.0195,-8.0195,-8.0195,-8.0195,-8.0195,-8.0195,-8.0898,-8.125,-8.125,-8.1953,-8.2304,-8.2304,-8.2304,-8.2304,-8.2304,-8.2304,-8.2304,-5.3203,-5.3203,-5.3203,-5.3203,-5.3203,-5.3203,0.0,0.0,-5.3203,-5.3203,-5.3203,-5.3203,-5.3203,-5.3775,-5.4289,-5.4399,-5.5684,-5.6712,-5.6785,-5.7483,-5.8253,-5.8964,-5.9074,-5.9074,-5.9184,-6.0493,-6.141,-6.1594,-6.2989,-6.3906,-6.409,-6.4787,-6.5521,-6.6329,-6.6439,-6.6843,-6.754,-6.8348,-6.8825,-6.8898,-6.9633,-7.0,-7.011,-7.0844,-7.1211,-7.1386,-7.2595,-7.3215,-7.3391,-7.4551,-7.5054,-7.5145,-7.5749,-7.6015,-7.6015,-7.6015,-7.6015,-7.6015,-7.6015,-7.6015,-7.6015,-7.6015,-7.6015,-7.6015,-7.6015,-7.6015,-7.6015,-7.6015,-7.6553,-7.713,-7.713,-7.7746,-7.8361,-7.8361,-7.9015,-7.9669,-7.9669,-8.0246,-8.0823,-8.0823,-8.0823,-8.0868,-8.1039,-8.1281,-8.0863,-7.9345,-7.9437,-7.9687,-7.9687,-7.9687,-7.9687,-7.9687,-8.039,-8.1172,-8.1953,-8.1992,-8.1992,-8.1992,-8.1992,-8.1992,-8.1992,-8.2109,-8.2148,-8.2148,-8.2265,-8.2304,-8.2304,-8.2304,-8.2304,-8.2304,-8.2304,-8.2304,-5.3203,-5.3203,-5.3203,0.0,-5.3203,-5.3203,-5.3203,-5.3203,-5.3203,-5.3203,-5.3203,-5.3203,-5.3203,-5.3849,-5.4546,0.0,-5.6051,-5.6969,-5.7446,-5.818,-5.8841,-5.9148,-6.0052,-6.0603,-6.0603,-6.119,-6.1777,-6.2254,-6.3429,-6.431,-6.4787,-6.5558,-6.6366,-6.7173,-6.765,-6.8054,-6.8385,-6.9192,-6.9816,-7.033,-7.066,-7.1027,-7.1505,-7.1872,-7.2171,-7.2532,-7.3141,-7.3757,-7.4447,-7.4886,-7.5306,-7.567,-7.5917,-7.6015,-7.6015,-7.6015,-7.6015,-7.6015,-7.6015,-7.6015,-7.6015,-7.6015,-7.6015,-7.6015,-7.6015,-7.6015,-7.6092,-7.6592,-7.7015,-7.74,-7.7861,-7.8631,-7.9246,-7.9246,-7.9939,-8.0554,-8.0554,-8.0823,-8.1093,-8.1093,-8.1093,-8.1154,-8.12,-8.1501,-8.1454,-8.0707,-8.096,-8.1211,-8.1211,-8.1211,-8.1211,-8.1211,-8.1523,-8.1914,-8.2265,-8.2304,-8.2304,-8.2304,-8.2304,-8.2304,-8.2304,-8.2304,-8.2304,-8.2304,-8.2304,-8.2304,-8.2304,-8.2304,-8.2304,-8.2304,-8.2304,-8.2304,-5.3203,0.0,0.0,-5.3203,-5.3203,-5.3203,-5.3203,-5.3203,-5.3203,-5.3203,-5.3203,-5.3298,-5.3482,-5.4179,-5.4987,-5.5794,-5.6602,-5.7336,-5.7923,-5.8694,-5.9258,-5.9478,-6.075,-6.1704,-6.1924,-6.1924,-6.2254,-6.3099,-6.3943,-6.4787,-6.5595,-6.6402,-6.721,-6.8017,-6.8605,-6.9009,-6.9229,-7.0036,-7.0734,-7.1293,-7.1541,-7.1945,-7.2496,-7.2686,-7.2997,-7.3417,-7.3709,-7.4363,-7.5109,-7.5271,-7.56,-7.6015,-7.6015,-7.6015,-7.6015,-7.6015,-7.6015,-7.6015,-7.6015,-7.6015,-7.6015,-7.6015,-7.6015,-7.6015,-7.6015,-7.6169,-7.6476,-7.713,-7.763,-7.813,-7.8707,-7.9515,-8.0169,-8.0169,-8.0631,-8.1093,-8.1093,-8.1093,-8.1093,-8.1093,-8.1146,-8.121,-8.1244,-8.1553,-8.1819,-8.1861,-8.2118,-8.2304,-8.2304,-8.2304,-8.2304,-8.2304,-8.2304,-8.2304,-8.2304,-8.2304,-8.2304,-8.2304,-8.2304,-8.2304,-8.2304,-8.2304,-8.2304,-8.2304,-8.2304,-8.2422,-8.2656,-8.2656,-8.2773,-8.3008,-8.3008,-8.3008,0.0,0.0,-5.3203,-5.3203,-5.3203,-5.3203,-5.3203,-5.3203,-5.3203,-5.3203,-5.3203,-5.3445,-5.4216,-5.5023,-5.5831,-5.6638,-5.7446,-5.796,-5.7997,-5.8694,-5.9478,-6.0272,-6.108,-6.1924,0.0,-6.2768,-6.3135,-6.398,-6.4824,-6.5632,-6.6402,-6.721,-6.8017,-6.8862,-6.8898,-6.9265,-7.0073,-7.0881,-7.1256,-7.1293,-7.2092,-7.2496,-7.2524,-7.3093,-7.3391,-7.3467,-7.4591,-7.5073,-7.5145,-7.5718,-7.5962,-7.6015,-7.6015,-7.6015,-7.6015,-7.6015,-7.6015,-7.6015,-7.6015,-7.6015,-7.6015,-7.6015,-7.6015,-7.6015,-7.6015,-7.6592,-7.7246,-7.7284,-7.8477,-7.9746,-7.9746,-8.04,-8.1054,-8.1054,-8.1093,-8.1093,-8.1093,-8.1093,-8.1093,-8.1093,-8.1244,-8.1447,-8.167,-8.1861,-8.2056,-8.2264,-8.2304,-8.2304,-8.2304,-8.2304,-8.2304,-8.2304,-8.2304,-8.2304,-8.2304,-8.2304,-8.2304,-8.2304,-8.2304,-8.2304,-8.2304,-8.2304,-8.2304,-8.2304,-8.2304,-8.2734,-8.3554,-8.3554,-8.3984,-8.4804,-8.4804,-8.4804,0.0,0.0,-5.3203,-5.3203,-5.3203,-5.3203,-5.3203,-5.3203,-5.3203,-5.3203,-5.3203,-5.3445,-5.4252,-5.506,-5.5868,-5.6675,-5.7483,-5.818,-5.8731,-5.9501,-6.0309,-6.108,-6.1924,0.0,0.0,0.0,0.0,-6.4053,-6.5338,-6.6219,-6.6476,-6.776,-6.8605,-6.8898,-6.9963,-7.0624,-7.0881,-7.1688,-7.2092,-7.2092,-7.2778,-7.3093,-7.3119,-7.3699,-7.419,-7.4571,-7.4923,-7.5323,-7.5702,-7.5917,-7.6015,-7.6015,-7.6015,-7.6015,-7.6015,-7.6015,-7.6015,-7.6015,-7.6015,-7.6015,-7.6015,-7.6015,-7.6015,-7.6092,-7.6669,-7.7053,-7.7515,-7.8669,-7.9361,-7.9939,-8.0516,-8.09,-8.1093,-8.1093,-8.1093,-8.1093,-8.1093,-8.1186,-8.1285,-8.1285,-8.1458,-8.1636,-8.1672,-8.1867,-8.2257,-8.3046,-8.2656,-8.25,-8.3086,-8.3164,-8.3398,-8.3945,-8.4023,-8.4023,-8.4023,-8.4023,-8.4023,-8.4023,-8.4023,-8.4023,-8.4023,-8.4023,-8.4023,-8.4023,-8.4023,-8.4179,-8.4453,-8.4453,-8.4609,-8.4883,-8.4883,-8.4883,0.0,-5.3203,-5.3203,-5.3203,-5.3203,-5.3203,-5.3203,-5.3203,-5.3203,-5.3203,-5.3424,-5.3885,-5.4693,-5.55,-5.6271,-5.7116,-5.7666,-5.829,-5.9074,-5.9905,-6.0713,-6.1484,-6.2328,-6.289,0.0,0.0,0.0,-6.453,-6.5742,-6.6733,-6.732,-6.8348,-6.9155,-6.9743,-7.0742,-7.1439,-7.1725,-7.2239,-7.2602,-7.2844,-7.3224,-7.3516,-7.3747,-7.4299,-7.4751,-7.5109,-7.5323,-7.5616,-7.6015,-7.6015,-7.6015,-7.6015,-7.6015,-7.6207,-7.6476,-7.6476,-7.663,-7.6823,-7.6207,-7.6207,-7.6476,-7.6476,-7.6669,-7.7015,-7.7553,-7.7938,-7.84,-7.9515,-8.0015,-8.04,-8.0939,-8.1093,-8.1093,-8.1093,-8.1093,-8.1093,-8.1093,-8.1244,-8.1407,-8.1407,-8.1869,-8.2254,-8.2254,-8.2682,-8.3261,-8.3945,-8.3594,-8.3437,-8.3984,-8.4062,-8.4297,-8.4844,-8.4883,-8.4883,-8.4883,-8.4883,-8.4883,-8.4883,-8.4883,-8.4883,-8.4883,-8.4883,-8.4883,-8.4883,-8.4883,-8.5039,-8.5351,-8.5351,-8.5508,-8.582,-8.582,-8.582,-5.3203,-5.3203,-5.3203,-5.3203,-5.3203,-5.3203,-5.3203,-5.3203,-5.3203,-5.3203,-5.3849,-5.4656,0.0,0.0,-5.7079,-5.7886,-5.7997,-5.829,-5.9148,-5.9942,-6.0713,0.0,0.0,0.0,0.0,0.0,0.0,-6.5375,0.0,-6.7247,-6.8825,-6.8935,-6.9706,-7.1219,-7.1329,-7.1725,-7.2496,-7.2524,-7.2844,-7.3391,-7.3467,-7.3794,-7.4358,-7.4905,-7.5145,-7.5163,-7.5733,-7.6015,-7.6015,-7.6053,-7.6053,-7.6053,-7.6092,-7.663,-7.7361,-7.7361,-7.7823,-7.8246,-7.6669,-7.6669,-7.7361,-7.7361,-7.7861,-7.8515,-7.8554,-7.9131,-7.9823,-7.9862,-8.0477,-8.1093,-8.1093,-8.1093,-8.1093,-8.1093,-8.1093,-8.1093,-8.1093,-8.1296,-8.1469,-8.1469,-8.2504,-8.3366,-8.3366,-8.4243,-8.4961,-8.4961,-8.5,-8.5039,-8.4961,-8.4961,-8.4961,-8.5039,-8.5039,-8.5039,-8.5039,-8.5039,-8.5039,-8.5039,-8.5039,-8.5039,-8.5039,-8.5039,-8.5039,-8.5039,-8.5039,-8.5429,-8.6289,-8.6289,-8.6679,-8.75,-8.75,-8.75,-5.3203,-5.3203,-5.3203,-5.3203,-5.3203,-5.3203,-5.3203,-5.3203,-5.3203,-5.3203,-5.3849,-5.4656,0.0,0.0,0.0,-5.7886,-5.7997,0.0,-5.9905,-6.0272,0.0,-6.2328,0.0,-6.387,-6.4053,-6.5375,0.0,0.0,-6.6953,-6.7834,-6.8862,-6.9486,-7.0257,-7.1256,-7.1872,-7.2312,-7.2496,-7.2943,-7.3275,-7.3417,-7.4277,-7.4751,-7.4924,-7.5518,-7.5787,-7.5787,-7.5932,-7.6015,-7.6053,-7.6707,-7.6976,-7.7015,-7.763,-7.7977,-7.8169,-7.8169,-7.8323,-7.8438,-7.8015,-7.8015,-7.8169,-7.8169,-7.8323,-7.8631,-7.9285,-7.9631,-7.9939,-8.0592,-8.0939,-8.1093,-8.1093,-8.1093,-8.1093,-8.1093,-8.1093,-8.1093,-8.1093,-8.1886,-8.2578,-8.2578,-8.3605,-8.4487,-8.4487,-8.5272,-8.5859,-8.5859,-8.6406,-8.6601,-8.5937,-8.5859,-8.6133,-8.6758,-8.6836,-8.6836,-8.6836,-8.6836,-8.6836,-8.6836,-8.6836,-8.6836,-8.6836,-8.6836,-8.6836,-8.6836,-8.6836,-8.6953,-8.7187,-8.7187,-8.7265,-8.75,-8.75,-8.75,-5.3203,-5.3203,-5.3203,-5.3203,-5.3203,-5.3203,-5.3203,-5.3203,-5.3298,-5.3665,-5.4363,-5.517,-5.5978,-5.6785,0.0,0.0,0.0,0.0,-6.0236,-6.0713,-6.152,0.0,-6.3796,0.0,-6.5081,-6.5962,-6.6806,0.0,-6.7981,-6.8568,-6.9376,-7.0183,-7.0991,-7.1798,-7.2275,-7.263,-7.2889,-7.325,-7.3651,-7.4168,-7.479,-7.5254,-7.5518,-7.5833,-7.6015,-7.6015,0.0,-7.6553,-7.663,-7.7476,-7.7823,-7.7861,-7.8323,-7.8707,-7.9054,-7.9054,-7.9323,-7.9631,-7.9631,-7.9631,-7.9592,-7.9169,-7.9323,-7.9708,-8.0208,-8.0362,-8.0477,-8.0977,-8.1093,-8.1093,-8.1093,-8.1093,-8.1208,-8.1554,-8.1631,-8.1747,-8.2093,-8.2914,-8.3686,-8.4298,-8.498,-8.5586,-8.5976,-8.6445,-8.6758,-8.6758,-8.7187,-8.7304,-8.6836,-8.6758,-8.6953,-8.7461,-8.75,-8.75,-8.75,-8.75,-8.75,-8.75,-8.75,-8.75,-8.75,-8.75,-8.75,-8.75,-8.75,-8.75,-8.75,-8.75,-8.75,-8.75,-8.75,-8.7695,-5.3203,-5.3203,-5.3203,-5.3203,-5.3203,-5.3203,-5.3203,-5.3203,-5.3424,-5.4216,-5.5023,-5.5831,-5.6638,-5.7446,-5.7997,-5.7997,0.0,-5.9478,-6.0309,-6.108,-6.2218,-6.3906,-6.42,-6.4861,-6.6366,-6.6586,-6.7283,-6.8788,-6.9009,-6.9412,-7.022,-7.0917,-7.1688,-7.2459,-7.2496,-7.2789,-7.3391,-7.3492,-7.4056,-7.5109,-7.5163,-7.548,-7.6015,-7.6015,-7.6053,-7.6207,0.0,0.0,-7.7515,-7.8323,-7.8669,-7.8669,-7.8784,-7.9323,-7.9977,-7.9977,-8.0439,-8.1093,-8.1093,-8.1093,-8.0977,-8.0208,-8.0477,-8.1093,-8.1093,-8.1093,-8.1093,-8.1093,-8.1093,-8.1131,-8.1246,-8.1246,-8.1477,-8.2285,-8.2477,-8.267,-8.3439,-8.4025,-8.4754,-8.6127,-8.6367,-8.6601,-8.7383,-8.75,-8.75,-8.75,-8.75,-8.75,-8.75,-8.75,-8.75,-8.75,-8.75,-8.75,-8.75,-8.7617,-8.7656,-8.7656,-8.7773,-8.7812,-8.7812,-8.7812,-8.7812,-8.7812,-8.7812,-8.7812,-8.7812,-8.7812,-8.7812,-8.7812,-8.7812,-8.8203,-5.3203,-5.3203,-5.3203,-5.3203,-5.3203,-5.3203,-5.3203,-5.3203,0.0,-5.4216,-5.5023,-5.5831,-5.6638,-5.7446,-5.7997,-5.7997,-5.8694,-5.9478,-6.0309,-6.108,-6.2218,0.0,-6.4677,-6.5448,-6.6402,-6.71,0.0,0.0,0.0,0.0,-7.1064,-7.1219,-7.1688,-7.2459,-7.2496,-7.2789,-7.3391,-7.3888,-7.4485,-7.5109,-7.56,-7.5917,-7.6015,-7.6015,-7.6399,-7.7092,0.0,0.0,-7.8361,-7.9208,-7.9592,-7.9669,-8.0362,-8.0746,-8.0862,-8.0862,-8.0977,-8.1093,-8.1093,-8.1093,-8.1093,-8.0939,-8.0977,-8.1093,-8.1093,-8.1093,-8.1093,-8.1093,-8.1093,-8.1246,-8.19,-8.2093,-8.2324,-8.317,-8.3362,-8.3401,-8.3555,-8.4463,-8.5657,-8.7026,-8.7265,-8.7304,-8.7461,-8.75,-8.75,-8.75,-8.75,-8.75,-8.75,-8.75,-8.75,-8.75,-8.75,-8.75,-8.75,-8.8125,-8.8476,-8.8476,-8.9179,-8.957,-8.957,-8.957,-8.957,-8.957,-8.957,-8.957,-8.957,-8.957,-8.957,-8.957,-8.957,-8.9648,-5.3203,-5.3203,-5.3203,-5.3203,-5.3203,-5.3203,-5.3203,0.0,0.0,-5.484,-5.5647,-5.6455,-5.7262,-5.774,0.0,-5.7997,-5.9024,-5.9979,-6.0346,-6.1447,-6.2842,-6.453,-6.5081,-6.5778,0.0,-6.7834,0.0,0.0,0.0,0.0,-7.1256,-7.1725,-7.2092,-7.2496,-7.2816,-7.3275,-7.3865,-7.4426,-7.4999,-7.5567,-7.5848,-7.6015,-7.6015,-7.6476,-7.6899,-7.7361,0.0,0.0,-7.9246,-8.0131,-8.0477,-8.0516,-8.0939,-8.1093,-8.1093,-8.1093,-8.1093,-8.1093,-8.1093,-8.1093,-8.117,-8.1593,-8.1439,-8.1093,-8.1093,-8.14,-8.1708,-8.1708,-8.2054,-8.2477,-8.2862,-8.2978,-8.3208,-8.4055,-8.4689,-8.5123,-8.5229,-8.5832,-8.6566,-8.734,-8.75,-8.75,-8.75,-8.75,-8.75,-8.75,-8.7851,-8.8125,-8.8125,-8.8515,-8.8633,-8.8164,-8.8515,-8.8789,-8.8789,-8.914,-8.9375,-8.9375,-8.9765,-9.0,-9.0,-9.0,-9.0,-9.0,-9.0,-9.0,-9.0,-9.0,-9.0,-9.0,-9.0,-9.0234,-5.3203,-5.3203,-5.3203,-5.3203,-5.3203,-5.324,-5.3445,-5.3959,0.0,-5.5647,-5.6345,-5.7042,-5.785,-5.7997,-5.807,0.0,-5.9465,-6.0456,-6.0639,-6.1887,-6.3429,0.0,-6.5301,0.0,-6.754,-6.8421,0.0,0.0,0.0,0.0,-7.155,-7.2165,-7.2582,-7.2686,-7.3145,-7.3747,-7.4464,-7.4905,-7.5413,-7.6015,-7.6015,-7.6092,-7.6284,-7.6976,-7.7476,-7.79,0.0,0.0,0.0,-8.0823,-8.1093,-8.1093,-8.1093,-8.1093,-8.1093,-8.1093,-8.1093,-8.1131,-8.1285,-8.1362,-8.1477,-8.2324,-8.2016,-8.14,-8.1593,-8.2093,-8.2593,-8.2593,-8.3054,-8.3632,-8.3824,-8.3862,-8.4093,-8.4939,-8.5825,-8.6565,-8.6765,-8.6968,-8.7173,-8.7459,-8.75,-8.75,-8.75,-8.7656,-8.7773,-8.7773,-8.8437,-8.8984,-8.8984,-8.9726,-9.0039,-8.9336,-8.9687,-9.0,-9.0,-9.0156,-9.0273,-9.0273,-9.0469,-9.0547,-9.0547,-9.0547,-9.0547,-9.0547,-9.0547,-9.0547,-9.0547,-9.0547,-9.0547,-9.0547,-9.0547,-9.0937,-5.3203,-5.3203,-5.3203,-5.3203,-5.3203,-5.3408,-5.4106,0.0,-5.484,-5.6381,-5.6748,-5.7042,-5.785,-5.7997,-5.8253,-5.8964,-5.9832,-6.0676,-6.1374,-6.2254,-6.3429,-6.5118,0.0,0.0,-6.754,0.0,0.0,0.0,0.0,0.0,0.0,-7.2459,-7.2733,-7.329,-7.3366,-7.392,-7.5017,-7.5073,-7.5413,-7.6015,-7.6015,-7.6399,-7.7169,-7.7246,-7.813,-7.9592,0.0,0.0,0.0,-8.1054,-8.1093,-8.1093,-8.1093,-8.1093,-8.1093,-8.1093,-8.1093,-8.1208,-8.1939,-8.217,-8.2324,-8.3208,-8.2901,-8.2324,-8.3131,-8.3401,-8.3478,-8.3478,-8.3516,-8.3785,-8.4593,-8.4786,-8.4978,-8.5786,-8.625,-8.6565,-8.6765,-8.6968,-8.7173,-8.7459,-8.75,-8.75,-8.75,-8.8125,-8.8594,-8.8594,-8.9336,-8.9883,-8.9883,-9.0625,-9.1133,-9.1054,-9.0429,-9.0,-9.0,-9.0742,-9.1172,-9.1172,-9.1914,-9.2344,-9.2344,-9.2344,-9.2344,-9.2344,-9.2344,-9.2344,-9.2344,-9.2344,-9.2344,-9.2344,-9.2344,-9.2383,-5.3203,-5.3203,-5.3203,-5.3203,-5.3555,-5.3995,-5.4326,0.0,-5.6051,-5.6675,-5.7189,-5.7629,-5.7923,-5.7997,-5.8253,-5.9074,0.0,0.0,-6.1484,-6.2732,-6.4016,-6.5154,-6.5742,0.0,0.0,0.0,0.0,0.0,0.0,0.0,0.0,-7.325,-7.3315,-7.3911,-7.4255,-7.4652,-7.5091,-7.5446,-7.5749,-7.6015,-7.6515,-7.6938,-7.7323,-7.8323,-7.9169,-7.9823,0.0,0.0,0.0,-8.1093,-8.1093,-8.1093,-8.1093,-8.1093,-8.1093,-8.1093,-8.14,-8.1862,-8.217,-8.2631,-8.3208,-8.4093,-8.4132,-8.3824,-8.3632,-8.3978,-8.4362,-8.4362,-8.4747,-8.517,-8.5517,-8.5632,-8.5735,-8.6211,-8.649,-8.6738,-8.6949,-8.7163,-8.7374,-8.7461,-8.75,-8.7656,-8.8125,-8.8476,-8.8867,-8.9414,-9.0234,-9.0781,-9.0781,-9.1523,-9.207,-9.207,-9.1758,-9.1562,-9.1562,-9.1875,-9.207,-9.207,-9.2422,-9.2617,-9.2617,-9.2617,-9.2617,-9.2617,-9.2617,-9.2617,-9.2617,-9.2617,-9.2617,-9.2617,-9.2617,-9.2617,-5.3203,-5.3203,-5.324,-5.3518,-5.3995,-5.4509,0.0,0.0,-5.6859,-5.7116,-5.7593,-5.7997,-5.7997,-5.818,-5.8621,0.0,0.0,-6.1043,-6.1851,-6.3172,-6.4383,0.0,0.0,0.0,0.0,0.0,0.0,0.0,0.0,0.0,0.0,-7.4124,-7.4101,-7.4527,-7.4924,-7.5201,-7.534,-7.5803,-7.613,-7.6399,-7.7015,-7.7553,-7.8092,-7.9246,-7.9939,0.0,0.0,0.0,0.0,-8.1093,-8.1093,-8.1093,-8.1093,-8.1246,-8.1439,-8.1439,-8.1977,-8.2708,-8.2978,-8.3478,-8.4132,-8.4978,-8.5247,-8.5132,-8.4516,-8.4786,-8.5247,-8.5247,-8.567,-8.6094,-8.6094,-8.6094,-8.6168,-8.6429,-8.663,-8.6872,-8.7078,-8.7325,-8.7578,-8.7812,-8.7851,-8.8125,-8.8945,-8.9297,-8.9687,-9.0273,-9.1133,-9.1679,-9.1679,-9.2226,-9.2617,-9.2617,-9.2617,-9.2617,-9.2617,-9.2617,-9.2617,-9.2617,-9.2617,-9.2617,-9.2617,-9.2617,-9.2617,-9.2617,-9.2617,-9.2617,-9.2617,-9.2617,-9.2617,-9.2617,-9.2617,-9.2617,-5.3203,-5.3203,-5.3408,-5.4179,-5.4399,-5.484,0.0,0.0,-5.7042,-5.7813,-5.7997,-5.7997,-5.7997,-5.8657,-5.9441,-6.0272,0.0,0.0,-6.267,-6.3539,0.0,0.0,0.0,0.0,0.0,0.0,0.0,0.0,0.0,0.0,0.0,0.0,-7.5091,-7.5091,-7.5091,-7.5396,-7.5962,-7.6015,-7.6438,-7.7284,-7.7284,-7.8169,-7.9785,-7.9785,0.0,0.0,0.0,0.0,0.0,-8.1093,-8.1093,-8.1093,-8.1093,-8.1593,-8.2285,-8.2285,-8.2824,-8.3708,-8.4555,-8.4901,-8.5016,-8.5824,-8.6094,-8.6094,-8.6094,-8.6094,-8.6094,-8.6094,-8.6094,-8.6094,-8.6094,-8.6094,-8.6168,-8.6429,-8.663,-8.6872,-8.7078,-8.7325,-8.7734,-8.8515,-8.8672,-8.8945,-8.9844,-9.0703,-9.1289,-9.1289,-9.2031,-9.2578,-9.2578,-9.2578,-9.2617,-9.2617,-9.2617,-9.2617,-9.2617,-9.2617,-9.2617,-9.2617,-9.2617,-9.2617,-9.2617,-9.2617,-9.2617,-9.2617,-9.2617,-9.2617,-9.2617,-9.2617,-9.2617,-9.2617,-9.2617,-9.2617,-5.3203,-5.3592,-5.4069,-5.4326,-5.5244,-5.6161,-5.6675,0.0,-5.7703,-5.796,-5.7997,-5.818,-5.8731,-5.9038,-5.9625,-6.1006,-6.141,0.0,0.0,0.0,0.0,0.0,0.0,0.0,0.0,0.0,0.0,0.0,0.0,0.0,0.0,0.0,-7.5718,-7.5718,-7.5718,-7.5818,-7.6015,-7.6015,-7.6438,-7.7323,-7.7861,-7.8707,-7.9823,-8.0439,0.0,0.0,0.0,0.0,0.0,-8.1093,-8.1093,-8.1131,-8.1708,-8.2093,-8.2362,-8.2978,-8.3747,-8.4516,-8.4786,-8.5247,-8.5747,-8.6017,-8.6094,-8.6094,-8.6094,-8.6094,-8.6094,-8.6094,-8.6094,-8.6094,-8.6094,-8.6223,-8.6442,-8.6641,-8.688,-8.7082,-8.7327,-8.7889,-8.8398,-8.8633,-8.9179,-8.9883,-9.0742,-9.1133,-9.1484,-9.2109,-9.2422,-9.2617,-9.2617,-9.2617,-9.2617,-9.2617,-9.2617,-9.2617,-9.2617,-9.2617,-9.2617,-9.2617,-9.2617,-9.2617,-9.2617,-9.2617,-9.2617,-9.2617,-9.2617,-9.2617,-9.2617,-9.2617,-9.2617,-9.2617,-9.2617,-9.2617,0.0,-5.4252,-5.4913,-5.5244,-5.6051,0.0,0.0,-5.7629,-5.7997,-5.7997,-5.8253,-5.8621,-5.9111,-5.9698,-6.0491,-6.1708,0.0,0.0,0.0,0.0,0.0,0.0,0.0,0.0,0.0,0.0,0.0,0.0,0.0,0.0,0.0,0.0,-7.6015,-7.6015,-7.6015,-7.6015,-7.6015,-7.6322,-7.6899,-7.7746,-7.8592,-7.9438,-8.0323,0.0,0.0,0.0,0.0,0.0,0.0,-8.1093,-8.1285,-8.1593,-8.2093,-8.2708,-8.3362,-8.3901,-8.4632,-8.5363,-8.5363,-8.567,-8.6094,-8.6094,-8.6094,-8.6094,-8.6094,-8.6094,-8.6094,-8.6094,-8.6094,-8.6094,-8.6094,-8.6288,-8.6565,-8.6765,-8.7202,-8.7681,-8.7889,-8.8594,-8.9297,-8.9609,-9.0117,-9.0781,-9.164,-9.1797,-9.1953,-9.2539,-9.2617,-9.2617,-9.2617,-9.2617,-9.2617,-9.2617,-9.2617,-9.2617,-9.2617,-9.2617,-9.2617,-9.2617,-9.2617,-9.2617,-9.2617,-9.2617,-9.2617,-9.2617,-9.2617,-9.2617,-9.2617,-9.2617,-9.2617,-9.2617,-9.2617,-9.2617,0.0,0.0,0.0,0.0,0.0,0.0,-5.7813,-5.7997,0.0,-5.7997,-5.8657,-5.9221,-5.9258,-6.0553,-6.1821,0.0,0.0,0.0,0.0,0.0,0.0,0.0,0.0,0.0,0.0,0.0,0.0,0.0,0.0,0.0,0.0,0.0,0.0,-7.6015,-7.6015,-7.6015,-7.6015,-7.6861,-7.7707,-7.8515,-7.9361,-8.0246,-8.1093,0.0,0.0,0.0,0.0,0.0,0.0,-8.117,-8.1631,-8.2324,-8.2439,-8.3478,-8.4901,-8.4978,-8.5478,-8.6094,-8.6094,-8.6094,-8.6094,-8.6094,-8.6094,-8.6094,-8.6094,-8.6094,-8.6094,-8.6094,-8.6094,-8.6094,-8.6094,-8.6303,-8.6588,-8.6843,-8.7676,-8.8507,-8.8748,-8.9492,-9.0312,-9.1133,-9.1367,-9.164,-9.2461,-9.2617,-9.2617,-9.2617,-9.2617,-9.2617,-9.2617,-9.2617,-9.2617,-9.2617,-9.2617,-9.2617,-9.2617,-9.2617,-9.2617,-9.2617,-9.2617,-9.2617,-9.2617,-9.2617,-9.2617,-9.2617,-9.2617,-9.2617,-9.2617,-9.2617,-9.2617,-9.2617,-9.2617,-9.2617,0.0,0.0,0.0,0.0,0.0,-5.7776,0.0,-5.7997,-5.7997,-5.7997,-5.8657,-5.9368,-6.0015,-6.126,-6.2435,0.0,0.0,0.0,0.0,0.0,0.0,0.0,0.0,0.0,0.0,0.0,0.0,0.0,0.0,0.0,0.0,0.0,0.0,-7.6015,-7.6015,-7.6015,-7.6015,-7.6861,-7.7707,-7.8515,-7.9361,-8.0246,-8.1093,0.0,0.0,0.0,0.0,0.0,-8.1131,-8.1747,-8.2131,-8.2439,-8.3785,-8.4555,-8.4978,-8.5593,-8.594,-8.6094,-8.6094,-8.6094,-8.6094,-8.6094,-8.6094,-8.6094,-8.6094,-8.6094,-8.6094,-8.6094,-8.6094,-8.6094,-8.6094,-8.6417,-8.6903,-8.7625,-8.8223,-8.8825,-8.9531,-9.039,-9.1054,-9.125,-9.1836,-9.2344,-9.2578,-9.2617,-9.2617,-9.2617,-9.2617,-9.2617,-9.2617,-9.2617,-9.2617,-9.2617,-9.2617,-9.2617,-9.2617,-9.2617,-9.2617,-9.2617,-9.2617,-9.2617,-9.2617,-9.2617,-9.2617,-9.2617,-9.2617,-9.2617,-9.2617,-9.2617,-9.2617,-9.2617,-9.2617,-9.2617,0.0,0.0,-5.7336,-5.7336,-5.7666,-5.7997,-5.7997,-5.7997,-5.8107,-5.8474,-5.9208,-6.0073,-6.1126,-6.2205,-6.3243,0.0,-6.4653,0.0,0.0,0.0,0.0,0.0,0.0,0.0,0.0,0.0,0.0,0.0,0.0,0.0,0.0,0.0,0.0,0.0,-7.6015,-7.6207,-7.6592,-7.7438,-7.8246,-7.9092,-7.9977,-8.0631,-8.1093,0.0,0.0,0.0,0.0,0.0,-8.167,-8.2131,-8.2785,-8.3593,-8.4516,-8.5132,-8.5517,-8.594,-8.6094,-8.6094,-8.6094,-8.6094,-8.6094,-8.6094,-8.6094,-8.6094,-8.6094,-8.6094,-8.6094,-8.6094,-8.6094,-8.622,-8.6731,-8.7103,-8.7627,-8.8618,-8.9369,-9.0039,-9.0508,-9.1289,-9.1914,-9.1914,-9.2265,-9.2617,-9.2617,-9.2617,-9.2617,-9.2617,-9.2617,-9.2617,-9.2617,-9.2617,-9.2617,-9.2617,-9.2617,-9.2617,-9.2617,-9.2617,-9.2617,-9.2617,-9.2617,-9.2617,-9.2617,-9.2617,-9.2617,-9.2617,-9.2617,-9.2617,-9.2617,-9.2617,-9.2617,-9.2617,-9.2617,-9.2617,-5.7813,-5.7997,-5.7997,-5.7997,-5.7997,-5.7997,-5.7997,-5.7997,-5.8217,-5.9038,-5.9832,-6.0793,-6.2166,-6.3121,-6.4019,0.0,0.0,0.0,0.0,0.0,0.0,0.0,0.0,0.0,0.0,0.0,0.0,0.0,0.0,0.0,0.0,0.0,0.0,0.0,-7.6015,-7.6476,-7.7476,-7.8169,-7.8938,-7.9823,-8.0669,-8.1093,-8.1093,-8.1093,0.0,0.0,0.0,0.0,-8.2324,-8.2593,-8.3555,-8.4901,-8.5055,-8.5517,-8.6094,-8.6094,-8.6094,-8.6094,-8.6094,-8.6094,-8.6094,-8.6094,-8.6094,-8.6094,-8.6094,-8.6094,-8.6149,-8.6291,-8.6345,-8.6555,-8.7462,-8.8031,-8.8591,-8.9662,-9.0605,-9.1328,-9.1484,-9.207,-9.2617,-9.2617,-9.2617,-9.2617,-9.2617,-9.2617,-9.2617,-9.2617,-9.2617,-9.2617,-9.2617,-9.2617,-9.2617,-9.2617,-9.2617,-9.2617,-9.2617,-9.2617,-9.2617,-9.2617,-9.2617,-9.2617,-9.2617,-9.2617,-9.2617,-9.2617,-9.2617,-9.2617,-9.2617,-9.2617,-9.2617,-9.2617,-9.2617,-9.2617,-5.796,-5.7997,-5.7997,-5.7997,-5.7997,-5.7997,-5.7997,-5.7997,-5.8217,-5.9038,-5.9832,-6.0793,-6.2166,-6.3433,-6.4463,0.0,0.0,0.0,0.0,0.0,0.0,0.0,0.0,0.0,0.0,0.0,0.0,0.0,0.0,0.0,0.0,0.0,0.0,0.0,0.0,-7.6746,-7.8284,-7.8438,-7.8938,-7.9823,-8.0669,-8.1093,-8.1093,-8.1093,-8.1093,0.0,0.0,0.0,-8.2401,-8.3901,-8.467,-8.4978,-8.567,-8.5978,-8.6094,-8.6094,-8.6094,-8.6094,-8.6094,-8.6094,-8.6094,-8.6094,-8.6094,-8.6094,-8.6094,-8.6094,-8.6291,-8.7188,-8.7462,-8.7475,-8.7642,-8.8551,-8.9662,-9.0582,-9.1074,-9.1484,-9.2226,-9.25,-9.2617,-9.2617,-9.2617,-9.2617,-9.2617,-9.2617,-9.2617,-9.2617,-9.2617,-9.2617,-9.2617,-9.2617,-9.2617,-9.2617,-9.2617,-9.2617,-9.2617,-9.2617,-9.2617,-9.2617,-9.2617,-9.2617,-9.2617,-9.2617,-9.2617,-9.2617,-9.2617,-9.2617,-9.2617,-9.2617,-9.2617,-9.2617,-9.2617,-9.2617,-5.7997,-5.7997,-5.7997,-5.7997,-5.7997,-5.7997,-5.7997,-5.8327,-5.8877,-5.9685,-6.0739,-6.1908,0.0,0.0,-6.522,-6.6672,0.0,0.0,0.0,0.0,0.0,0.0,0.0,0.0,0.0,0.0,0.0,0.0,0.0,0.0,0.0,0.0,0.0,0.0,0.0,0.0,-7.8477,-7.8977,-7.9631,-8.0516,-8.09,-8.1093,-8.1093,-8.1093,-8.1093,0.0,0.0,-8.2554,-8.3093,-8.4401,-8.517,-8.5593,-8.5978,-8.6094,-8.6094,-8.6094,-8.6094,-8.6094,-8.6094,-8.6094,-8.6094,-8.6094,-8.6094,-8.6094,-8.6094,-8.644,-8.6923,-8.7526,-8.7693,-8.7972,-8.9173,-8.9943,-9.0637,-9.1616,-9.1949,-9.2109,-9.25,-9.2617,-9.2617,-9.2617,-9.2617,-9.2617,-9.2617,-9.2617,-9.2617,-9.2617,-9.2617,-9.2617,-9.2617,-9.2617,-9.2617,-9.2617,-9.2617,-9.2617,-9.2617,-9.2617,-9.2617,-9.2617,-9.2617,-9.2617,-9.2617,-9.2617,-9.2617,-9.2617,-9.2617,-9.2617,-9.2617,-9.2617,-9.2617,-9.2617,-9.2617,-9.2617,-5.7997,-5.7997,-5.8042,-5.8142,-5.8074,-5.8033,-5.8253,-5.8846,-5.9697,-6.0632,-6.1759,-6.2983,0.0,-6.5123,0.0,-6.8075,0.0,0.0,0.0,0.0,0.0,0.0,0.0,0.0,0.0,0.0,0.0,0.0,0.0,0.0,0.0,0.0,0.0,0.0,0.0,0.0,-7.8477,-7.9361,-8.0246,-8.1093,-8.1093,-8.1093,-8.1093,-8.1093,-8.1208,-8.1439,-8.2247,-8.3093,-8.3978,-8.4824,-8.5555,-8.6094,-8.6094,-8.6094,-8.6094,-8.6094,-8.6094,-8.6094,-8.6094,-8.6094,-8.6094,-8.6094,-8.6247,-8.6401,-8.6401,-8.7017,-8.7786,-8.8236,-8.8395,-8.8787,-9.0529,-9.1187,-9.157,-9.2381,-9.2617,-9.2617,-9.2617,-9.2617,-9.2617,-9.2617,-9.2617,-9.2617,-9.2617,-9.2617,-9.2617,-9.2617,-9.2617,-9.2617,-9.2617,-9.2617,-9.2617,-9.2617,-9.2617,-9.2617,-9.2617,-9.2617,-9.2617,-9.2617,-9.2617,-9.2617,-9.2617,-9.2617,-9.2617,-9.2617,-9.2617,-9.2617,-9.2617,-9.2617,-9.2617,-9.2617,-9.2617,-9.2617,-5.7997,-5.7997,-5.8097,-5.8528,-5.8348,-5.8217,-5.8927,-5.9516,-6.039,-6.1949,-6.2703,-6.3479,-6.4797,-6.6088,0.0,0.0,0.0,0.0,0.0,0.0,0.0,0.0,0.0,0.0,0.0,0.0,0.0,0.0,0.0,0.0,0.0,0.0,0.0,0.0,0.0,0.0,-7.8477,-7.9361,-8.0246,-8.1093,-8.1093,-8.1093,-8.1093,-8.1093,-8.1516,-8.2247,-8.3131,-8.4016,-8.4863,-8.567,-8.6055,-8.6094,-8.6094,-8.6094,-8.6094,-8.6094,-8.6094,-8.6094,-8.6094,-8.6094,-8.6094,-8.6094,-8.6632,-8.7325,-8.7325,-8.7902,-8.8852,-9.0051,-9.0379,-9.0477,-9.0901,-9.1736,-9.25,-9.2578,-9.2617,-9.2617,-9.2617,-9.2617,-9.2617,-9.2617,-9.2617,-9.2617,-9.2617,-9.2617,-9.2617,-9.2617,-9.2617,-9.2617,-9.2617,-9.2617,-9.2617,-9.2617,-9.2617,-9.2617,-9.2617,-9.2617,-9.2617,-9.2617,-9.2617,-9.2617,-9.2617,-9.2617,-9.2617,-9.2617,-9.2617,-9.2617,-9.2617,-9.2617,-9.2617,-9.2617,-9.2617,-9.2617,-5.7997,-5.7997,-5.8065,-5.8216,-5.8332,-5.873,-5.9861,-6.0696,-6.1506,-6.2596,-6.363,-6.4737,-6.6102,0.0,0.0,0.0,0.0,0.0,0.0,0.0,0.0,0.0,0.0,0.0,0.0,0.0,0.0,0.0,0.0,0.0,0.0,0.0,0.0,0.0,0.0,0.0,0.0,-8.0169,-8.0785,-8.1093,-8.1093,-8.1093,-8.1131,-8.1631,-8.2016,-8.2362,-8.3785,-8.4593,-8.4978,-8.5786,-8.6094,-8.6094,-8.6094,-8.6094,-8.6094,-8.6094,-8.6094,-8.6094,-8.6094,-8.6094,-8.6209,-8.6748,-8.7132,-8.7517,-8.8017,-8.8907,-8.9795,-9.0431,-9.1084,-9.1671,-9.1929,-9.2302,-9.2617,-9.2617,-9.2617,-9.2617,-9.2617,-9.2617,-9.2617,-9.2617,-9.2617,-9.2617,-9.2617,-9.2617,-9.2617,-9.2617,-9.2617,-9.2617,-9.2617,-9.2617,-9.2617,-9.2617,-9.2617,-9.2617,-9.2617,-9.2617,-9.2617,-9.2617,-9.2617,-9.2617,-9.2617,-9.2617,-9.2617,-9.2617,-9.2617,-9.2617,-9.2617,-9.2617,-9.2617,-9.2617,-9.2617,-9.2617,-5.8216,-5.8216,-5.8378,-5.8946,-5.9206,-5.9797,-6.1543,-6.2037,-6.2411,-6.3527,-6.4791,-6.5997,-6.6935,-6.8052,0.0,0.0,0.0,0.0,0.0,0.0,0.0,0.0,0.0,0.0,0.0,0.0,0.0,0.0,0.0,0.0,0.0,0.0,0.0,0.0,0.0,0.0,0.0,-8.0669,-8.1093,-8.1093,-8.1093,-8.1093,-8.1131,-8.1939,-8.2439,-8.2785,-8.4247,-8.5055,-8.5324,-8.5863,-8.6094,-8.6094,-8.6094,-8.6094,-8.6094,-8.6094,-8.6094,-8.6132,-8.6401,-8.6517,-8.6671,-8.7517,-8.7979,-8.832,-8.9006,-8.989,-9.0725,-9.1014,-9.1643,-9.2241,-9.2536,-9.2617,-9.2617,-9.2617,-9.2617,-9.2617,-9.2617,-9.2617,-9.2617,-9.2617,-9.2617,-9.2617,-9.2617,-9.2617,-9.2617,-9.2617,-9.2617,-9.2617,-9.2617,-9.2617,-9.2617,-9.2617,-9.2617,-9.2617,-9.2617,-9.2617,-9.2617,-9.2617,-9.2617,-9.2617,-9.2617,-9.2617,-9.2617,-9.2617,-9.2617,-9.2617,-9.2617,-9.2617,-9.2617,-9.2617,-9.2617,-9.2617,-5.8713,-5.8713,-5.9139,-6.095,-6.1045,-6.1418,-6.4013,-6.3559,-6.3093,-6.4771,-6.6193,-6.709,-6.7128,-6.8552,0.0,0.0,0.0,0.0,0.0,0.0,0.0,0.0,0.0,0.0,0.0,0.0,0.0,0.0,0.0,0.0,0.0,0.0,0.0,0.0,0.0,0.0,0.0,-8.0669,-8.1093,-8.1093,-8.1093,-8.1093,-8.1131,-8.1939,-8.2785,-8.367,-8.4516,-8.5363,-8.6094,-8.6094,-8.6094,-8.6094,-8.6094,-8.6094,-8.6094,-8.6094,-8.6094,-8.6247,-8.7094,-8.7401,-8.7555,-8.844,-8.9248,-8.9949,-9.0207,-9.0856,-9.1614,-9.206,-9.2217,-9.2245,-9.2536,-9.2617,-9.2617,-9.2617,-9.2617,-9.2617,-9.2617,-9.2617,-9.2617,-9.2617,-9.2617,-9.2617,-9.2617,-9.2617,-9.2617,-9.2617,-9.2617,-9.2617,-9.2617,-9.2617,-9.2617,-9.2617,-9.2617,-9.2617,-9.2617,-9.2617,-9.2617,-9.2617,-9.2617,-9.2617,-9.2617,-9.2617,-9.2617,-9.2617,-9.2617,-9.2617,-9.2617,-9.2617,-9.2617,-9.2617,-9.2617,-9.2617,-5.8713,-5.9383,-6.0225,-6.077,-6.1462,-6.2414,-6.38,-6.4071,-6.4486,-6.6175,-6.6832,-6.7475,-6.8706,-6.936,0.0,0.0,0.0,0.0,0.0,0.0,0.0,0.0,0.0,0.0,0.0,0.0,0.0,0.0,0.0,0.0,0.0,0.0,0.0,0.0,0.0,0.0,0.0,0.0,-8.1093,-8.1093,-8.1093,-8.14,-8.1977,-8.2824,-8.367,-8.4555,-8.5401,-8.5901,-8.6094,-8.6094,-8.6094,-8.6094,-8.6094,-8.6094,-8.6094,-8.6094,-8.6478,-8.7055,-8.7325,-8.7786,-8.844,-8.9286,-8.971,-9.0064,-9.0903,-9.1444,-9.1839,-9.2128,-9.2345,-9.2494,-9.2578,-9.2617,-9.2617,-9.2617,-9.2617,-9.2617,-9.2617,-9.2617,-9.2617,-9.2617,-9.2617,-9.2617,-9.2617,-9.2617,-9.2617,-9.2617,-9.2617,-9.2617,-9.2617,-9.2617,-9.2617,-9.2617,-9.2617,-9.2617,-9.2617,-9.2617,-9.2617,-9.2617,-9.2617,-9.2617,-9.2617,-9.2617,-9.2617,-9.2617,-9.2617,-9.2617,-9.2617,-9.2617,-9.2617,-9.2617,-9.2617,-9.2617,-5.9626,-6.0344,-6.118,-6.2024,-6.2704,-6.3367,-6.4446,-6.4909,-6.5474,-6.6821,-6.7359,-6.8052,-6.9436,-6.9975,0.0,0.0,0.0,0.0,0.0,0.0,0.0,0.0,0.0,0.0,0.0,0.0,0.0,0.0,0.0,0.0,0.0,0.0,0.0,0.0,0.0,0.0,0.0,0.0,0.0,-8.1093,-8.14,-8.2016,-8.2824,-8.3362,-8.4093,-8.4939,-8.5747,-8.6094,-8.6094,-8.6094,-8.6094,-8.6094,-8.6094,-8.6094,-8.6132,-8.6478,-8.694,-8.7517,-8.8171,-8.8748,-8.9325,-9.0171,-9.0483,-9.0705,-9.1423,-9.183,-9.2081,-9.2291,-9.2492,-9.2617,-9.2617,-9.2617,-9.2617,-9.2617,-9.2617,-9.2617,-9.2617,-9.2617,-9.2617,-9.2617,-9.2617,-9.2617,-9.2617,-9.2617,-9.2617,-9.2617,-9.2617,-9.2617,-9.2617,-9.2617,-9.2617,-9.2617,-9.2617,-9.2617,-9.2617,-9.2617,-9.2617,-9.2617,-9.2617,-9.2617,-9.2617,-9.2617,-9.2617,-9.2617,-9.2617,-9.2617,-9.2617,-9.2617,-9.2617,-9.2617,-9.2617,-9.2617,-6.1058,-6.152,-6.217,-6.4091,-6.4329,-6.4403,-6.5602,-6.5974,-6.6244,-6.7051,0.0,-6.8783,-6.9667,0.0,0.0,0.0,0.0,0.0,0.0,0.0,0.0,0.0,0.0,0.0,0.0,0.0,0.0,0.0,0.0,0.0,0.0,0.0,0.0,0.0,0.0,0.0,0.0,0.0,0.0,0.0,-8.1939,-8.2785,-8.3708,-8.3708,-8.417,-8.5055,-8.5786,-8.6094,-8.6094,-8.6094,-8.6094,-8.6094,-8.6094,-8.617,-8.6324,-8.7094,-8.7517,-8.7863,-8.9363,-8.994,-9.0171,-9.0941,-9.1354,-9.154,-9.1802,-9.2022,-9.2241,-9.2536,-9.2617,-9.2617,-9.2617,-9.2617,-9.2617,-9.2617,-9.2617,-9.2617,-9.2617,-9.2617,-9.2617,-9.2617,-9.2617,-9.2617,-9.2617,-9.2617,-9.2617,-9.2617,-9.2617,-9.2617,-9.2617,-9.2617,-9.2617,-9.2617,-9.2617,-9.2617,-9.2617,-9.2617,-9.2617,-9.2617,-9.2617,-9.2617,-9.2617,-9.2617,-9.2617,-9.2617,-9.2617,-9.2617,-9.2617,-9.2617,-9.2617,-9.2617,-9.2617,-9.2617,-6.1323,-6.2637,-6.4001,-6.4487,-6.5039,-6.5551,-6.5846,-6.6397,-6.709,-6.7936,-6.8821,-6.9667,0.0,0.0,0.0,0.0,0.0,0.0,0.0,0.0,0.0,0.0,0.0,0.0,0.0,0.0,0.0,0.0,0.0,0.0,0.0,0.0,0.0,0.0,0.0,0.0,-8.1093,-8.1093,-8.14,0.0,-8.2208,-8.3093,-8.4632,-8.4632,-8.5055,-8.5863,-8.6017,-8.6094,-8.6094,-8.6094,-8.6094,-8.6094,-8.6094,-8.6517,-8.7132,-8.7325,-8.8248,-8.9402,-8.9787,-9.0364,-9.0941,-9.1133,-9.1354,-9.154,-9.1802,-9.2022,-9.2241,-9.2536,-9.2617,-9.2617,-9.2617,-9.2617,-9.2617,-9.2617,-9.2617,-9.2617,-9.2617,-9.2617,-9.2617,-9.2617,-9.2617,-9.2617,-9.2617,-9.2617,-9.2617,-9.2617,-9.2617,-9.2617,-9.2617,-9.2617,-9.2617,-9.2617,-9.2617,-9.2617,-9.2617,-9.2617,-9.2617,-9.2617,-9.2617,-9.2617,-9.2617,-9.2617,-9.2617,-9.2617,-9.2617,-9.2617,-9.2617,-9.2617,-9.2617,-9.2617,-9.2617,-9.2617,-6.2752,-6.3732,-6.4705,-6.5128,-6.5551,-6.6013,-6.6397,-6.7128,-6.7975,-6.8859,-6.9398,0.0,0.0,0.0,0.0,0.0,0.0,0.0,0.0,0.0,0.0,0.0,0.0,0.0,0.0,0.0,0.0,0.0,0.0,0.0,0.0,0.0,0.0,0.0,0.0,0.0,-8.1093,-8.1093,-8.1516,-8.2324,-8.2708,-8.3824,-8.5478,-8.5478,-8.5709,-8.6094,-8.6094,-8.6094,-8.6094,-8.6094,-8.6094,-8.6132,-8.6555,-8.7017,-8.7517,-8.8286,-8.9171,-8.9979,-9.0402,-9.0825,-9.121,-9.121,-9.1412,-9.1739,-9.1878,-9.2117,-9.2404,-9.2577,-9.2617,-9.2617,-9.2617,-9.2617,-9.2617,-9.2617,-9.2617,-9.2617,-9.2617,-9.2617,-9.2617,-9.2617,-9.2617,-9.2617,-9.2617,-9.2617,-9.2617,-9.2617,-9.2617,-9.2617,-9.2617,-9.2617,-9.2617,-9.2617,-9.2617,-9.2617,-9.2617,-9.2617,-9.2617,-9.2617,-9.2617,-9.2617,-9.2617,-9.2617,-9.2617,-9.2617,-9.2617,-9.2617,-9.2617,-9.2617,-9.2617,-9.2617,-9.2617,-9.2617,-6.4283,-6.4705,-6.5013,-6.5705,-6.5897,0.0,-6.6898,-6.7782,-6.8667,-6.9513,0.0,0.0,0.0,0.0,0.0,0.0,0.0,0.0,0.0,0.0,0.0,0.0,0.0,0.0,0.0,0.0,0.0,0.0,0.0,0.0,0.0,0.0,0.0,0.0,0.0,-8.1093,-8.1093,-8.1246,-8.1708,-8.2554,-8.3555,-8.4747,-8.6094,-8.6094,-8.6094,-8.6094,-8.6094,-8.6094,-8.6094,-8.6094,-8.6209,-8.6401,-8.7132,-8.7594,-8.8017,-8.9402,-9.0017,-9.0248,-9.0941,-9.121,-9.1227,-9.1219,-9.1554,-9.1923,-9.1926,-9.226,-9.2617,-9.2617,-9.2617,-9.2617,-9.2617,-9.2617,-9.2617,-9.2617,-9.2617,-9.2617,-9.2617,-9.2617,-9.2617,-9.2617,-9.2617,-9.2617,-9.2617,-9.2617,-9.2617,-9.2617,-9.2617,-9.2617,-9.2617,-9.2617,-9.2617,-9.2617,-9.2617,-9.2617,-9.2617,-9.2617,-9.2617,-9.2617,-9.2617,-9.2617,-9.2617,-9.2617,-9.2617,-9.2617,-9.2617,-9.2617,-9.2617,-9.2617,-9.2617,-9.2617,-9.2617,-9.2617,-6.4538,0.0,-6.5743,0.0,-6.5897,-6.609,0.0,0.0,-6.8667,0.0,0.0,0.0,0.0,0.0,0.0,0.0,0.0,0.0,0.0,0.0,0.0,0.0,0.0,0.0,0.0,0.0,0.0,0.0,0.0,0.0,0.0,0.0,-7.8477,-7.8477,-8.0169,0.0,-8.1093,-8.1785,-8.2554,-8.3439,-8.5016,-8.5901,-8.6094,-8.6094,-8.6094,-8.6094,-8.6094,-8.6094,-8.6094,-8.6094,-8.6555,-8.7248,-8.7363,-8.8286,-8.9594,-8.9825,-9.0402,-9.1056,-9.1171,-9.121,-9.1241,-9.1412,-9.1661,-9.1918,-9.2117,-9.2351,-9.2617,-9.2617,-9.2617,-9.2617,-9.2617,-9.2617,-9.2617,-9.2617,-9.2617,-9.2617,-9.2617,-9.2617,-9.2617,-9.2617,-9.2617,-9.2617,-9.2617,-9.2617,-9.2617,-9.2617,-9.2617,-9.2617,-9.2617,-9.2617,-9.2617,-9.2617,-9.2617,-9.2617,-9.2617,-9.2617,-9.2617,-9.2617,-9.2617,-9.2617,-9.2617,-9.2617,-9.2617,-9.2617,-9.2617,-9.2617,-9.2617,-9.2617,-9.2617,-9.2617,-9.2617,-9.2617,-6.532,-6.559,-6.5897,0.0,-6.5897,-6.6244,-6.7513,0.0,0.0,0.0,0.0,0.0,0.0,0.0,0.0,0.0,0.0,0.0,0.0,0.0,0.0,0.0,0.0,0.0,0.0,0.0,0.0,0.0,0.0,0.0,0.0,-7.7592,-7.8477,-7.8477,-8.0169,0.0,-8.1093,-8.19,-8.2978,-8.4324,-8.5517,-8.6094,-8.6094,-8.6094,-8.6094,-8.6094,-8.6094,-8.6094,-8.6132,-8.6632,-8.7055,-8.7478,-8.844,-8.9248,-8.9979,-9.0441,-9.0864,-9.121,-9.121,-9.121,-9.1241,-9.1431,-9.1695,-9.1918,-9.2139,-9.2397,-9.2617,-9.2617,-9.2617,-9.2617,-9.2617,-9.2617,-9.2617,-9.2617,-9.2617,-9.2617,-9.2617,-9.2617,-9.2617,-9.2617,-9.2617,-9.2617,-9.2617,-9.2617,-9.2617,-9.2617,-9.2617,-9.2617,-9.2617,-9.2617,-9.2617,-9.2617,-9.2617,-9.2617,-9.2617,-9.2617,-9.2617,-9.2617,-9.2617,-9.2617,-9.2617,-9.2617,-9.2617,-9.2617,-9.2617,-9.2617,-9.2617,-9.2617,-9.2617,-9.2617,-9.2617,-9.2617,0.0,0.0,-6.5897,-6.5897,-6.6051,-6.659,0.0,0.0,0.0,0.0,0.0,0.0,0.0,0.0,0.0,0.0,0.0,0.0,0.0,0.0,0.0,0.0,0.0,0.0,0.0,0.0,0.0,0.0,0.0,0.0,-7.6322,-7.7707,-7.8592,-7.8823,-8.0323,-8.1093,-8.1093,-8.2131,-8.3516,-8.5209,-8.5824,-8.6094,-8.6094,-8.6094,-8.6094,-8.6094,-8.6094,-8.6247,-8.6478,-8.7132,-8.7632,-8.8171,-8.9402,-9.0056,-9.0325,-9.0979,-9.121,-9.1227,-9.127,-9.1264,-9.1307,-9.159,-9.1821,-9.2041,-9.2225,-9.2447,-9.2617,-9.2617,-9.2617,-9.2617,-9.2617,-9.2617,-9.2617,-9.2617,-9.2617,-9.2617,-9.2617,-9.2617,-9.2617,-9.2617,-9.2617,-9.2617,-9.2617,-9.2617,-9.2617,-9.2617,-9.2617,-9.2617,-9.2617,-9.2617,-9.2617,-9.2617,-9.2617,-9.2617,-9.2617,-9.2617,-9.2617,-9.2617,-9.2617,-9.2617,-9.2617,-9.2617,-9.2617,-9.2617,-9.2617,-9.2617,-9.2617,-9.2617,-9.2617,-9.2617,-9.2617,-9.2617,0.0,-6.5897,0.0,-6.5897,-6.6474,0.0,0.0,0.0,0.0,0.0,0.0,0.0,0.0,0.0,0.0,0.0,0.0,0.0,0.0,0.0,0.0,0.0,0.0,0.0,0.0,0.0,0.0,0.0,0.0,0.0,-7.7169,-7.8015,-7.8861,-7.9708,-8.0631,-8.1093,-8.1093,-8.2708,-8.4362,-8.6055,-8.6094,-8.6094,-8.6094,-8.6094,-8.6094,-8.6094,-8.6094,-8.6555,-8.7325,-8.7363,-8.8325,-8.9787,-8.9863,-9.0402,-9.1133,-9.1171,-9.121,-9.1224,-9.1441,-9.1475,-9.1553,-9.2022,-9.2164,-9.2229,-9.2494,-9.2578,-9.2617,-9.2617,-9.2617,-9.2617,-9.2617,-9.2617,-9.2617,-9.2617,-9.2617,-9.2617,-9.2617,-9.2617,-9.2617,-9.2617,-9.2617,-9.2617,-9.2617,-9.2617,-9.2617,-9.2617,-9.2617,-9.2617,-9.2617,-9.2617,-9.2617,-9.2617,-9.2617,-9.2617,-9.2617,-9.2617,-9.2617,-9.2617,-9.2617,-9.2617,-9.2617,-9.2617,-9.2617,-9.2617,-9.2617,-9.2617,-9.2617,-9.2617,-9.2617,-9.2617,-9.2617,-9.2617,0.0,0.0,0.0,-6.6667,-6.7321,-6.8167,0.0,0.0,0.0,0.0,0.0,0.0,0.0,0.0,0.0,0.0,0.0,0.0,0.0,0.0,0.0,0.0,0.0,0.0,0.0,0.0,0.0,0.0,0.0,0.0,-7.7246,-7.8054,-7.89,-7.9785,-8.0669,-8.1631,-8.267,-8.3285,-8.4439,-8.6094,-8.6094,-8.6094,-8.6094,-8.6094,-8.6094,-8.6132,-8.6709,-8.7094,-8.7478,-8.8556,-8.9363,-8.9979,-9.0517,-9.0941,-9.121,-9.121,-9.121,-9.1241,-9.1417,-9.1502,-9.1578,-9.2048,-9.2217,-9.2237,-9.2535,-9.2617,-9.2617,-9.2617,-9.2617,-9.2617,-9.2617,-9.2617,-9.2617,-9.2617,-9.2617,-9.2617,-9.2617,-9.2617,-9.2617,-9.2617,-9.2617,-9.2617,-9.2617,-9.2617,-9.2617,-9.2617,-9.2617,-9.2617,-9.2617,-9.2617,-9.2617,-9.2617,-9.2617,-9.2617,-9.2617,-9.2617,-9.2617,-9.2617,-9.2617,-9.2617,-9.2617,-9.2617,-9.2617,-9.2617,-9.2617,-9.2617,-9.2617,-9.2617,-9.2617,-9.2617,-9.2617,-9.2617,-6.6282,-6.6898,0.0,0.0,0.0,0.0,0.0,0.0,0.0,0.0,0.0,0.0,0.0,0.0,0.0,0.0,0.0,0.0,0.0,0.0,0.0,0.0,0.0,0.0,0.0,0.0,0.0,0.0,0.0,0.0,-7.763,-7.8207,-7.9015,-8.0208,-8.0785,-8.19,-8.3555,-8.3593,-8.4439,-8.6094,-8.6094,-8.6094,-8.6094,-8.6094,-8.6094,-8.617,-8.7325,-8.7825,-8.794,-8.9325,-9.0094,-9.0402,-9.0979,-9.121,-9.121,-9.121,-9.121,-9.1258,-9.1528,-9.1638,-9.17,-9.2198,-9.2345,-9.2354,-9.2537,-9.2617,-9.2617,-9.2617,-9.2617,-9.2617,-9.2617,-9.2617,-9.2617,-9.2617,-9.2617,-9.2617,-9.2617,-9.2617,-9.2617,-9.2617,-9.2617,-9.2617,-9.2617,-9.2617,-9.2617,-9.2617,-9.2617,-9.2617,-9.2617,-9.2617,-9.2617,-9.2617,-9.2617,-9.2617,-9.2617,-9.2617,-9.2617,-9.2617,-9.2617,-9.2617,-9.2617,-9.2617,-9.2617,-9.2617,-9.2617,-9.2617,-9.2617,-9.2617,-9.2617,-9.2617,-9.2617,-9.2617,0.0,0.0,0.0,0.0,0.0,0.0,0.0,0.0,0.0,0.0,0.0,0.0,0.0,0.0,0.0,0.0,0.0,0.0,0.0,0.0,0.0,0.0,0.0,0.0,0.0,0.0,0.0,0.0,0.0,-7.6746,-7.84,-7.8554,-7.9361,-8.1054,-8.1093,-8.19,-8.3555,-8.3593,-8.4439,-8.6094,-8.6094,-8.6094,-8.6094,-8.6094,-8.6094,-8.6209,-8.794,-8.8709,-8.8748,-8.9594,-9.0441,-9.121,-9.121,-9.121,-9.121,-9.121,-9.121,-9.1286,-9.1739,-9.1884,-9.1997,-9.2445,-9.2617,-9.2617,-9.2617,-9.2617,-9.2617,-9.2617,-9.2617,-9.2617,-9.2617,-9.2617,-9.2617,-9.2617,-9.2617,-9.2617,-9.2617,-9.2617,-9.2617,-9.2617,-9.2617,-9.2617,-9.2617,-9.2617,-9.2617,-9.2617,-9.2617,-9.2617,-9.2617,-9.2617,-9.2617,-9.2617,-9.2617,-9.2617,-9.2617,-9.2617,-9.2617,-9.2617,-9.2617,-9.2617,-9.2617,-9.2617,-9.2617,-9.2617,-9.2617,-9.2617,-9.2617,-9.2617,-9.2617,-9.2617,-9.2617,-9.2617,-6.8052,0.0,0.0,0.0,0.0,0.0,0.0,0.0,0.0,0.0,0.0,0.0,0.0,0.0,0.0,0.0,0.0,0.0,0.0,0.0,0.0,0.0,0.0,0.0,0.0,0.0,0.0,0.0,0.0,-7.6746,-7.84,-7.9708,-8.0592,-8.1093,-8.1093,-8.19,-8.3555,-8.3593,-8.4439,-8.6094,-8.6094,-8.6094,-8.6094,-8.6094,-8.6094,-8.6209,-8.794,-8.8709,-8.8786,-9.0248,-9.0979,-9.121,-9.121,-9.121,-9.121,-9.121,-9.1297,-9.1459,-9.1801,-9.198,-9.2154,-9.2493,-9.2617,-9.2617,-9.2617,-9.2617,-9.2617,-9.2617,-9.2617,-9.2617,-9.2617,-9.2617,-9.2617,-9.2617,-9.2617,-9.2617,-9.2617,-9.2617,-9.2617,-9.2617,-9.2617,-9.2617,-9.2617,-9.2617,-9.2617,-9.2617,-9.2617,-9.2617,-9.2617,-9.2617,-9.2617,-9.2617,-9.2617,-9.2617,-9.2617,-9.2617,-9.2617,-9.2617,-9.2617,-9.2617,-9.2617,-9.2617,-9.2617,-9.2617,-9.2617,-9.2617,-9.2617,-9.2617,-9.2617,-9.2617,-9.2617,-9.2617,-6.8936,-6.9552,-7.0206,0.0,0.0,0.0,0.0,-7.0898,0.0,0.0,0.0,0.0,0.0,0.0,0.0,0.0,0.0,0.0,0.0,0.0,0.0,0.0,0.0,0.0,0.0,0.0,0.0,0.0,-7.6015,-7.6746,-7.84,-8.0131,-8.1093,-8.1093,-8.1093,-8.19,-8.3555,-8.3593,-8.4439,-8.6094,-8.6094,-8.6094,-8.6094,-8.6094,-8.6094,-8.6209,-8.794,-8.8709,-8.8825,-9.0517,-9.121,-9.121,-9.121,-9.1253,-9.1322,-9.1322,-9.1459,-9.1678,-9.1942,-9.2111,-9.2237,-9.2495,-9.2617,-9.2617,-9.2617,-9.2617,-9.2617,-9.2617,-9.2617,-9.2617,-9.2617,-9.2617,-9.2617,-9.2617,-9.2617,-9.2617,-9.2617,-9.2617,-9.2617,-9.2617,-9.2617,-9.2617,-9.2617,-9.2617,-9.2617,-9.2617,-9.2617,-9.2617,-9.2617,-9.2617,-9.2617,-9.2617,-9.2617,-9.2617,-9.2617,-9.2617,-9.2617,-9.2617,-9.2617,-9.2617,-9.2617,-9.2617,-9.2617,-9.2617,-9.2617,-9.2617,-9.2617,-9.2617,-9.2617,-9.2617,-9.2617,-9.2617,-6.9821,-7.036,-7.0898,-7.0898,0.0,0.0,-7.0898,-7.0898,-7.0898,0.0,0.0,0.0,0.0,0.0,0.0,0.0,0.0,0.0,0.0,0.0,0.0,0.0,0.0,0.0,0.0,0.0,0.0,-7.6015,-7.6169,-7.6938,-7.84,-8.0131,-8.1093,-8.1093,-8.1093,-8.19,-8.3555,-8.3593,-8.4439,-8.6094,-8.6094,-8.6094,-8.6094,-8.6094,-8.6094,-8.6209,-8.794,-8.8705,-8.887,-9.0548,-9.1241,-9.1241,-9.1241,-9.1361,-9.1528,-9.1528,-9.1689,-9.1942,-9.2139,-9.2225,-9.2291,-9.2535,-9.2617,-9.2617,-9.2617,-9.2617,-9.2617,-9.2617,-9.2617,-9.2617,-9.2617,-9.2617,-9.2617,-9.2617,-9.2617,-9.2617,-9.2617,-9.2617,-9.2617,-9.2617,-9.2617,-9.2617,-9.2617,-9.2617,-9.2617,-9.2617,-9.2617,-9.2617,-9.2617,-9.2617,-9.2617,-9.2617,-9.2617,-9.2617,-9.2617,-9.2617,-9.2617,-9.2617,-9.2617,-9.2617,-9.2617,-9.2617,-9.2617,-9.2617,-9.2617,-9.2617,-9.2617,-9.2617,-9.2617,-9.2617,-9.2617,-9.2617,-7.0667,-7.0783,-7.0898,0.0,0.0,0.0,-7.0898,-7.0898,-7.0898,0.0,0.0,0.0,0.0,0.0,0.0,0.0,0.0,0.0,0.0,0.0,0.0,0.0,0.0,0.0,0.0,0.0,-7.6015,-7.6015,-7.7246,-7.813,-7.8477,-8.0131,-8.1093,-8.1093,-8.1093,-8.19,-8.3555,-8.3593,-8.4439,-8.6094,-8.6094,-8.6094,-8.6094,-8.6094,-8.6094,-8.6209,-8.794,-8.8807,-8.906,-9.0749,-9.1445,-9.1445,-9.1445,-9.1578,-9.1802,-9.1802,-9.195,-9.2144,-9.2169,-9.2345,-9.2536,-9.2578,-9.2617,-9.2617,-9.2617,-9.2617,-9.2617,-9.2617,-9.2617,-9.2617,-9.2617,-9.2617,-9.2617,-9.2617,-9.2617,-9.2617,-9.2617,-9.2617,-9.2617,-9.2617,-9.2617,-9.2617,-9.2617,-9.2617,-9.2617,-9.2617,-9.2617,-9.2617,-9.2617,-9.2617,-9.2617,-9.2617,-9.2617,-9.2617,-9.2617,-9.2617,-9.2617,-9.2617,-9.2617,-9.2617,-9.2617,-9.2617,-9.2617,-9.2617,-9.2617,-9.2617,-9.2617,-9.2617,-9.2617,-9.2617,-9.2617,-9.2617,0.0,0.0,0.0,-7.0898,0.0,0.0,0.0,-7.0898,-7.0898,0.0,0.0,0.0,0.0,0.0,0.0,0.0,0.0,0.0,0.0,0.0,0.0,0.0,0.0,0.0,0.0,0.0,-7.6015,-7.6015,-7.7553,-7.8477,-7.8477,-8.0131,-8.1093,-8.1093,-8.1093,-8.19,-8.3555,-8.3593,-8.4439,-8.6094,-8.6094,-8.6094,-8.6094,-8.6094,-8.6168,-8.6366,-8.764,-8.8545,-8.9242,-9.0552,-9.1364,-9.1819,-9.1732,-9.1839,-9.2029,-9.2029,-9.2203,-9.24,-9.24,-9.2493,-9.2617,-9.2617,-9.2617,-9.2617,-9.2617,-9.2617,-9.2617,-9.2617,-9.2617,-9.2617,-9.2617,-9.2617,-9.2617,-9.2617,-9.2617,-9.2617,-9.2617,-9.2617,-9.2617,-9.2617,-9.2617,-9.2617,-9.2617,-9.2617,-9.2617,-9.2617,-9.2617,-9.2617,-9.2617,-9.2617,-9.2617,-9.2617,-9.2617,-9.2617,-9.2617,-9.2617,-9.2617,-9.2617,-9.2617,-9.2617,-9.2617,-9.2617,-9.2617,-9.2617,-9.2617,-9.2617,-9.2617,-9.2617,-9.2617,-9.2617,-9.2617,-9.2617,0.0,0.0,0.0,0.0,0.0,-7.0898,0.0,0.0,0.0,0.0,0.0,0.0,0.0,0.0,0.0,0.0,0.0,0.0,0.0,0.0,0.0,0.0,0.0,0.0,0.0,0.0,-7.6015,-7.6015,-7.7553,-7.8477,-7.8477,-8.0131,-8.1093,-8.1093,-8.1093,-8.19,-8.3555,-8.3593,-8.4439,-8.6094,-8.6094,-8.6094,-8.6094,-8.6137,-8.6312,-8.6558,-8.7394,-8.8409,-8.945,-9.0299,-9.1307,-9.2276,-9.2061,-9.2093,-9.2287,-9.2287,-9.2404,-9.2617,-9.2617,-9.2617,-9.2617,-9.2617,-9.2617,-9.2617,-9.2617,-9.2617,-9.2617,-9.2617,-9.2617,-9.2617,-9.2617,-9.2617,-9.2617,-9.2617,-9.2617,-9.2617,-9.2617,-9.2617,-9.2617,-9.2617,-9.2617,-9.2617,-9.2617,-9.2617,-9.2617,-9.2617,-9.2617,-9.2617,-9.2617,-9.2617,-9.2617,-9.2617,-9.2617,-9.2617,-9.2617,-9.2617,-9.2617,-9.2617,-9.2617,-9.2617,-9.2617,-9.2617,-9.2617,-9.2617,-9.2617,-9.2617,-9.2617,-9.2617,-9.2617,-9.2617,-9.2617,-9.2617,0.0,0.0,0.0,0.0,-7.0898,0.0,0.0,0.0,0.0,0.0,0.0,0.0,0.0,0.0,0.0,0.0,0.0,0.0,0.0,0.0,0.0,0.0,0.0,0.0,0.0,0.0,0.0,-7.6015,-7.7553,-7.8477,-7.8477,-8.0131,-8.1093,-8.1093,-8.1093,-8.19,-8.3555,-8.3593,-8.4439,-8.6094,-8.6094,-8.6094,-8.611,-8.6346,-8.6481,-8.657,-8.7613,-8.8654,-8.9701,-9.0598,-9.1595,-9.2536,-9.228,-9.234,-9.2537,-9.2537,-9.2577,-9.2617,-9.2617,-9.2617,-9.2617,-9.2617,-9.2617,-9.2617,-9.2617,-9.2617,-9.2617,-9.2617,-9.2617,-9.2617,-9.2617,-9.2617,-9.2617,-9.2617,-9.2617,-9.2617,-9.2617,-9.2617,-9.2617,-9.2617,-9.2617,-9.2617,-9.2617,-9.2617,-9.2617,-9.2617,-9.2617,-9.2617,-9.2617,-9.2617,-9.2617,-9.2617,-9.2617,-9.2617,-9.2617,-9.2617,-9.2617,-9.2617,-9.2617,-9.2617,-9.2617,-9.2617,-9.2617,-9.2617,-9.2617,-9.2617,-9.2617,-9.2617,-9.2617,-9.2617,-9.2617,-9.2617,0.0,0.0,0.0,0.0,0.0,0.0,-7.0898,0.0,-7.1629,0.0,0.0,0.0,0.0,0.0,0.0,0.0,0.0,0.0,0.0,0.0,0.0,0.0,0.0,0.0,0.0,0.0,0.0,0.0,0.0,-7.8015,-7.8477,-7.9669,-8.0592,-8.1093,-8.1093,-8.19,-8.3555,-8.3593,-8.4439,-8.6094,-8.6094,-8.6184,-8.6331,-8.6455,-8.6638,-8.6872,-8.7339,-8.8427,-8.9908,-9.0258,-9.1283,-9.2578,-9.2492,-9.2494,-9.2617,-9.2617,-9.2617,-9.2617,-9.2617,-9.2617,-9.2617,-9.2617,-9.2617,-9.2617,-9.2617,-9.2617,-9.2617,-9.2617,-9.2617,-9.2617,-9.2617,-9.2617,-9.2617,-9.2617,-9.2617,-9.2617,-9.2617,-9.2617,-9.2617,-9.2617,-9.2617,-9.2617,-9.2617,-9.2617,-9.2617,-9.2617,-9.2617,-9.2617,-9.2617,-9.2617,-9.2617,-9.2617,-9.2617,-9.2617,-9.2617,-9.2617,-9.2617,-9.2617,-9.2617,-9.2617,-9.2617,-9.2617,-9.2617,-9.2617,-9.2617,-9.2617,-9.2617,-9.2617,-9.2617,-9.2617,-9.2617,-9.2617,-7.0898,0.0,0.0,0.0,0.0,0.0,0.0,0.0,0.0,0.0,0.0,0.0,0.0,0.0,0.0,0.0,0.0,0.0,0.0,0.0,0.0,0.0,0.0,0.0,0.0,0.0,0.0,0.0,-7.6823,0.0,-7.8453,-7.9323,-8.0208,-8.1054,-8.1093,-8.1924,-8.3663,-8.3702,-8.4556,-8.6279,-8.6279,-8.6377,-8.6572,-8.6648,-8.6802,-8.7104,-8.7173,-8.8147,-8.9648,-8.9883,-9.0898,-9.2265,-9.25,-9.2617,-9.2617,-9.2617,-9.2617,-9.2617,-9.2617,-9.2617,-9.2617,-9.2617,-9.2617,-9.2617,-9.2617,-9.2617,-9.2617,-9.2617,-9.2617,-9.2617,-9.2617,-9.2617,-9.2617,-9.2617,-9.2617,-9.2617,-9.2617,-9.2617,-9.2617,-9.2617,-9.2617,-9.2617,-9.2617,-9.2617,-9.2617,-9.2617,-9.2617,-9.2617,-9.2617,-9.2617,-9.2617,-9.2617,-9.2617,-9.2617,-9.2617,-9.2617,-9.2617,-9.2617,-9.2617,-9.2617,-9.2617,-9.2617,-9.2617,-9.2617,-9.2617,-9.2617,-9.2617,-9.2617,-9.2617,-9.2617,-9.2617,-9.2617,0.0,0.0,0.0,-7.0898,0.0,0.0,0.0,0.0,-7.3476,0.0,0.0,0.0,0.0,0.0,0.0,-7.3654,0.0,0.0,0.0,0.0,0.0,0.0,0.0,0.0,0.0,0.0,0.0,0.0,-7.6823,0.0,-7.8453,-7.9323,-8.0208,-8.1054,-8.1093,-8.1981,-8.3885,-8.3885,-8.4848,-8.6791,-8.6791,-8.68,-8.6817,-8.6997,-8.7096,-8.7108,-8.7374,-8.7968,-8.8828,-8.9648,-9.0547,-9.1445,-9.2265,-9.2617,-9.2617,-9.2617,-9.2617,-9.2617,-9.2617,-9.2617,-9.2617,-9.2617,-9.2617,-9.2617,-9.2617,-9.2617,-9.2617,-9.2617,-9.2617,-9.2617,-9.2617,-9.2617,-9.2617,-9.2617,-9.2617,-9.2617,-9.2617,-9.2617,-9.2617,-9.2617,-9.2617,-9.2617,-9.2617,-9.2617,-9.2617,-9.2617,-9.2617,-9.2617,-9.2617,-9.2617,-9.2617,-9.2617,-9.2617,-9.2617,-9.2617,-9.2617,-9.2617,-9.2617,-9.2617,-9.2617,-9.2617,-9.2617,-9.2617,-9.2617,-9.2617,-9.2617,-9.2617,-9.2617,-9.2617,-9.2617,-9.2617,-9.2617,0.0,0.0,-7.1052,-7.1629,0.0,0.0,0.0,0.0,0.0,0.0,0.0,0.0,0.0,0.0,0.0,-7.5207,0.0,0.0,0.0,0.0,0.0,0.0,0.0,0.0,0.0,0.0,0.0,-7.6015,-7.6284,-7.7053,0.0,-7.8784,-7.9635,-8.1234,-8.1324,-8.222,-8.4087,-8.4096,-8.4988,-8.6817,-8.6817,-8.6887,-8.7003,-8.7087,-8.7219,-8.7374,-8.746,-8.7969,-8.8789,-8.9648,-9.0508,-9.1406,-9.2265,-9.2617,-9.2617,-9.2617,-9.2617,-9.2617,-9.2617,-9.2617,-9.2617,-9.2617,-9.2617,-9.2617,-9.2617,-9.2617,-9.2617,-9.2617,-9.2617,-9.2617,-9.2617,-9.2617,-9.2617,-9.2617,-9.2617,-9.2617,-9.2617,-9.2617,-9.2617,-9.2617,-9.2617,-9.2617,-9.2617,-9.2617,-9.2617,-9.2617,-9.2617,-9.2617,-9.2617,-9.2617,-9.2617,-9.2617,-9.2617,-9.2617,-9.2617,-9.2617,-9.2617,-9.2617,-9.2617,-9.2617,-9.2617,-9.2617,-9.2617,-9.2617,-9.2617,-9.2617,-9.2617,-9.2617,-9.2617,-9.2617,-9.2617,-9.2617,-7.0898,-7.1129,0.0,0.0,-7.2629,0.0,-7.3822,0.0,0.0,0.0,0.0,0.0,0.0,0.0,0.0,-7.6015,-7.6015,0.0,0.0,0.0,0.0,0.0,0.0,0.0,0.0,0.0,-7.6015,-7.6015,-7.6015,-7.6746,0.0,0.0,-7.9456,-8.1329,-8.148,-8.227,-8.3845,-8.4195,-8.5085,-8.6579,-8.6891,-8.7135,-8.723,-8.723,-8.733,-8.75,-8.75,-8.7773,-8.8359,-8.9179,-9.0039,-9.0937,-9.1797,-9.2344,-9.2617,-9.2617,-9.2617,-9.2617,-9.2617,-9.2617,-9.2617,-9.2617,-9.2617,-9.2617,-9.2617,-9.2617,-9.2617,-9.2617,-9.2617,-9.2617,-9.2617,-9.2617,-9.2617,-9.2617,-9.2617,-9.2617,-9.2617,-9.2617,-9.2617,-9.2617,-9.2617,-9.2617,-9.2617,-9.2617,-9.2617,-9.2617,-9.2617,-9.2617,-9.2617,-9.2617,-9.2617,-9.2617,-9.2617,-9.2617,-9.2617,-9.2617,-9.2617,-9.2617,-9.2617,-9.2617,-9.2617,-9.2617,-9.2734,-9.3047,-9.2773,-9.2734,-9.3047,-9.2734,-9.2617,-9.2617,-9.2617,-9.2617]},{"header":{"parameterUnit":"m.s-1","parameterCategory":1,"la1":30.6,"la2":29.2853,"lo1":-89.7004,"lo2":-87.6739,"dx":0.0162,"dy":0.0183,"nx":112,"ny":82,"refTime":"2023-02-10T18:00:00:Z","depth":0,"parameterNumber":3,"parameterNumberName":"V-component_of_WINDS"},"data":[0.0,0.0,0.0,0.0,0.0,0.0,0.0,0.0,0.0,0.0,0.0,0.0,0.0,0.0,0.0,0.0,0.0,0.0,0.0,0.0,0.0,0.0,0.0,0.0,0.0,0.0,0.0,0.0,0.0,0.0,0.0,0.0,0.0,0.0,0.0,0.0,0.0,0.0,0.0,0.0,0.0,0.0,0.0,0.0,0.0,0.0,0.0,0.0,0.0,0.0,0.0,0.0,0.0,0.0,0.0,0.0,0.0,0.0,0.0,0.0,0.0,0.0,0.0,0.0,0.0,0.0,0.0,0.0,0.0,0.0,0.0,0.0,0.0,0.0,0.0,0.0,0.0,0.0,0.0,0.0,0.0,0.0,0.0,0.0,0.0,0.0,0.0,0.0,0.0,0.0,-0.8328,-0.5775,-0.2172,0.0,0.0,0.0,0.0,0.0,0.0,0.0,0.0,0.0,0.0,0.0,0.0,0.0,0.0,0.0,0.0,0.0,0.0,0.0,0.0,0.0,0.0,0.0,0.0,0.0,0.0,0.0,0.0,0.0,0.0,0.0,0.0,0.0,0.0,0.0,0.0,0.0,0.0,0.0,0.0,0.0,0.0,0.0,0.0,0.0,0.0,0.0,0.0,0.0,0.0,0.0,0.0,0.0,0.0,0.0,0.0,0.0,0.0,0.0,0.0,0.0,0.0,0.0,0.0,0.0,0.0,0.0,0.0,0.0,0.0,0.0,0.0,0.0,0.0,0.0,0.0,0.0,0.0,0.0,0.0,0.0,0.0,0.0,0.0,0.0,0.0,0.0,0.0,0.0,0.0,0.0,0.0,0.0,0.0,0.0,0.0,0.0,0.0,0.0,0.0,0.0,0.0,0.0,0.0,0.0,0.0,0.0,0.0,0.0,-0.5591,-0.1425,-0.042,0.0,0.0,0.0,0.0,0.0,0.0,0.0,0.0,0.0,0.0,0.0,0.0,0.0,0.0,0.0,0.0,0.0,0.0,0.0,0.0,0.0,0.0,0.0,0.0,0.0,0.0,0.0,0.0,0.0,0.0,0.0,0.0,0.0,0.0,0.0,0.0,0.0,0.0,0.0,0.0,0.0,0.0,0.0,0.0,0.0,0.0,0.0,0.0,0.0,0.0,0.0,0.0,0.0,0.0,0.0,0.0,0.0,0.0,0.0,0.0,0.0,0.0,0.0,0.0,0.0,0.0,0.0,0.0,0.0,0.0,0.0,0.0,0.0,0.0,0.0,0.0,0.0,0.0,0.0,0.0,0.0,0.0,0.0,0.0,0.0,0.0,0.0,0.0,0.0,0.0,0.0,0.0,0.0,0.0,0.0,0.0,0.0,0.0,0.0,0.0,0.0,0.0,0.0,0.0,0.0,0.0,0.0,0.0,-0.868,-0.5449,-0.21,-0.0757,0.0,0.0,0.0,0.0,0.0,0.0,0.0,0.0,0.0,0.0,0.0,0.0,0.0,0.0,0.0,0.0,0.0,0.0,0.0,0.0,0.0,0.0,0.0,0.0,0.0,0.0,0.0,0.0,0.0,0.0,0.0,0.0,0.0,0.0,0.0,0.0,0.0,0.0,0.0,0.0,0.0,0.0,0.0,0.0,0.0,0.0,0.0,0.0,0.0,0.0,0.0,0.0,0.0,0.0,0.0,0.0,0.0,0.0,0.0,0.0,0.0,0.0,0.0,0.0,0.0,0.0,0.0,0.0,0.0,0.0,0.0,0.0,0.0,0.0,0.0,0.0,0.0,0.0,0.0,0.0,0.0,0.0,0.0,0.0,0.0,0.0,0.0,0.0,0.0,0.0,0.0,0.0,0.0,0.0,0.0,0.0,0.0,0.0,0.0,0.0,0.0,0.0,0.0,0.0,0.0,0.0,0.0,0.0,-0.7288,-0.503,-0.2771,-0.1009,0.0,0.0,0.0,0.0,0.0,0.0,0.0,0.0,0.0,0.0,0.0,0.0,0.0,0.0,0.0,0.0,0.0,0.0,0.0,0.0,0.0,0.0,0.0,0.0,0.0,0.0,0.0,0.0,0.0,0.0,0.0,0.0,0.0,0.0,0.0,0.0,0.0,0.0,0.0,0.0,0.0,0.0,0.0,0.0,0.0,0.0,0.0,0.0,0.0,0.0,0.0,0.0,0.0,0.0,0.0,0.0,0.0,0.0,0.0,0.0,0.0,0.0,0.0,0.0,0.0,0.0,0.0,0.0,0.0,0.0,0.0,0.0,0.0,0.0,0.0,0.0,0.0,0.0,0.0,0.0,0.0,0.0,0.0,0.0,0.0,0.0,0.0,0.0,0.0,0.0,0.0,0.0,0.0,0.0,0.0,0.0,0.0,0.0,0.0,0.0,0.0,0.0,0.0,0.0,0.0,0.0,0.0,0.0,-0.4947,-0.2687,-0.0505,-0.0084,0.0,0.0,0.0,0.0,0.0,0.0,0.0,0.0,0.0,0.0,0.0,0.0,0.0,0.0,0.0,0.0,0.0,0.0,0.0,0.0,0.0,0.0,0.0,0.0,0.0,0.0,0.0,0.0,0.0,0.0,0.0,0.0,0.0,0.0,0.0,0.0,0.0,0.0,0.0,0.0,0.0,0.0,0.0,0.0,0.0,0.0,0.0,0.0,0.0,0.0,0.0,0.0,0.0,0.0,0.0,0.0,0.0,0.0,0.0,0.0,0.0,0.0,0.0,0.0,0.0,0.0,0.0,0.0,0.0,0.0,0.0,0.0,0.0,0.0,0.0,0.0,0.0,0.0,0.0,0.0,0.0,0.0,0.0,0.0,0.0,0.0,0.0,0.0,0.0,0.0,0.0,0.0,0.0,0.0,0.0,0.0,0.0,0.0,0.0,0.0,0.0,0.0,0.0,0.0,0.0,0.0,0.0,0.0,-0.4695,-0.2436,0.0,0.0,0.0,0.0,0.0,0.0,0.0,0.0,0.0,0.0,0.0,0.0,0.0,0.0,0.0,0.0,0.0,0.0,0.0,0.0,0.0,0.0,0.0,0.0,0.0,0.0,0.0,0.0,0.0,0.0,0.0,0.0,0.0,0.0,0.0,0.0,0.0,0.0,0.0,0.0,0.0,0.0,0.0,0.0,0.0,0.0,0.0,0.0,0.0,0.0,0.0,0.0,0.0,0.0,0.0,0.0,0.0,0.0,0.0,0.0,0.0,0.0,0.0,0.0,0.0,0.0,0.0,0.0,0.0,0.0,0.0,0.0,0.0,0.0,0.0,0.0,0.0,0.0,0.0,0.0,0.0,0.0,0.0,0.0,0.0,0.0,0.0,0.0,0.0,0.0,0.0,0.0,0.0,0.0,0.0,0.0,0.0,0.0,0.0,0.0,0.0,0.0,0.0,0.0,0.0,0.0,0.0,0.0,0.0,-0.6867,-0.4111,-0.1681,0.0,0.0,0.0,0.0,0.0,0.0,0.0,0.0,0.0,0.0,0.0,0.0,0.0,0.0,0.0,0.0,0.0,0.0,0.0,0.0,0.0,0.0,0.0,0.0,0.0,0.0,0.0,0.0,0.0,0.0,0.0,0.0,0.0,0.0,0.0,0.0,0.0,0.0,0.0,0.0,0.0,0.0,0.0,0.0,0.0,0.0,0.0,0.0,0.0,0.0,0.0,0.0,0.0,0.0,0.0,0.0,0.0,0.0,0.0,0.0,0.0,0.0,0.0,0.0,0.0,0.0,0.0,0.0,0.0,0.0,0.0,0.0,0.0,0.0,0.0,0.0,0.0,0.0,0.0,0.0,0.0,0.0,0.0,0.0,0.0,0.0,0.0,0.0,0.0,0.0,0.0,0.0,0.0,0.0,0.0,0.0,0.0,0.0,0.0,0.0,0.0,0.0,0.0,0.0,0.0,0.0,0.0,0.0,0.0,-0.67,-0.2771,0.0,0.0,0.0,0.0,0.0,0.0,0.0,0.0,0.0,0.0,0.0,0.0,0.0,0.0,0.0,0.0,0.0,0.0,0.0,0.0,0.0,0.0,0.0,0.0,0.0,0.0,0.0,0.0,0.0,0.0,0.0,0.0,0.0,0.0,0.0,0.0,0.0,0.0,0.0,0.0,0.0,0.0,0.0,0.0,0.0,0.0,0.0,0.0,0.0,0.0,0.0,0.0,0.0,0.0,0.0,0.0,0.0,0.0,0.0,0.0,0.0,0.0,0.0,0.0,0.0,0.0,0.0,0.0,0.0,0.0,0.0,0.0,0.0,0.0,0.0,0.0,0.0,0.0,0.0,0.0,0.0,0.0,0.0,0.0,0.0,0.0,0.0,0.0,0.0,0.0,0.0,0.0,0.0,0.0,0.0,0.0,0.0,0.0,0.0,0.0,0.0,0.0,0.0,0.0,0.0,0.0,0.0,0.0,0.0,0.0,-0.67,-0.2771,0.0,0.0,0.0,0.0,0.0,0.0,0.0,0.0,0.0,0.0,0.0,0.0,0.0,0.0,0.0,0.0,0.0,0.0,0.0,0.0,0.0,0.0,0.0,0.0,0.0,0.0,0.0,0.0,0.0,0.0,0.0,0.0,0.0,0.0,0.0,0.0,0.0,0.0,0.0,0.0,0.0,0.0,0.0,0.0,0.0,0.0,0.0,0.0,0.0,0.0,0.0,0.0,0.0,0.0,0.0,0.0,0.0,0.0,0.0,0.0,0.0,0.0,0.0,0.0,0.0,0.0,0.0,0.0,0.0,0.0,0.0,0.0,0.0,0.0,0.0,0.0,0.0,0.0,0.0,0.0,0.0,0.0,0.0,0.0,0.0,0.0,0.0,0.0,0.0,0.0,0.0,0.0,0.0,0.0,0.0,0.0,0.0,0.0,0.0,0.0,0.0,0.0,0.0,0.0,0.0,0.0,0.0,0.0,0.0,0.0,-0.67,-0.2771,0.0,0.0,0.0,0.0,0.0,0.0,0.0,0.0,0.0,0.0,0.0,0.0,0.0,0.0,0.0,0.0,0.0,0.0,0.0,0.0,0.0,0.0,0.0,0.0,0.0,0.0,0.0,0.0,0.0,0.0,0.0,0.0,0.0,0.0,0.0,0.0,0.0,0.0,0.0,0.0,0.0,0.0,0.0,0.0,0.0,0.0,0.0,0.0,0.0,0.0,0.0,0.0,0.0,0.0,0.0,0.0,0.0,0.0,0.0,0.0,0.0,0.0,0.0,0.0,0.0,0.0,0.0,0.0,0.0,0.0,0.0,0.0,0.0,0.0,0.0,0.0,0.0,0.0,0.0,0.0,0.0,0.0,0.0,0.0,0.0,0.0,0.0,0.0,0.0,0.0,0.0,0.0,0.0,0.0,0.0,0.0,0.0,0.0,0.0,0.0,0.0,0.0,0.0,0.0,0.0,0.0,0.0,0.0,0.0,0.0,-0.67,-0.2771,0.0,0.0,0.0,0.0,0.0,0.0,0.0,0.0,0.0,0.0,0.0,0.0,0.0,0.0,0.0,0.0,0.0,0.0,0.0,0.0,0.0,0.0,0.0,0.0,0.0,0.0,0.0,0.0,0.0,0.0,0.0,0.0,0.0,0.0,0.0,0.0,0.0,0.0,0.0,0.0,0.0,0.0,0.0,0.0,0.0,0.0,0.0,0.0,0.0,0.0,0.0,0.0,0.0,0.0,0.0,0.0,0.0,0.0,0.0,0.0,0.0,0.0,0.0,0.0,0.0,0.0,0.0,0.0,-2.322,0.0,0.0,0.0,0.0,0.0,0.0,0.0,0.0,0.0,0.0,0.0,0.0,0.0,0.0,0.0,0.0,0.0,0.0,0.0,0.0,0.0,0.0,0.0,0.0,0.0,0.0,0.0,0.0,0.0,0.0,0.0,0.0,0.0,0.0,0.0,0.0,0.0,0.0,0.0,0.0,0.0,-0.67,-0.2771,0.0,0.0,0.0,0.0,0.0,0.0,0.0,0.0,0.0,0.0,0.0,0.0,0.0,0.0,0.0,0.0,0.0,0.0,0.0,0.0,0.0,0.0,0.0,0.0,0.0,0.0,0.0,0.0,0.0,0.0,0.0,0.0,0.0,0.0,0.0,0.0,0.0,0.0,0.0,0.0,0.0,0.0,0.0,0.0,0.0,0.0,0.0,0.0,0.0,0.0,0.0,0.0,0.0,0.0,0.0,0.0,0.0,0.0,0.0,0.0,0.0,0.0,0.0,0.0,0.0,0.0,0.0,0.0,0.0,-2.3487,0.0,0.0,0.0,0.0,0.0,0.0,0.0,0.0,0.0,0.0,0.0,0.0,0.0,0.0,0.0,0.0,0.0,0.0,0.0,0.0,0.0,0.0,0.0,0.0,0.0,0.0,0.0,0.0,0.0,0.0,0.0,0.0,0.0,0.0,0.0,0.0,0.0,0.0,0.0,0.0,-0.67,-0.2771,0.0,0.0,0.0,0.0,0.0,0.0,0.0,0.0,0.0,0.0,0.0,0.0,0.0,0.0,0.0,0.0,0.0,0.0,0.0,0.0,0.0,0.0,0.0,0.0,0.0,0.0,0.0,0.0,0.0,0.0,0.0,0.0,0.0,0.0,0.0,0.0,0.0,0.0,0.0,0.0,0.0,0.0,0.0,0.0,0.0,0.0,0.0,0.0,0.0,0.0,0.0,0.0,0.0,0.0,0.0,0.0,0.0,0.0,0.0,0.0,0.0,0.0,0.0,-2.2886,-2.2953,-2.3207,-2.338,-2.3487,-2.3487,-2.3754,-2.4209,0.0,0.0,0.0,0.0,0.0,0.0,0.0,0.0,0.0,0.0,0.0,0.0,0.0,0.0,0.0,0.0,0.0,0.0,0.0,0.0,0.0,0.0,0.0,0.0,0.0,-1.3403,-1.3403,0.0,0.0,0.0,0.0,0.0,0.0,0.0,0.0,0.0,0.0,0.0,0.0,-0.6202,-0.252,0.0,0.0,0.0,0.0,0.0,0.0,0.0,0.0,0.0,0.0,0.0,0.0,0.0,0.0,0.0,0.0,0.0,0.0,0.0,0.0,0.0,0.0,0.0,0.0,0.0,0.0,0.0,0.0,0.0,0.0,0.0,0.0,0.0,0.0,0.0,0.0,0.0,0.0,0.0,0.0,0.0,0.0,-1.943,-1.943,0.0,0.0,0.0,0.0,0.0,0.0,0.0,0.0,0.0,0.0,0.0,0.0,0.0,0.0,-2.1924,-2.2258,-2.2552,-2.2806,-2.2914,-2.3006,-2.326,-2.3313,-2.3607,-2.4088,-2.4088,0.0,-2.4222,-2.4476,0.0,0.0,0.0,0.0,0.0,0.0,0.0,0.0,0.0,0.0,0.0,0.0,0.0,0.0,0.0,0.0,0.0,0.0,0.0,0.0,0.0,0.0,-1.3403,-1.3403,-1.3403,-1.3403,0.0,-1.3403,-1.3403,-1.3403,0.0,0.0,0.0,0.0,0.0,0.0,0.0,0.0,-0.4111,-0.1597,0.0,0.0,0.0,0.0,0.0,0.0,0.0,0.0,0.0,0.0,0.0,0.0,0.0,0.0,0.0,0.0,0.0,0.0,0.0,0.0,0.0,0.0,0.0,0.0,0.0,0.0,0.0,0.0,0.0,0.0,0.0,0.0,0.0,0.0,0.0,0.0,0.0,0.0,0.0,0.0,0.0,-1.943,-1.943,-1.943,-1.9506,-1.9653,0.0,0.0,0.0,0.0,0.0,0.0,0.0,0.0,0.0,-2.1349,-2.1643,-2.1937,-2.2231,-2.2525,-2.2726,-2.2928,-2.2928,-2.3033,-2.334,-2.35,-2.3808,-2.4209,-2.4382,-2.4449,-2.4449,-2.4583,-2.4636,-2.4663,0.0,0.0,0.0,0.0,0.0,-2.0459,-1.7459,0.0,0.0,0.0,0.0,0.0,0.0,0.0,0.0,0.0,0.0,0.0,0.0,0.0,0.0,-1.3403,-1.3403,-1.3403,-1.3403,-1.3403,-1.3403,0.0,-1.3403,-1.3403,-1.3403,0.0,0.0,0.0,0.0,-0.4444,-0.3441,-0.1346,0.0,0.0,0.0,0.0,0.0,0.0,0.0,0.0,0.0,0.0,0.0,0.0,0.0,0.0,0.0,0.0,0.0,0.0,0.0,0.0,0.0,0.0,0.0,0.0,0.0,0.0,0.0,0.0,0.0,0.0,0.0,0.0,0.0,0.0,0.0,0.0,0.0,0.0,0.0,0.0,0.0,-1.943,-1.943,-1.943,-1.9626,-1.9826,0.0,0.0,0.0,0.0,0.0,0.0,-2.1109,-2.1189,-2.1323,-2.1614,-2.1911,-2.2205,-2.2418,-2.2712,-2.2928,-2.2928,-2.2939,-2.314,-2.3447,-2.3741,-2.4035,-2.4329,-2.4543,-2.4636,-2.4636,-2.4636,-2.4676,-2.4783,-2.5077,-2.4921,-2.4265,-2.2615,-2.0612,-1.8461,-1.6433,-1.4698,-1.3403,-1.3403,0.0,-1.3403,-1.3403,0.0,0.0,0.0,0.0,-1.3403,-1.3403,0.0,-1.3403,-1.3403,-1.3403,-1.3403,-1.3403,-1.3403,-1.3403,0.0,-1.3403,-1.3231,-1.2644,0.0,0.0,0.0,0.0,-0.3191,-0.252,-0.1009,0.0,0.0,0.0,0.0,0.0,0.0,0.0,0.0,0.0,0.0,0.0,0.0,0.0,0.0,0.0,0.0,0.0,0.0,0.0,0.0,0.0,0.0,0.0,0.0,0.0,0.0,0.0,0.0,0.0,0.0,0.0,0.0,0.0,0.0,0.0,0.0,0.0,0.0,0.0,0.0,0.0,0.0,0.0,-1.943,-1.9626,0.0,0.0,0.0,0.0,-2.1069,-2.1096,-2.1109,-2.1109,-2.1376,-2.1601,-2.1614,-2.2098,-2.2405,-2.2418,-2.2712,-2.2928,-2.2928,-2.3166,-2.346,-2.3754,-2.4048,-2.4342,-2.4609,-2.4549,-2.4636,-2.4636,-2.4636,-2.4796,-2.509,-2.5384,-2.4392,-2.2595,-2.0691,-1.867,-1.6475,-1.4293,-1.348,-1.3403,-1.3403,-1.3403,-1.3403,-1.3403,-1.3403,0.0,0.0,-1.3403,-1.3403,-1.3403,-1.3403,-1.3403,-1.3403,-1.3403,-1.3403,-1.3403,-1.3403,-1.3403,0.0,-1.3403,-1.2727,-1.0632,0.0,-0.8624,-0.4277,-0.3441,-0.252,-0.0421,-0.0084,0.0,0.0,0.0,0.0,0.0,0.0,0.0,0.0,0.0,0.0,0.0,0.0,0.0,0.0,0.0,0.0,0.0,0.0,0.0,0.0,0.0,0.0,0.0,0.0,0.0,0.0,0.0,0.0,0.0,0.0,0.0,0.0,0.0,0.0,0.0,0.0,0.0,0.0,0.0,0.0,0.0,0.0,0.0,-1.9626,-1.9907,0.0,-2.0494,-2.0788,-2.1002,-2.1096,-2.1109,-2.1109,-2.1109,-2.139,-2.1708,-2.183,-2.2218,-2.2512,-2.2699,-2.2806,-2.2966,-2.3166,-2.3273,-2.3581,-2.4048,-2.4155,-2.4369,-2.4636,-2.4636,-2.4743,-2.4917,-2.4917,-2.4983,-2.513,-2.5611,-2.4505,-2.2472,-2.0551,-1.8526,-1.6328,-1.4135,-1.3403,-1.3403,-1.3403,-1.3403,-1.3403,-1.3403,-1.3403,-1.3403,-1.3403,-1.3403,-1.3403,-1.3403,-1.3403,-1.3403,-1.3403,-1.3403,-1.3403,-1.3403,-1.3403,-1.3403,-1.3403,-1.3403,-1.3148,-1.2388,-0.9795,-0.7368,-0.57,-0.3023,-0.0925,-0.0084,0.0,0.0,0.0,0.0,0.0,0.0,0.0,0.0,0.0,0.0,0.0,0.0,0.0,0.0,0.0,0.0,0.0,0.0,0.0,0.0,0.0,0.0,0.0,0.0,0.0,0.0,0.0,0.0,0.0,0.0,0.0,0.0,0.0,0.0,0.0,0.0,0.0,0.0,0.0,0.0,0.0,0.0,0.0,-1.9586,-1.9773,-2.0147,-2.0454,-2.0655,-2.0935,-2.1109,-2.1109,-2.1109,-2.1149,-2.1256,-2.1537,-2.183,-2.2124,-2.2418,-2.2659,-2.2928,-2.2928,-2.302,-2.3327,-2.3434,-2.3728,-2.4209,-2.4302,-2.4449,-2.4649,-2.4743,-2.4903,-2.509,-2.5291,-2.5371,-2.5411,-2.5798,-2.4252,-2.1623,-2.0341,-1.8037,-1.535,-1.3887,-1.3403,-1.3403,-1.3403,-1.3403,-1.3403,-1.3403,-1.3403,-1.3403,-1.3403,-1.3403,-1.3403,-1.3403,-1.3403,-1.3403,-1.3403,-1.3403,-1.3403,-1.3403,-1.3403,-1.3403,-1.3403,-1.3403,-1.3148,-1.2395,-0.9124,-0.6449,-0.57,-0.2352,0.0,0.0,0.0,0.0,0.0,0.0,0.0,0.0,0.0,0.0,0.0,0.0,0.0,0.0,0.0,0.0,0.0,0.0,0.0,0.0,0.0,0.0,0.0,0.0,0.0,0.0,0.0,0.0,0.0,0.0,0.0,0.0,0.0,0.0,0.0,0.0,0.0,0.0,0.0,0.0,0.0,0.0,0.0,-1.943,-1.9626,-1.9813,-1.9826,-2.0334,-2.0681,-2.0695,-2.0949,-2.1109,-2.1109,-2.1109,-2.1243,-2.1601,-2.183,-2.2124,-2.2405,-2.2712,-2.2928,-2.2928,-2.2941,-2.3033,-2.334,-2.3647,-2.3941,-2.4222,-2.4502,-2.4636,-2.4663,-2.4957,-2.509,-2.5157,-2.5718,-2.6037,-2.605,-2.5972,-2.3483,-1.9907,-1.9826,-1.7065,-1.3403,-1.3403,-1.3403,-1.3403,-1.3403,-1.3403,-1.3403,-1.3403,-1.3403,-1.3403,-1.3403,-1.3403,-1.3403,-1.3403,-1.3403,-1.3403,-1.3403,-1.3403,-1.3403,-1.3403,-1.3403,-1.3403,-1.3403,-1.3403,-1.2727,-1.0466,-0.8207,-0.5951,-0.3776,-0.1429,0.0,0.0,0.0,0.0,0.0,0.0,0.0,0.0,0.0,0.0,0.0,0.0,0.0,0.0,0.0,0.0,0.0,0.0,0.0,0.0,0.0,0.0,0.0,0.0,0.0,0.0,0.0,0.0,0.0,0.0,0.0,0.0,0.0,0.0,0.0,0.0,0.0,0.0,0.0,0.0,0.0,0.0,-1.9497,-1.9653,-1.9746,-1.996,-2.0388,-2.0575,-2.0762,-2.0962,-2.1069,-2.1109,-2.1109,-2.1109,-2.1243,-2.1601,-2.183,-2.2124,-2.2405,-2.2712,-2.2928,-2.2928,-2.3086,-2.3354,-2.3647,-2.3941,-2.4235,-2.4516,-2.4596,-2.4756,-2.4957,-2.5037,-2.5317,-2.5809,-2.597,-2.6079,-2.6109,-2.4489,-2.227,-1.9745,-1.8118,-1.5761,-1.3403,-1.3403,-1.3403,-1.3403,-1.3403,-1.3403,-1.3403,-1.3403,-1.3403,-1.3403,-1.3403,-1.3403,-1.3403,-1.3403,-1.3403,-1.3403,-1.3403,-1.3403,-1.3403,-1.3403,-1.3403,-1.3403,-1.3403,-1.3403,-1.3231,-1.2561,-0.929,-0.6449,-0.5864,0.0,0.0,0.0,0.0,0.0,0.0,0.0,0.0,0.0,0.0,0.0,0.0,0.0,0.0,0.0,0.0,0.0,0.0,0.0,0.0,0.0,0.0,0.0,0.0,0.0,0.0,0.0,0.0,0.0,0.0,0.0,0.0,0.0,0.0,0.0,0.0,0.0,0.0,0.0,0.0,0.0,0.0,-1.9466,-1.9653,-1.9947,-1.9987,-2.0147,-2.0615,-2.0788,-2.0922,-2.1096,-2.1109,-2.1162,-2.1283,-2.1296,-2.147,-2.1897,-2.2071,-2.2298,-2.2592,-2.2899,-2.306,-2.306,-2.3354,-2.3661,-2.3955,-2.4128,-2.4356,-2.4636,-2.4636,-2.4796,0.0,-2.5211,-2.5531,-2.605,-2.6092,-2.5675,0.0,0.0,0.0,0.0,0.0,-1.4458,-1.3403,-1.3403,-1.3403,-1.3403,-1.3403,-1.3403,-1.3403,-1.3403,-1.3403,-1.3403,-1.3403,-1.3403,-1.3403,-1.3403,-1.3403,-1.3403,-1.3403,-1.3403,-1.3403,-1.3403,-1.3403,-1.3403,-1.3403,0.0,0.0,-1.3403,-0.9711,-0.67,-0.67,-0.2855,0.0,0.0,0.0,0.0,0.0,0.0,0.0,0.0,0.0,0.0,0.0,0.0,0.0,0.0,0.0,0.0,0.0,0.0,0.0,0.0,0.0,0.0,0.0,0.0,0.0,0.0,0.0,0.0,0.0,0.0,0.0,0.0,0.0,0.0,0.0,0.0,0.0,0.0,0.0,0.0,0.0,-1.9613,-1.9907,-2.0127,-2.0207,-2.0388,-2.0695,-2.0949,-2.1109,-2.1109,-2.1136,-2.1269,-2.1601,-2.1641,-2.1844,-2.2392,0.0,0.0,0.0,0.0,-2.334,-2.338,-2.3674,-2.3941,-2.4209,-2.4235,-2.4382,-2.4636,-2.4676,-2.485,-2.5144,-2.5438,-2.5732,-2.6026,-2.6279,-2.4933,-2.274,-2.2487,-2.1039,-1.8689,-1.4871,-1.3403,0.0,0.0,0.0,0.0,-1.3403,-1.3403,-1.3403,-1.3403,-1.3403,-1.3403,-1.3403,-1.3403,-1.3403,-1.3403,-1.3403,-1.3403,-1.3403,-1.3417,-1.3424,-1.3424,-1.3437,-1.3451,-1.3451,-1.3451,-1.3451,-1.3451,-0.9726,-0.67,-0.67,-0.2855,0.0,0.0,0.0,0.0,0.0,0.0,0.0,0.0,0.0,0.0,0.0,0.0,0.0,0.0,0.0,0.0,0.0,0.0,0.0,0.0,0.0,0.0,0.0,0.0,0.0,0.0,0.0,0.0,0.0,0.0,0.0,0.0,0.0,0.0,0.0,0.0,0.0,0.0,0.0,0.0,-1.943,-1.9613,-1.9907,-2.0127,-2.0441,-2.0695,-2.0989,-2.1082,-2.1109,-2.1109,-2.1323,-2.1561,-2.1614,-2.1764,-2.2058,-2.2405,-2.2418,0.0,-2.322,-2.33,-2.3447,-2.3688,-2.3981,-2.4155,-2.4209,0.0,0.0,-2.4649,-2.489,-2.5157,-2.5451,-2.5745,-2.6039,-2.6306,-2.6373,-2.4111,-2.0312,-1.8516,-1.6574,-1.4541,-1.3728,-1.3403,-1.3403,-1.3403,-1.3403,-1.3403,-1.3403,-1.3403,-1.3403,-1.3403,-1.3403,0.0,-1.3403,-1.3403,-1.3403,-1.3403,-1.3403,-1.3403,-1.3403,-1.3498,-1.3587,-1.3587,-1.3675,-1.3756,-1.3756,-1.3756,-1.3756,-1.3756,-0.9825,-0.67,-0.67,-0.2855,0.0,0.0,0.0,0.0,0.0,0.0,0.0,0.0,0.0,0.0,0.0,0.0,0.0,0.0,0.0,0.0,0.0,0.0,0.0,0.0,0.0,0.0,0.0,0.0,0.0,0.0,0.0,0.0,0.0,0.0,0.0,0.0,0.0,0.0,0.0,0.0,-1.943,0.0,0.0,-1.9412,-1.9559,-1.9826,-2.012,-2.0414,-2.0708,-2.0949,-2.1096,-2.1109,-2.1162,-2.1309,-2.1534,-2.1735,-2.1964,-2.2124,-2.2392,-2.2846,-2.2873,-2.3086,-2.3541,-2.3688,-2.3834,-2.3981,-2.4275,-2.4489,-2.4649,-2.4796,-2.493,-2.5077,-2.5224,-2.5451,-2.5745,-2.5892,-2.6119,-2.6228,-2.4031,-2.119,-1.8037,-1.5843,-1.4375,-1.3403,-1.3403,-1.3403,-1.3403,-1.3403,-1.3403,-1.3403,-1.3403,-1.3403,-1.3403,-1.3403,-1.3403,-1.3403,-1.3403,-1.3403,-1.3403,-1.3403,-1.3458,-1.3512,-1.3512,-1.3627,-1.3736,-1.3736,-1.379,-1.3838,-1.3838,-1.3838,-1.3838,-1.3838,-0.9938,-0.6812,-0.6812,-0.2901,0.0,0.0,0.0,0.0,0.0,0.0,0.0,0.0,0.0,0.0,0.0,0.0,0.0,0.0,0.0,0.0,0.0,0.0,0.0,0.0,0.0,0.0,0.0,0.0,0.0,0.0,0.0,0.0,0.0,0.0,0.0,0.0,0.0,-1.943,-1.943,-1.943,-1.943,-1.943,-1.9412,-1.9533,-1.976,-2.0094,-2.0401,-2.0641,-2.0922,-2.1136,-2.1189,-2.1189,-2.1296,-2.1601,-2.1722,-2.1911,-2.2378,-2.2525,-2.2806,-2.33,-2.338,-2.3554,-2.3848,-2.4075,-2.4235,-2.4289,-2.4583,-2.4836,-2.5077,-2.5144,-2.5291,-2.5518,-2.5571,-2.5732,-2.5959,-2.5609,-2.5531,-2.5409,-2.1039,-1.82,-1.6401,-1.421,-1.3403,-1.3403,-1.3403,-1.3403,-1.3403,-1.3403,-1.3403,-1.3403,-1.3403,-1.3403,-1.3403,-1.3403,-1.3403,-1.3403,-1.3403,-1.3424,-1.3444,-1.3444,-1.3559,-1.3668,-1.3668,-1.3783,-1.3885,-1.3885,-1.3912,-1.3933,-1.3933,-1.3933,-1.3753,-1.3316,-0.9745,-0.6955,-0.6925,-0.2948,0.0,0.0,0.0,0.0,0.0,0.0,0.0,0.0,0.0,0.0,0.0,0.0,0.0,0.0,0.0,0.0,0.0,0.0,0.0,0.0,0.0,0.0,0.0,0.0,0.0,-1.943,-1.943,-1.943,-1.943,-1.943,-1.943,0.0,0.0,-1.943,-1.943,-1.943,-1.943,-1.943,-1.9573,-1.976,-1.98,-2.0267,-2.0641,-2.0668,-2.0922,-2.1203,-2.1534,-2.1574,-2.1574,-2.1614,-2.2017,-2.2352,-2.2418,-2.2926,-2.326,-2.3327,-2.3581,-2.3848,-2.4142,-2.4182,-2.4329,-2.4583,-2.4877,-2.505,-2.5077,-2.5344,-2.5478,-2.5518,-2.5785,-2.5919,-2.5894,-2.4202,-2.3436,-2.314,-1.876,-1.6811,-1.6401,-1.421,-1.3403,-1.3403,-1.3403,-1.3403,-1.3403,-1.3403,-1.3403,-1.3403,-1.3403,-1.3403,-1.3403,-1.3403,-1.3403,-1.3403,-1.3403,-1.3498,-1.36,-1.36,-1.3709,-1.3817,-1.3817,-1.3933,-1.4048,-1.4048,-1.415,-1.4251,-1.4251,-1.4251,-1.3533,-1.1389,-0.8812,-0.7075,-0.6942,-0.2948,0.0,0.0,0.0,0.0,0.0,0.0,0.0,0.0,0.0,0.0,0.0,0.0,0.0,0.0,0.0,0.0,0.0,0.0,0.0,0.0,0.0,0.0,0.0,0.0,0.0,-1.943,-1.943,-1.943,0.0,-1.943,-1.943,-1.943,-1.943,-1.943,-1.943,-1.943,-1.943,-1.943,-1.9599,-1.9853,0.0,-2.0401,-2.0735,-2.0909,-2.1176,-2.1416,-2.1601,-2.1857,-2.2058,-2.2058,-2.2271,-2.2485,-2.2659,-2.3086,-2.3407,-2.3581,-2.3861,-2.4155,-2.4449,-2.4623,-2.477,-2.489,-2.5184,-2.5411,-2.5598,-2.5718,-2.5852,-2.6026,-2.6159,-2.5557,-2.4269,-2.3413,-2.1673,-1.9167,-1.7375,-1.5835,-1.4623,-1.3728,-1.3403,-1.3403,-1.3403,-1.3403,-1.3403,-1.3403,-1.3403,-1.3403,-1.3403,-1.3403,-1.3403,-1.3403,-1.3403,-1.3417,-1.3505,-1.358,-1.3648,-1.3729,-1.3865,-1.3973,-1.3973,-1.4095,-1.4204,-1.4204,-1.4251,-1.4299,-1.4299,-1.4299,-1.3945,-1.2952,-0.9646,-0.7037,-0.7061,-0.3004,0.0,0.0,0.0,0.0,0.0,0.0,0.0,0.0,0.0,0.0,0.0,0.0,0.0,0.0,0.0,0.0,0.0,0.0,0.0,0.0,0.0,0.0,0.0,0.0,0.0,-1.943,0.0,0.0,-1.943,-1.943,-1.943,-1.943,-1.943,-1.943,-1.943,-1.943,-1.9399,-1.9466,-1.972,-2.0013,-2.0307,-2.0601,-2.0869,-2.1082,-2.1363,-2.1641,-2.1722,-2.2111,-2.2458,-2.2539,-2.2539,-2.2659,-2.2966,-2.3273,-2.3581,-2.3875,-2.4168,-2.4462,-2.4756,-2.497,-2.5117,-2.5197,-2.5491,-2.5745,-2.6037,-2.6039,-2.6186,-2.6386,-2.574,-2.4602,-2.306,-2.1834,-1.9491,-1.6565,-1.5999,-1.4781,-1.3403,-1.3403,-1.3403,-1.3403,-1.3403,-1.3403,-1.3403,-1.3403,-1.3403,-1.3403,-1.3403,-1.3403,-1.3403,-1.3403,-1.3431,-1.3485,-1.36,-1.3688,-1.3777,-1.3878,-1.4021,-1.4136,-1.4136,-1.4217,-1.4299,-1.4299,-1.4299,-1.4299,-1.4299,-1.3761,-1.3135,-1.2414,-0.8842,-0.5901,-0.5276,-0.224,0.0,0.0,0.0,0.0,0.0,0.0,0.0,0.0,0.0,0.0,0.0,0.0,0.0,0.0,0.0,0.0,0.0,0.0,0.0,0.0,0.0,0.0,0.0,0.0,0.0,0.0,0.0,-1.943,-1.943,-1.943,-1.943,-1.943,-1.943,-1.943,-1.943,-1.943,-1.9452,-1.9733,-2.0027,-2.0321,-2.0615,-2.0909,-2.1096,-2.1109,-2.1363,-2.1722,-2.1937,-2.2231,-2.2539,0.0,-2.2846,-2.2979,-2.3287,-2.3594,-2.3888,-2.4168,-2.4462,-2.4756,-2.5064,-2.5077,-2.5211,-2.5504,-2.5798,-2.6023,-2.6037,-2.6239,-2.6386,-2.6307,-2.4191,-2.314,-2.29,-1.8598,-1.6729,-1.6401,-1.4375,-1.348,-1.3403,-1.3403,-1.3403,-1.3403,-1.3403,-1.3403,-1.3403,-1.3403,-1.3403,-1.3403,-1.3403,-1.3403,-1.3403,-1.3403,-1.3505,-1.362,-1.3627,-1.3838,-1.4061,-1.4061,-1.4177,-1.4292,-1.4292,-1.4299,-1.4299,-1.4299,-1.4299,-1.4299,-1.4299,-1.2414,-1.0091,-0.7684,-0.5276,-0.2955,-0.0538,-0.009,0.0,0.0,0.0,0.0,0.0,0.0,0.0,0.0,0.0,0.0,0.0,0.0,0.0,0.0,0.0,0.0,0.0,0.0,0.0,0.0,0.0,0.0,0.0,0.0,0.0,0.0,0.0,-1.943,-1.943,-1.943,-1.943,-1.943,-1.943,-1.943,-1.943,-1.943,-1.9452,-1.9746,-2.004,-2.0334,-2.0628,-2.0922,-2.1176,-2.1376,-2.1657,-2.1951,-2.2231,-2.2539,0.0,0.0,0.0,0.0,-2.3313,-2.3781,-2.4102,-2.4195,-2.4663,-2.497,-2.5077,-2.5464,-2.5705,-2.5798,-2.6092,-2.6239,-2.6239,-2.4882,-2.4191,-2.4111,-2.2006,-2.014,-1.8679,-1.7211,-1.5753,-1.4458,-1.3728,-1.3403,-1.3403,-1.3403,-1.3403,-1.3403,-1.3403,-1.3403,-1.3403,-1.3403,-1.3403,-1.3403,-1.3403,-1.3403,-1.3417,-1.3519,-1.3587,-1.3668,-1.3871,-1.3994,-1.4095,-1.4197,-1.4265,-1.4299,-1.4299,-1.4299,-1.4299,-1.4299,-1.304,-1.1876,-1.1876,-1.0002,-0.804,-0.7235,-0.5186,-0.2783,-0.0362,0.0,0.0,0.0,0.0,0.0,0.0,0.0,0.0,0.0,0.0,0.0,0.0,0.0,0.0,0.0,0.0,0.0,0.0,0.0,0.0,0.0,0.0,0.0,0.0,0.0,0.0,0.0,-1.943,-1.943,-1.943,-1.943,-1.943,-1.943,-1.943,-1.943,-1.943,-1.9511,-1.9613,-1.9907,-2.0201,-2.0481,-2.0788,-2.0989,-2.1216,-2.1574,-2.1804,-2.2098,-2.2378,-2.2686,-2.2968,0.0,0.0,0.0,-2.3487,-2.3928,-2.4289,-2.4502,-2.4877,-2.517,-2.5384,-2.5836,-2.609,-2.6106,-2.6293,-2.5977,-2.5171,-2.3792,-2.274,-2.1845,-1.9735,-1.7946,-1.6565,-1.5753,-1.4698,-1.3403,-1.3403,-1.3403,-1.3403,-1.3403,-1.3437,-1.3485,-1.3485,-1.3512,-1.3546,-1.3437,-1.3437,-1.3485,-1.3485,-1.3519,-1.358,-1.3675,-1.3743,-1.3824,-1.4021,-1.4109,-1.4177,-1.4272,-1.4299,-1.4299,-1.4299,-1.4299,-1.4299,-1.4299,-1.2414,-1.0717,-1.0717,-0.8063,-0.5842,-0.5842,-0.3881,-0.1817,-0.0275,0.0,0.0,0.0,0.0,0.0,0.0,0.0,0.0,0.0,0.0,0.0,0.0,0.0,0.0,0.0,0.0,0.0,0.0,0.0,0.0,0.0,0.0,0.0,0.0,0.0,0.0,-1.943,-1.943,-1.943,-1.943,-1.943,-1.943,-1.943,-1.943,-1.943,-1.943,-1.9599,-1.9893,0.0,0.0,-2.0775,-2.1069,-2.1109,-2.1216,-2.1601,-2.1817,-2.2098,0.0,0.0,0.0,0.0,0.0,0.0,-2.3794,0.0,-2.4476,-2.505,-2.509,-2.5371,-2.601,-2.605,-2.6106,-2.6386,-2.6307,-2.5171,-2.314,-2.29,-2.1684,-1.9664,-1.7465,-1.6401,-1.6319,-1.4293,-1.3403,-1.3403,-1.341,-1.341,-1.341,-1.3417,-1.3512,-1.3641,-1.3641,-1.3722,-1.3797,-1.3519,-1.3519,-1.3641,-1.3641,-1.3729,-1.3844,-1.3851,-1.3953,-1.4075,-1.4082,-1.419,-1.4299,-1.4299,-1.4299,-1.4299,-1.4299,-1.4299,-1.4299,-1.4299,-1.2331,-1.0545,-1.0545,-0.6674,-0.3458,-0.3458,-0.1562,0.0,0.0,0.0,0.0,0.0,0.0,0.0,0.0,0.0,0.0,0.0,0.0,0.0,0.0,0.0,0.0,0.0,0.0,0.0,0.0,0.0,0.0,0.0,0.0,0.0,0.0,0.0,0.0,-1.943,-1.943,-1.943,-1.943,-1.943,-1.943,-1.943,-1.943,-1.943,-1.943,-1.9599,-1.9893,0.0,0.0,0.0,-2.1069,-2.1109,0.0,-2.1804,-2.1937,0.0,-2.2686,0.0,-2.3247,-2.3313,-2.3794,0.0,0.0,-2.4369,-2.469,-2.5064,-2.5291,-2.5571,-2.6023,-2.6159,-2.6319,-2.6386,-2.4761,-2.3632,-2.306,-1.9816,-1.7946,-1.7384,-1.5193,-1.4217,-1.4217,-1.3645,-1.3403,-1.341,-1.3526,-1.3573,-1.358,-1.3688,-1.3749,-1.3783,-1.3783,-1.381,-1.3831,-1.3756,-1.3756,-1.3783,-1.3783,-1.381,-1.3865,-1.398,-1.4041,-1.4095,-1.4211,-1.4272,-1.4299,-1.4299,-1.4299,-1.4299,-1.4299,-1.4299,-1.4299,-1.4299,-1.0962,-0.8042,-0.8042,-0.4199,-0.0922,-0.0922,-0.0372,0.0,0.0,0.0,0.0,0.0,0.0,0.0,0.0,0.0,0.0,0.0,0.0,0.0,0.0,0.0,0.0,0.0,0.0,0.0,0.0,0.0,0.0,0.0,0.0,0.0,0.0,0.0,0.0,-1.943,-1.943,-1.943,-1.943,-1.943,-1.943,-1.943,-1.943,-1.9399,-1.9533,-1.9786,-2.008,-2.0374,-2.0668,0.0,0.0,0.0,0.0,-2.1924,-2.2098,-2.2392,0.0,-2.322,0.0,-2.3688,-2.4008,-2.4315,0.0,-2.4743,-2.4957,-2.5251,-2.5545,-2.5838,-2.6132,-2.6306,-2.5898,-2.492,-2.3712,-2.2166,-2.022,-1.7783,-1.6082,-1.5193,-1.3969,-1.3403,-1.3403,0.0,-1.3498,-1.3512,-1.3661,-1.3722,-1.3729,-1.381,-1.3878,-1.3939,-1.3939,-1.3987,-1.4041,-1.4041,-1.4041,-1.4034,-1.396,-1.3987,-1.4055,-1.4143,-1.417,-1.419,-1.4278,-1.4299,-1.4299,-1.4299,-1.4299,-1.4319,-1.438,-1.4394,-1.4414,-1.4475,-1.064,-0.6586,-0.4418,-0.1854,0.0,0.0,0.0,0.0,0.0,0.0,0.0,0.0,0.0,0.0,0.0,0.0,0.0,0.0,0.0,0.0,0.0,0.0,0.0,0.0,0.0,0.0,0.0,0.0,0.0,0.0,0.0,0.0,0.0,0.0,0.0,-1.943,-1.943,-1.943,-1.943,-1.943,-1.943,-1.943,-1.943,-1.9511,-1.9733,-2.0027,-2.0321,-2.0615,-2.0909,-2.1109,-2.1109,0.0,-2.1722,-2.1951,-2.2231,-2.2645,-2.326,-2.3367,-2.3607,-2.4155,-2.4235,-2.4489,-2.5037,-2.5117,-2.5264,-2.5558,-2.5812,-2.6092,-2.6373,-2.6386,-2.533,-2.314,-2.282,-2.0625,-1.6565,-1.6319,-1.5185,-1.3403,-1.3403,-1.341,-1.3437,0.0,0.0,-1.3668,-1.381,-1.3871,-1.3871,-1.3892,-1.3987,-1.4102,-1.4102,-1.4183,-1.4299,-1.4299,-1.4299,-1.4278,-1.4143,-1.419,-1.4299,-1.4299,-1.4299,-1.4299,-1.4299,-1.4299,-1.4306,-1.4326,-1.4326,-1.4367,-1.4509,-1.4543,-1.4577,-1.4713,-1.0876,-0.5927,-0.094,0.0,0.0,0.0,0.0,0.0,0.0,0.0,0.0,0.0,0.0,0.0,0.0,0.0,0.0,0.0,0.0,0.0,0.0,0.0,0.0,0.0,0.0,0.0,0.0,0.0,0.0,0.0,0.0,0.0,0.0,0.0,0.0,-1.943,-1.943,-1.943,-1.943,-1.943,-1.943,-1.943,-1.943,0.0,-1.9733,-2.0027,-2.0321,-2.0615,-2.0909,-2.1109,-2.1109,-2.1363,-2.1722,-2.1951,-2.2231,-2.2645,0.0,-2.3541,-2.3821,-2.4168,-2.4422,0.0,0.0,0.0,0.0,-2.5865,-2.601,-2.6092,-2.6373,-2.6386,-2.533,-2.314,-2.1362,-1.9176,-1.6565,-1.4781,-1.3728,-1.3403,-1.3403,-1.3471,-1.3593,0.0,0.0,-1.3817,-1.3966,-1.4034,-1.4048,-1.417,-1.4238,-1.4258,-1.4258,-1.4278,-1.4299,-1.4299,-1.4299,-1.4299,-1.4272,-1.4278,-1.4299,-1.4299,-1.4299,-1.4299,-1.4299,-1.4299,-1.4326,-1.4441,-1.4475,-1.4516,-1.4665,-1.4699,-1.4706,-1.4733,-1.0839,-0.5896,-0.0949,0.0,0.0,0.0,0.0,0.0,0.0,0.0,0.0,0.0,0.0,0.0,0.0,0.0,0.0,0.0,0.0,0.0,0.0,0.0,0.0,0.0,0.0,0.0,0.0,0.0,0.0,0.0,0.0,0.0,0.0,0.0,0.0,-1.943,-1.943,-1.943,-1.943,-1.943,-1.943,-1.943,0.0,0.0,-1.996,-2.0254,-2.0548,-2.0842,-2.1015,0.0,-2.1109,-2.1483,-2.183,-2.1964,-2.2365,-2.2873,-2.3487,-2.3688,-2.3941,0.0,-2.469,0.0,0.0,0.0,0.0,-2.6023,-2.6106,-2.6239,-2.6386,-2.5251,-2.3632,-2.1442,-1.9248,-1.7057,-1.4946,-1.3887,-1.3403,-1.3403,-1.3485,-1.3559,-1.3641,0.0,0.0,-1.3973,-1.4129,-1.419,-1.4197,-1.4272,-1.4299,-1.4299,-1.4299,-1.4299,-1.4299,-1.4299,-1.4299,-1.4312,-1.4387,-1.436,-1.4299,-1.4299,-1.4353,-1.4407,-1.4407,-1.4468,-1.4543,-1.4611,-1.4631,-1.4672,-1.4821,-1.3887,-1.2627,-1.1315,-0.8076,-0.4442,-0.0762,0.0,0.0,0.0,0.0,0.0,0.0,0.0,0.0,0.0,0.0,0.0,0.0,0.0,0.0,0.0,0.0,0.0,0.0,0.0,0.0,0.0,0.0,0.0,0.0,0.0,0.0,0.0,0.0,0.0,0.0,0.0,0.0,-1.943,-1.943,-1.943,-1.943,-1.943,-1.9444,-1.9452,-1.9639,0.0,-2.0254,-2.0508,-2.0762,-2.1056,-2.1109,-2.1136,0.0,-2.1643,-2.2004,-2.2071,-2.2525,-2.3086,0.0,-2.3768,0.0,-2.4583,-2.4903,0.0,0.0,0.0,0.0,-2.613,-2.6266,-2.6149,-2.574,-2.4031,-2.1845,-1.9258,-1.7465,-1.5514,-1.3403,-1.3403,-1.3417,-1.3451,-1.3573,-1.3661,-1.3736,0.0,0.0,0.0,-1.4251,-1.4299,-1.4299,-1.4299,-1.4299,-1.4299,-1.4299,-1.4299,-1.4306,-1.4333,-1.4346,-1.4367,-1.4516,-1.4462,-1.4353,-1.4387,-1.4475,-1.4563,-1.4563,-1.4645,-1.4746,-1.478,-1.4787,-1.4828,-1.4977,-1.321,-1.0725,-0.8164,-0.5605,-0.3044,-0.0477,0.0,0.0,0.0,0.0,0.0,0.0,0.0,0.0,0.0,0.0,0.0,0.0,0.0,0.0,0.0,0.0,0.0,0.0,0.0,0.0,0.0,0.0,0.0,0.0,0.0,0.0,0.0,0.0,0.0,0.0,0.0,0.0,-1.943,-1.943,-1.943,-1.943,-1.943,-1.9439,-1.9693,0.0,-1.996,-2.0521,-2.0655,-2.0762,-2.1056,-2.1109,-2.1203,-2.1534,-2.1777,-2.2084,-2.2338,-2.2659,-2.3086,-2.3701,0.0,0.0,-2.4583,0.0,0.0,0.0,0.0,0.0,0.0,-2.6373,-2.5489,-2.346,-2.322,-2.1109,-1.6975,-1.6729,-1.5514,-1.3403,-1.3403,-1.3471,-1.3607,-1.362,-1.3777,-1.4034,0.0,0.0,0.0,-1.4292,-1.4299,-1.4299,-1.4299,-1.4299,-1.4299,-1.4299,-1.4299,-1.4319,-1.4448,-1.4489,-1.4516,-1.4672,-1.4618,-1.4516,-1.4658,-1.4706,-1.4719,-1.4719,-1.4726,-1.4774,-1.4916,-1.495,-1.4984,-1.5126,-1.3275,-1.0725,-0.8164,-0.5605,-0.3044,-0.0477,0.0,0.0,0.0,0.0,0.0,0.0,0.0,0.0,0.0,0.0,0.0,0.0,0.0,0.0,0.0,0.0,0.0,0.0,0.0,0.0,0.0,0.0,0.0,0.0,0.0,0.0,0.0,0.0,0.0,0.0,0.0,0.0,-1.943,-1.943,-1.943,-1.943,-1.9492,-1.9653,-1.9773,0.0,-2.0401,-2.0628,-2.0815,-2.0975,-2.1082,-2.1109,-2.1203,-2.1574,0.0,0.0,-2.2378,-2.2832,-2.33,-2.3714,-2.3928,0.0,0.0,0.0,0.0,0.0,0.0,0.0,0.0,-2.3712,-2.338,-2.1281,-1.9897,-1.8354,-1.6647,-1.535,-1.421,-1.3403,-1.3492,-1.3566,-1.3634,-1.381,-1.396,-1.4075,0.0,0.0,0.0,-1.4299,-1.4299,-1.4299,-1.4299,-1.4299,-1.4299,-1.4299,-1.4353,-1.4434,-1.4489,-1.457,-1.4672,-1.4828,-1.4835,-1.478,-1.4746,-1.4808,-1.4875,-1.4875,-1.4943,-1.5018,-1.5079,-1.5099,-1.4732,-1.3269,-1.1003,-0.8447,-0.5889,-0.3329,-0.1239,-0.0191,0.0,0.0,0.0,0.0,0.0,0.0,0.0,0.0,0.0,0.0,0.0,0.0,0.0,0.0,0.0,0.0,0.0,0.0,0.0,0.0,0.0,0.0,0.0,0.0,0.0,0.0,0.0,0.0,0.0,0.0,0.0,0.0,-1.943,-1.943,-1.9444,-1.9479,-1.9653,-1.984,0.0,0.0,-2.0695,-2.0788,-2.0962,-2.1109,-2.1109,-2.1176,-2.1336,0.0,0.0,-2.2218,-2.2512,-2.2993,-2.3434,0.0,0.0,0.0,0.0,0.0,0.0,0.0,0.0,0.0,0.0,-2.0382,-2.0463,-1.9014,-1.7384,-1.6328,-1.5671,-1.4135,-1.3424,-1.3471,-1.358,-1.3675,-1.377,-1.3973,-1.4095,0.0,0.0,0.0,0.0,-1.4299,-1.4299,-1.4299,-1.4299,-1.4326,-1.436,-1.436,-1.4455,-1.4584,-1.4631,-1.4719,-1.4835,-1.4984,-1.5031,-1.5011,-1.4903,-1.495,-1.5031,-1.5031,-1.5106,-1.5181,-1.5181,-1.5181,-1.4516,-1.2051,-0.9488,-0.6932,-0.4373,-0.181,0.0,0.0,0.0,0.0,0.0,0.0,0.0,0.0,0.0,0.0,0.0,0.0,0.0,0.0,0.0,0.0,0.0,0.0,0.0,0.0,0.0,0.0,0.0,0.0,0.0,0.0,0.0,0.0,0.0,0.0,0.0,0.0,0.0,0.0,-1.943,-1.943,-1.9439,-1.972,-1.98,-1.996,0.0,0.0,-2.0762,-2.1042,-2.1109,-2.1109,-2.1109,-2.1349,-2.1708,-2.1937,0.0,0.0,-2.2887,-2.3126,0.0,0.0,0.0,0.0,0.0,0.0,0.0,0.0,0.0,0.0,0.0,0.0,-1.6647,-1.6647,-1.6647,-1.5597,-1.348,-1.3403,-1.3478,-1.3627,-1.3627,-1.3783,-1.4068,-1.4068,0.0,0.0,0.0,0.0,0.0,-1.4299,-1.4299,-1.4299,-1.4299,-1.4387,-1.4509,-1.4509,-1.4604,-1.476,-1.4909,-1.497,-1.4991,-1.5133,-1.5181,-1.5181,-1.5181,-1.5181,-1.5181,-1.5181,-1.5181,-1.5181,-1.5181,-1.5181,-1.4516,-1.2051,-0.9488,-0.6932,-0.4373,-0.181,0.0,0.0,0.0,0.0,0.0,0.0,0.0,0.0,0.0,0.0,0.0,0.0,0.0,0.0,0.0,0.0,0.0,0.0,0.0,0.0,0.0,0.0,0.0,0.0,0.0,0.0,0.0,0.0,0.0,0.0,0.0,0.0,0.0,0.0,-1.943,-1.9506,-1.9679,-1.9773,-2.0107,-2.0441,-2.0628,0.0,-2.1002,-2.1096,-2.1109,-2.1176,-2.1376,-2.1561,-2.1775,-2.2205,-2.2352,0.0,0.0,0.0,0.0,0.0,0.0,0.0,0.0,0.0,0.0,0.0,0.0,0.0,0.0,0.0,-1.4375,-1.4375,-1.4375,-1.4052,-1.3403,-1.3403,-1.3478,-1.3634,-1.3729,-1.3878,-1.4075,-1.4183,0.0,0.0,0.0,0.0,0.0,-1.4299,-1.4299,-1.4306,-1.4407,-1.4475,-1.4523,-1.4631,-1.4767,-1.4903,-1.495,-1.5031,-1.512,-1.5167,-1.5181,-1.5181,-1.5181,-1.5181,-1.5181,-1.5181,-1.5181,-1.5181,-1.5181,-1.3946,-1.1956,-0.9393,-0.6838,-0.4278,-0.1715,-0.0575,0.0,0.0,0.0,0.0,0.0,0.0,0.0,0.0,0.0,0.0,0.0,0.0,0.0,0.0,0.0,0.0,0.0,0.0,0.0,0.0,0.0,0.0,0.0,0.0,0.0,0.0,0.0,0.0,0.0,0.0,0.0,0.0,0.0,0.0,0.0,-1.9746,-1.9987,-2.0107,-2.0401,0.0,0.0,-2.0975,-2.1109,-2.1109,-2.1203,-2.1336,-2.1588,-2.1802,-2.1793,-2.1398,0.0,0.0,0.0,0.0,0.0,0.0,0.0,0.0,0.0,0.0,0.0,0.0,0.0,0.0,0.0,0.0,-1.3403,-1.3403,-1.3403,-1.3403,-1.3403,-1.3458,-1.3559,-1.3709,-1.3858,-1.4007,-1.4163,0.0,0.0,0.0,0.0,0.0,0.0,-1.4299,-1.4333,-1.4387,-1.4475,-1.4584,-1.4699,-1.4794,-1.4923,-1.5052,-1.5052,-1.5106,-1.5181,-1.5181,-1.5181,-1.5181,-1.5181,-1.5181,-1.5181,-1.5181,-1.5181,-1.5181,-1.5181,-1.3281,-1.0725,-0.8164,-0.562,-0.3062,-0.0575,0.0,0.0,0.0,0.0,0.0,0.0,0.0,0.0,0.0,0.0,0.0,0.0,0.0,0.0,0.0,0.0,0.0,0.0,0.0,0.0,0.0,0.0,0.0,0.0,0.0,0.0,0.0,0.0,0.0,0.0,0.0,0.0,0.0,0.0,0.0,0.0,0.0,0.0,0.0,0.0,0.0,-2.1042,-2.1109,0.0,-2.1109,-2.1349,-2.1628,-2.1641,-2.1965,-2.1665,0.0,0.0,0.0,0.0,0.0,0.0,0.0,0.0,0.0,0.0,0.0,0.0,0.0,0.0,0.0,0.0,0.0,0.0,-1.3403,-1.3403,-1.3403,-1.3403,-1.3553,-1.3702,-1.3844,-1.3994,-1.415,-1.4299,0.0,0.0,0.0,0.0,0.0,0.0,-1.4312,-1.4394,-1.4516,-1.4536,-1.4719,-1.497,-1.4984,-1.5072,-1.5181,-1.5181,-1.5181,-1.5181,-1.5181,-1.5181,-1.5181,-1.5181,-1.5181,-1.5181,-1.5181,-1.5181,-1.5181,-1.5181,-1.3187,-1.0536,-0.8171,-0.5554,-0.2897,-0.0484,0.0,0.0,0.0,0.0,0.0,0.0,0.0,0.0,0.0,0.0,0.0,0.0,0.0,0.0,0.0,0.0,0.0,0.0,0.0,0.0,0.0,0.0,0.0,0.0,0.0,0.0,0.0,0.0,0.0,0.0,0.0,0.0,0.0,0.0,0.0,0.0,0.0,0.0,0.0,0.0,-2.1029,0.0,-2.1109,-2.1109,-2.1109,-2.1349,-2.1681,-2.1844,-2.1019,-2.0211,0.0,0.0,0.0,0.0,0.0,0.0,0.0,0.0,0.0,0.0,0.0,0.0,0.0,0.0,0.0,0.0,0.0,0.0,-1.3403,-1.3403,-1.3403,-1.3403,-1.3553,-1.3702,-1.3844,-1.3994,-1.415,-1.4299,0.0,0.0,0.0,0.0,0.0,-1.4306,-1.4414,-1.4482,-1.4536,-1.4774,-1.4909,-1.4984,-1.5092,-1.5153,-1.5181,-1.5181,-1.5181,-1.5181,-1.5181,-1.5181,-1.5181,-1.5181,-1.5181,-1.5181,-1.5181,-1.5181,-1.5181,-1.5181,-1.1857,-0.8368,-0.7763,-0.4141,-0.0775,-0.0098,0.0,0.0,0.0,0.0,0.0,0.0,0.0,0.0,0.0,0.0,0.0,0.0,0.0,0.0,0.0,0.0,0.0,0.0,0.0,0.0,0.0,0.0,0.0,0.0,0.0,0.0,0.0,0.0,0.0,0.0,0.0,0.0,0.0,0.0,0.0,0.0,0.0,-2.0869,-2.0869,-2.0989,-2.1109,-2.1109,-2.1109,-2.1149,-2.1283,-2.155,-2.1569,-2.1047,-2.0287,-1.9335,0.0,-1.7399,0.0,0.0,0.0,0.0,0.0,0.0,0.0,0.0,0.0,0.0,0.0,0.0,0.0,0.0,0.0,0.0,0.0,-1.3403,-1.3437,-1.3505,-1.3654,-1.3797,-1.3946,-1.4102,-1.4217,-1.4299,0.0,0.0,0.0,0.0,0.0,-1.4401,-1.4482,-1.4597,-1.474,-1.4903,-1.5011,-1.5079,-1.5153,-1.5181,-1.5181,-1.5181,-1.5181,-1.5181,-1.5181,-1.5181,-1.5181,-1.5181,-1.5181,-1.5181,-1.5181,-1.5181,-1.4912,-1.3737,-1.0502,-0.7281,-0.61,-0.2828,0.0,0.0,0.0,0.0,0.0,0.0,0.0,0.0,0.0,0.0,0.0,0.0,0.0,0.0,0.0,0.0,0.0,0.0,0.0,0.0,0.0,0.0,0.0,0.0,0.0,0.0,0.0,0.0,0.0,0.0,0.0,0.0,0.0,0.0,0.0,0.0,0.0,-2.1042,-2.1109,-2.1109,-2.1109,-2.1109,-2.1109,-2.1109,-2.1109,-2.1189,-2.1561,-2.1777,-2.1528,-1.9899,-1.9599,-1.8508,0.0,0.0,0.0,0.0,0.0,0.0,0.0,0.0,0.0,0.0,0.0,0.0,0.0,0.0,0.0,0.0,0.0,0.0,0.0,-1.3403,-1.3485,-1.3661,-1.3783,-1.3919,-1.4075,-1.4224,-1.4299,-1.4299,-1.4299,0.0,0.0,0.0,0.0,-1.4516,-1.4563,-1.4733,-1.497,-1.4997,-1.5079,-1.5181,-1.5181,-1.5181,-1.5181,-1.5181,-1.5181,-1.5181,-1.5181,-1.5181,-1.5181,-1.5181,-1.5181,-1.5093,-1.4731,-1.4643,-1.4096,-1.2,-0.9252,-0.6486,-0.4307,-0.1878,0.0,0.0,0.0,0.0,0.0,0.0,0.0,0.0,0.0,0.0,0.0,0.0,0.0,0.0,0.0,0.0,0.0,0.0,0.0,0.0,0.0,0.0,0.0,0.0,0.0,0.0,0.0,0.0,0.0,0.0,0.0,0.0,0.0,0.0,0.0,0.0,0.0,-2.1096,-2.1109,-2.1109,-2.1109,-2.1109,-2.1109,-2.1109,-2.1109,-2.1189,-2.1561,-2.1777,-2.1528,-1.9899,-1.8564,-1.6896,0.0,0.0,0.0,0.0,0.0,0.0,0.0,0.0,0.0,0.0,0.0,0.0,0.0,0.0,0.0,0.0,0.0,0.0,0.0,0.0,-1.3532,-1.3804,-1.3831,-1.3919,-1.4075,-1.4224,-1.4299,-1.4299,-1.4299,-1.4299,0.0,0.0,0.0,-1.4529,-1.4794,-1.493,-1.4984,-1.5106,-1.516,-1.5181,-1.5181,-1.5181,-1.5181,-1.5181,-1.5181,-1.5181,-1.5181,-1.5181,-1.5181,-1.5181,-1.5181,-1.4731,-1.2545,-1.2,-1.1905,-1.1538,-0.7942,-0.4307,-0.3856,-0.1888,0.0,0.0,0.0,0.0,0.0,0.0,0.0,0.0,0.0,0.0,0.0,0.0,0.0,0.0,0.0,0.0,0.0,0.0,0.0,0.0,0.0,0.0,0.0,0.0,0.0,0.0,0.0,0.0,0.0,0.0,0.0,0.0,0.0,0.0,0.0,0.0,0.0,-2.1109,-2.1109,-2.1109,-2.1109,-2.1109,-2.1109,-2.1109,-2.1229,-2.143,-2.1724,-2.1211,-2.019,0.0,0.0,-1.5132,-1.3413,0.0,0.0,0.0,0.0,0.0,0.0,0.0,0.0,0.0,0.0,0.0,0.0,0.0,0.0,0.0,0.0,0.0,0.0,0.0,0.0,-1.3838,-1.3926,-1.4041,-1.4197,-1.4265,-1.4299,-1.4299,-1.4299,-1.4299,0.0,0.0,-1.4557,-1.4652,-1.4882,-1.5018,-1.5092,-1.516,-1.5181,-1.5181,-1.5181,-1.5181,-1.5181,-1.5181,-1.5181,-1.5181,-1.5181,-1.5181,-1.5181,-1.5181,-1.5242,-1.4741,-1.2106,-1.1448,-1.0802,-0.7998,-0.56,-0.3462,-0.2099,-0.0802,0.0,0.0,0.0,0.0,0.0,0.0,0.0,0.0,0.0,0.0,0.0,0.0,0.0,0.0,0.0,0.0,0.0,0.0,0.0,0.0,0.0,0.0,0.0,0.0,0.0,0.0,0.0,0.0,0.0,0.0,0.0,0.0,0.0,0.0,0.0,0.0,0.0,-2.1109,-2.1109,-2.0982,-2.0589,-2.0779,-2.1122,-2.1203,-2.1056,-2.0993,-2.1397,-2.0141,-1.8432,0.0,-1.5035,0.0,-1.231,0.0,0.0,0.0,0.0,0.0,0.0,0.0,0.0,0.0,0.0,0.0,0.0,0.0,0.0,0.0,0.0,0.0,0.0,0.0,0.0,-1.3838,-1.3994,-1.415,-1.4299,-1.4299,-1.4299,-1.4299,-1.4299,-1.4319,-1.436,-1.4502,-1.4652,-1.4808,-1.4957,-1.5086,-1.5181,-1.5181,-1.5181,-1.5181,-1.5181,-1.5181,-1.5181,-1.5181,-1.5181,-1.5181,-1.5181,-1.5208,-1.5235,-1.5235,-1.5343,-1.4789,-1.1519,-1.056,-0.9528,-0.4942,-0.3384,-0.2398,-0.0504,0.0,0.0,0.0,0.0,0.0,0.0,0.0,0.0,0.0,0.0,0.0,0.0,0.0,0.0,0.0,0.0,0.0,0.0,0.0,0.0,0.0,0.0,0.0,0.0,0.0,0.0,0.0,0.0,0.0,0.0,0.0,0.0,0.0,0.0,0.0,0.0,0.0,0.0,-2.1109,-2.1109,-2.0716,-1.9088,-1.9877,-2.1189,-2.1521,-2.0203,-1.9041,-1.9681,-1.8276,-1.6491,-1.4885,-1.3146,0.0,0.0,0.0,0.0,0.0,0.0,0.0,0.0,0.0,0.0,0.0,0.0,0.0,0.0,0.0,0.0,0.0,0.0,0.0,0.0,0.0,0.0,-1.3838,-1.3994,-1.415,-1.4299,-1.4299,-1.4299,-1.4299,-1.4299,-1.4373,-1.4502,-1.4658,-1.4814,-1.4964,-1.5106,-1.5174,-1.5181,-1.5181,-1.5181,-1.5181,-1.5181,-1.5181,-1.5181,-1.5181,-1.5181,-1.5181,-1.5181,-1.5276,-1.5398,-1.5398,-1.5499,-1.457,-0.9465,-0.8106,-0.7419,-0.4565,-0.2002,-0.0202,0.0,0.0,0.0,0.0,0.0,0.0,0.0,0.0,0.0,0.0,0.0,0.0,0.0,0.0,0.0,0.0,0.0,0.0,0.0,0.0,0.0,0.0,0.0,0.0,0.0,0.0,0.0,0.0,0.0,0.0,0.0,0.0,0.0,0.0,0.0,0.0,0.0,0.0,0.0,-2.1109,-2.1109,-2.0919,-2.0259,-1.9801,-1.9224,-1.8373,-1.7763,-1.7492,-1.7801,-1.653,-1.4797,-1.3074,0.0,0.0,0.0,0.0,0.0,0.0,0.0,0.0,0.0,0.0,0.0,0.0,0.0,0.0,0.0,0.0,0.0,0.0,0.0,0.0,0.0,0.0,0.0,0.0,-1.4136,-1.4245,-1.4299,-1.4299,-1.4299,-1.4306,-1.4394,-1.4462,-1.4523,-1.4774,-1.4916,-1.4984,-1.5126,-1.5181,-1.5181,-1.5181,-1.5181,-1.5181,-1.5181,-1.5181,-1.5181,-1.5181,-1.5181,-1.5201,-1.5296,-1.5364,-1.5432,-1.552,-1.4479,-1.252,-0.8807,-0.6669,-0.4804,-0.2106,-0.0705,0.0,0.0,0.0,0.0,0.0,0.0,0.0,0.0,0.0,0.0,0.0,0.0,0.0,0.0,0.0,0.0,0.0,0.0,0.0,0.0,0.0,0.0,0.0,0.0,0.0,0.0,0.0,0.0,0.0,0.0,0.0,0.0,0.0,0.0,0.0,0.0,0.0,0.0,0.0,0.0,-2.0259,-2.0259,-2.003,-1.894,-1.8243,-1.7217,-1.506,-1.518,-1.5778,-1.5986,-1.4735,-1.3202,-1.2029,-1.1999,0.0,0.0,0.0,0.0,0.0,0.0,0.0,0.0,0.0,0.0,0.0,0.0,0.0,0.0,0.0,0.0,0.0,0.0,0.0,0.0,0.0,0.0,0.0,-1.4224,-1.4299,-1.4299,-1.4299,-1.4299,-1.4306,-1.4448,-1.4536,-1.4597,-1.4855,-1.4997,-1.5045,-1.514,-1.5181,-1.5181,-1.5181,-1.5181,-1.5181,-1.5181,-1.5181,-1.5187,-1.5235,-1.5255,-1.5282,-1.5432,-1.5513,-1.5375,-1.4595,-1.3234,-1.114,-0.7563,-0.5304,-0.3423,-0.0707,0.0,0.0,0.0,0.0,0.0,0.0,0.0,0.0,0.0,0.0,0.0,0.0,0.0,0.0,0.0,0.0,0.0,0.0,0.0,0.0,0.0,0.0,0.0,0.0,0.0,0.0,0.0,0.0,0.0,0.0,0.0,0.0,0.0,0.0,0.0,0.0,0.0,0.0,0.0,0.0,0.0,-1.8512,-1.8512,-1.7658,-1.4352,-1.4796,-1.5242,-1.2153,-1.2643,-1.3915,-1.4285,-1.3017,-1.183,-1.1837,-1.2088,0.0,0.0,0.0,0.0,0.0,0.0,0.0,0.0,0.0,0.0,0.0,0.0,0.0,0.0,0.0,0.0,0.0,0.0,0.0,0.0,0.0,0.0,0.0,-1.4224,-1.4299,-1.4299,-1.4299,-1.4299,-1.4306,-1.4448,-1.4597,-1.4753,-1.4903,-1.5052,-1.5181,-1.5181,-1.5181,-1.5181,-1.5181,-1.5181,-1.5181,-1.5181,-1.5181,-1.5208,-1.5357,-1.5411,-1.5438,-1.5594,-1.5737,-1.5355,-1.2678,-1.1961,-1.0945,-0.553,-0.4026,-0.3322,-0.0707,0.0,0.0,0.0,0.0,0.0,0.0,0.0,0.0,0.0,0.0,0.0,0.0,0.0,0.0,0.0,0.0,0.0,0.0,0.0,0.0,0.0,0.0,0.0,0.0,0.0,0.0,0.0,0.0,0.0,0.0,0.0,0.0,0.0,0.0,0.0,0.0,0.0,0.0,0.0,0.0,0.0,-1.8512,-1.766,-1.6561,-1.5575,-1.4898,-1.4266,-1.3416,-1.2672,-1.217,-1.2489,-1.2161,-1.1898,-1.2115,-1.223,0.0,0.0,0.0,0.0,0.0,0.0,0.0,0.0,0.0,0.0,0.0,0.0,0.0,0.0,0.0,0.0,0.0,0.0,0.0,0.0,0.0,0.0,0.0,0.0,-1.4299,-1.4299,-1.4299,-1.4353,-1.4455,-1.4604,-1.4753,-1.4909,-1.5059,-1.5147,-1.5181,-1.5181,-1.5181,-1.5181,-1.5181,-1.5181,-1.5181,-1.5181,-1.5248,-1.535,-1.5398,-1.5479,-1.5594,-1.5744,-1.5818,-1.5375,-1.2776,-1.0722,-0.8439,-0.503,-0.262,-0.1009,-0.0202,0.0,0.0,0.0,0.0,0.0,0.0,0.0,0.0,0.0,0.0,0.0,0.0,0.0,0.0,0.0,0.0,0.0,0.0,0.0,0.0,0.0,0.0,0.0,0.0,0.0,0.0,0.0,0.0,0.0,0.0,0.0,0.0,0.0,0.0,0.0,0.0,0.0,0.0,0.0,0.0,0.0,-1.6676,-1.5817,-1.49,-1.4391,-1.4045,-1.3758,-1.3185,-1.225,-1.1545,-1.1782,-1.1877,-1.1999,-1.2244,-1.2338,0.0,0.0,0.0,0.0,0.0,0.0,0.0,0.0,0.0,0.0,0.0,0.0,0.0,0.0,0.0,0.0,0.0,0.0,0.0,0.0,0.0,0.0,0.0,0.0,0.0,-1.4299,-1.4353,-1.4462,-1.4604,-1.4699,-1.4828,-1.4977,-1.512,-1.5181,-1.5181,-1.5181,-1.5181,-1.5181,-1.5181,-1.5181,-1.5187,-1.5248,-1.533,-1.5432,-1.5547,-1.5649,-1.575,-1.59,-1.5243,-1.386,-1.1225,-0.8539,-0.5834,-0.3122,-0.1211,0.0,0.0,0.0,0.0,0.0,0.0,0.0,0.0,0.0,0.0,0.0,0.0,0.0,0.0,0.0,0.0,0.0,0.0,0.0,0.0,0.0,0.0,0.0,0.0,0.0,0.0,0.0,0.0,0.0,0.0,0.0,0.0,0.0,0.0,0.0,0.0,0.0,0.0,0.0,0.0,0.0,0.0,0.0,-1.3886,-1.3428,-1.3002,-1.1734,-1.2577,-1.3396,-1.1937,-1.1633,-1.1681,-1.1823,0.0,-1.2128,-1.2284,0.0,0.0,0.0,0.0,0.0,0.0,0.0,0.0,0.0,0.0,0.0,0.0,0.0,0.0,0.0,0.0,0.0,0.0,0.0,0.0,0.0,0.0,0.0,0.0,0.0,0.0,0.0,-1.4448,-1.4597,-1.476,-1.476,-1.4841,-1.4997,-1.5126,-1.5181,-1.5181,-1.5181,-1.5181,-1.5181,-1.5181,-1.5194,-1.5221,-1.5357,-1.5432,-1.5493,-1.5757,-1.5859,-1.59,-1.6035,-1.4265,-1.1544,-0.884,-0.6132,-0.3423,-0.0707,0.0,0.0,0.0,0.0,0.0,0.0,0.0,0.0,0.0,0.0,0.0,0.0,0.0,0.0,0.0,0.0,0.0,0.0,0.0,0.0,0.0,0.0,0.0,0.0,0.0,0.0,0.0,0.0,0.0,0.0,0.0,0.0,0.0,0.0,0.0,0.0,0.0,0.0,0.0,0.0,0.0,0.0,0.0,0.0,-1.3595,-1.2673,-1.179,-1.1516,-1.1761,-1.2001,-1.1685,-1.1708,-1.183,-1.1979,-1.2135,-1.2284,0.0,0.0,0.0,0.0,0.0,0.0,0.0,0.0,0.0,0.0,0.0,0.0,0.0,0.0,0.0,0.0,0.0,0.0,0.0,0.0,0.0,0.0,0.0,0.0,-1.4299,-1.4299,-1.4353,0.0,-1.4496,-1.4652,-1.4923,-1.4923,-1.4997,-1.514,-1.5167,-1.5181,-1.5181,-1.5181,-1.5181,-1.5181,-1.5181,-1.5255,-1.5364,-1.5398,-1.556,-1.5764,-1.5832,-1.5934,-1.6035,-1.6069,-1.4265,-1.1544,-0.884,-0.6132,-0.3423,-0.0707,0.0,0.0,0.0,0.0,0.0,0.0,0.0,0.0,0.0,0.0,0.0,0.0,0.0,0.0,0.0,0.0,0.0,0.0,0.0,0.0,0.0,0.0,0.0,0.0,0.0,0.0,0.0,0.0,0.0,0.0,0.0,0.0,0.0,0.0,0.0,0.0,0.0,0.0,0.0,0.0,0.0,0.0,0.0,0.0,-1.2696,-1.1956,-1.1409,-1.1484,-1.1558,-1.164,-1.1708,-1.1837,-1.1986,-1.2142,-1.2237,0.0,0.0,0.0,0.0,0.0,0.0,0.0,0.0,0.0,0.0,0.0,0.0,0.0,0.0,0.0,0.0,0.0,0.0,0.0,0.0,0.0,0.0,0.0,0.0,0.0,-1.4299,-1.4299,-1.4373,-1.4516,-1.4584,-1.478,-1.5072,-1.5072,-1.5113,-1.5181,-1.5181,-1.5181,-1.5181,-1.5181,-1.5181,-1.5187,-1.5262,-1.5343,-1.5432,-1.5567,-1.5723,-1.5866,-1.594,-1.6015,-1.6083,-1.6083,-1.3356,-0.9845,-0.8442,-0.5231,-0.1815,-0.0404,0.0,0.0,0.0,0.0,0.0,0.0,0.0,0.0,0.0,0.0,0.0,0.0,0.0,0.0,0.0,0.0,0.0,0.0,0.0,0.0,0.0,0.0,0.0,0.0,0.0,0.0,0.0,0.0,0.0,0.0,0.0,0.0,0.0,0.0,0.0,0.0,0.0,0.0,0.0,0.0,0.0,0.0,0.0,0.0,-1.1769,-1.1409,-1.1463,-1.1586,-1.1619,0.0,-1.1796,-1.1952,-1.2108,-1.2257,0.0,0.0,0.0,0.0,0.0,0.0,0.0,0.0,0.0,0.0,0.0,0.0,0.0,0.0,0.0,0.0,0.0,0.0,0.0,0.0,0.0,0.0,0.0,0.0,0.0,-1.4299,-1.4299,-1.4326,-1.4407,-1.4557,-1.4733,-1.4943,-1.5181,-1.5181,-1.5181,-1.5181,-1.5181,-1.5181,-1.5181,-1.5181,-1.5201,-1.5235,-1.5364,-1.5445,-1.552,-1.5764,-1.5872,-1.5913,-1.6035,-1.6083,-1.5983,-1.5572,-1.2053,-0.7941,-0.7437,-0.3927,0.0,0.0,0.0,0.0,0.0,0.0,0.0,0.0,0.0,0.0,0.0,0.0,0.0,0.0,0.0,0.0,0.0,0.0,0.0,0.0,0.0,0.0,0.0,0.0,0.0,0.0,0.0,0.0,0.0,0.0,0.0,0.0,0.0,0.0,0.0,0.0,0.0,0.0,0.0,0.0,0.0,0.0,0.0,0.0,0.0,0.0,-1.1452,0.0,-1.1592,0.0,-1.1619,-1.1653,0.0,0.0,-1.2108,0.0,0.0,0.0,0.0,0.0,0.0,0.0,0.0,0.0,0.0,0.0,0.0,0.0,0.0,0.0,0.0,0.0,0.0,0.0,0.0,0.0,0.0,0.0,-1.3838,-1.3838,-1.4136,0.0,-1.4299,-1.4421,-1.4557,-1.4713,-1.4991,-1.5147,-1.5181,-1.5181,-1.5181,-1.5181,-1.5181,-1.5181,-1.5181,-1.5181,-1.5262,-1.5384,-1.5404,-1.5567,-1.5798,-1.5839,-1.594,-1.6056,-1.6076,-1.6083,-1.5678,-1.3356,-1.0545,-0.7537,-0.5231,-0.2418,0.0,0.0,0.0,0.0,0.0,0.0,0.0,0.0,0.0,0.0,0.0,0.0,0.0,0.0,0.0,0.0,0.0,0.0,0.0,0.0,0.0,0.0,0.0,0.0,0.0,0.0,0.0,0.0,0.0,0.0,0.0,0.0,0.0,0.0,0.0,0.0,0.0,0.0,0.0,0.0,0.0,0.0,0.0,0.0,0.0,0.0,-1.1518,-1.1565,-1.1619,0.0,-1.1619,-1.1681,-1.1904,0.0,0.0,0.0,0.0,0.0,0.0,0.0,0.0,0.0,0.0,0.0,0.0,0.0,0.0,0.0,0.0,0.0,0.0,0.0,0.0,0.0,0.0,0.0,0.0,-1.3682,-1.3838,-1.3838,-1.4136,0.0,-1.4299,-1.4441,-1.4631,-1.4869,-1.5079,-1.5181,-1.5181,-1.5181,-1.5181,-1.5181,-1.5181,-1.5181,-1.5187,-1.5276,-1.535,-1.5425,-1.5594,-1.5737,-1.5866,-1.5947,-1.6022,-1.6083,-1.6083,-1.6083,-1.5678,-1.2951,-1.0245,-0.7537,-0.4829,-0.2117,0.0,0.0,0.0,0.0,0.0,0.0,0.0,0.0,0.0,0.0,0.0,0.0,0.0,0.0,0.0,0.0,0.0,0.0,0.0,0.0,0.0,0.0,0.0,0.0,0.0,0.0,0.0,0.0,0.0,0.0,0.0,0.0,0.0,0.0,0.0,0.0,0.0,0.0,0.0,0.0,0.0,0.0,0.0,0.0,0.0,0.0,0.0,0.0,-1.1619,-1.1619,-1.1647,-1.1742,0.0,0.0,0.0,0.0,0.0,0.0,0.0,0.0,0.0,0.0,0.0,0.0,0.0,0.0,0.0,0.0,0.0,0.0,0.0,0.0,0.0,0.0,0.0,0.0,-1.3458,-1.3702,-1.3858,-1.3899,-1.4163,-1.4299,-1.4299,-1.4482,-1.4726,-1.5025,-1.5133,-1.5181,-1.5181,-1.5181,-1.5181,-1.5181,-1.5181,-1.5208,-1.5248,-1.5364,-1.5452,-1.5547,-1.5764,-1.5879,-1.5927,-1.6042,-1.6083,-1.5983,-1.5273,-1.5068,-1.4564,-1.1144,-0.8639,-0.6436,-0.3825,-0.1614,0.0,0.0,0.0,0.0,0.0,0.0,0.0,0.0,0.0,0.0,0.0,0.0,0.0,0.0,0.0,0.0,0.0,0.0,0.0,0.0,0.0,0.0,0.0,0.0,0.0,0.0,0.0,0.0,0.0,0.0,0.0,0.0,0.0,0.0,0.0,0.0,0.0,0.0,0.0,0.0,0.0,0.0,0.0,0.0,0.0,0.0,0.0,-1.1619,0.0,-1.1619,-1.1721,0.0,0.0,0.0,0.0,0.0,0.0,0.0,0.0,0.0,0.0,0.0,0.0,0.0,0.0,0.0,0.0,0.0,0.0,0.0,0.0,0.0,0.0,0.0,0.0,0.0,-1.3607,-1.3756,-1.3905,-1.4055,-1.4217,-1.4299,-1.4299,-1.4584,-1.4875,-1.5174,-1.5181,-1.5181,-1.5181,-1.5181,-1.5181,-1.5181,-1.5181,-1.5262,-1.5398,-1.5404,-1.5574,-1.5832,-1.5845,-1.594,-1.6069,-1.6076,-1.6083,-1.5778,-1.3156,-1.2348,-1.1444,-0.6132,-0.4326,-0.3724,-0.1009,-0.0101,0.0,0.0,0.0,0.0,0.0,0.0,0.0,0.0,0.0,0.0,0.0,0.0,0.0,0.0,0.0,0.0,0.0,0.0,0.0,0.0,0.0,0.0,0.0,0.0,0.0,0.0,0.0,0.0,0.0,0.0,0.0,0.0,0.0,0.0,0.0,0.0,0.0,0.0,0.0,0.0,0.0,0.0,0.0,0.0,0.0,0.0,0.0,0.0,0.0,-1.1755,-1.187,-1.202,0.0,0.0,0.0,0.0,0.0,0.0,0.0,0.0,0.0,0.0,0.0,0.0,0.0,0.0,0.0,0.0,0.0,0.0,0.0,0.0,0.0,0.0,0.0,0.0,-1.362,-1.3763,-1.3912,-1.4068,-1.4224,-1.4394,-1.4577,-1.4685,-1.4889,-1.5181,-1.5181,-1.5181,-1.5181,-1.5181,-1.5181,-1.5187,-1.5289,-1.5357,-1.5425,-1.5615,-1.5757,-1.5866,-1.5961,-1.6035,-1.6083,-1.6083,-1.6083,-1.5678,-1.3051,-1.2148,-1.1244,-0.5731,-0.4026,-0.3523,-0.0808,0.0,0.0,0.0,0.0,0.0,0.0,0.0,0.0,0.0,0.0,0.0,0.0,0.0,0.0,0.0,0.0,0.0,0.0,0.0,0.0,0.0,0.0,0.0,0.0,0.0,0.0,0.0,0.0,0.0,0.0,0.0,0.0,0.0,0.0,0.0,0.0,0.0,0.0,0.0,0.0,0.0,0.0,0.0,0.0,0.0,0.0,0.0,-1.1687,-1.1796,0.0,0.0,0.0,0.0,0.0,0.0,0.0,0.0,0.0,0.0,0.0,0.0,0.0,0.0,0.0,0.0,0.0,0.0,0.0,0.0,0.0,0.0,0.0,0.0,0.0,0.0,0.0,0.0,-1.3688,-1.379,-1.3933,-1.4143,-1.4245,-1.4441,-1.4733,-1.474,-1.4889,-1.5181,-1.5181,-1.5181,-1.5181,-1.5181,-1.5181,-1.5194,-1.5398,-1.5486,-1.5506,-1.575,-1.5886,-1.594,-1.6042,-1.6083,-1.6083,-1.6083,-1.6083,-1.5578,-1.1948,-1.0745,-0.984,-0.4429,-0.262,-0.2318,-0.0505,0.0,0.0,0.0,0.0,0.0,0.0,0.0,0.0,0.0,0.0,0.0,0.0,0.0,0.0,0.0,0.0,0.0,0.0,0.0,0.0,0.0,0.0,0.0,0.0,0.0,0.0,0.0,0.0,0.0,0.0,0.0,0.0,0.0,0.0,0.0,0.0,0.0,0.0,0.0,0.0,0.0,0.0,0.0,0.0,0.0,0.0,0.0,0.0,0.0,0.0,0.0,0.0,0.0,0.0,0.0,0.0,0.0,0.0,0.0,0.0,0.0,0.0,0.0,0.0,0.0,0.0,0.0,0.0,0.0,0.0,0.0,0.0,0.0,0.0,0.0,0.0,-1.3532,-1.3824,-1.3851,-1.3994,-1.4292,-1.4299,-1.4441,-1.4733,-1.474,-1.4889,-1.5181,-1.5181,-1.5181,-1.5181,-1.5181,-1.5181,-1.5201,-1.5506,-1.5642,-1.5649,-1.5798,-1.5947,-1.6083,-1.6083,-1.6083,-1.6083,-1.6083,-1.6083,-1.5174,-0.9845,-0.7938,-0.7038,-0.1715,0.0,0.0,0.0,0.0,0.0,0.0,0.0,0.0,0.0,0.0,0.0,0.0,0.0,0.0,0.0,0.0,0.0,0.0,0.0,0.0,0.0,0.0,0.0,0.0,0.0,0.0,0.0,0.0,0.0,0.0,0.0,0.0,0.0,0.0,0.0,0.0,0.0,0.0,0.0,0.0,0.0,0.0,0.0,0.0,0.0,0.0,0.0,0.0,0.0,0.0,-1.1999,0.0,0.0,0.0,0.0,0.0,0.0,0.0,0.0,0.0,0.0,0.0,0.0,0.0,0.0,0.0,0.0,0.0,0.0,0.0,0.0,0.0,0.0,0.0,0.0,0.0,0.0,0.0,0.0,-1.3532,-1.3824,-1.4055,-1.4211,-1.4299,-1.4299,-1.4441,-1.4733,-1.474,-1.4889,-1.5181,-1.5181,-1.5181,-1.5181,-1.5181,-1.5181,-1.5201,-1.5506,-1.5642,-1.5655,-1.5913,-1.6042,-1.6083,-1.6083,-1.6083,-1.6083,-1.6083,-1.4869,-1.2752,-0.9244,-0.6734,-0.4527,-0.111,0.0,0.0,0.0,0.0,0.0,0.0,0.0,0.0,0.0,0.0,0.0,0.0,0.0,0.0,0.0,0.0,0.0,0.0,0.0,0.0,0.0,0.0,0.0,0.0,0.0,0.0,0.0,0.0,0.0,0.0,0.0,0.0,0.0,0.0,0.0,0.0,0.0,0.0,0.0,0.0,0.0,0.0,0.0,0.0,0.0,0.0,0.0,0.0,0.0,0.0,-1.2155,-1.2264,-1.2379,0.0,0.0,0.0,0.0,-1.2501,0.0,0.0,0.0,0.0,0.0,0.0,0.0,0.0,0.0,0.0,0.0,0.0,0.0,0.0,0.0,0.0,0.0,0.0,0.0,0.0,-1.3403,-1.3532,-1.3824,-1.4129,-1.4299,-1.4299,-1.4299,-1.4441,-1.4733,-1.474,-1.4889,-1.5181,-1.5181,-1.5181,-1.5181,-1.5181,-1.5181,-1.5201,-1.5506,-1.5642,-1.5662,-1.5961,-1.6083,-1.6083,-1.6083,-1.5373,-1.4464,-1.4464,-1.2752,-1.004,-0.7236,-0.5331,-0.3523,-0.0908,0.0,0.0,0.0,0.0,0.0,0.0,0.0,0.0,0.0,0.0,0.0,0.0,0.0,0.0,0.0,0.0,0.0,0.0,0.0,0.0,0.0,0.0,0.0,0.0,0.0,0.0,0.0,0.0,0.0,0.0,0.0,0.0,0.0,0.0,0.0,0.0,0.0,0.0,0.0,0.0,0.0,0.0,0.0,0.0,0.0,0.0,0.0,0.0,0.0,0.0,-1.2311,-1.2406,-1.2501,-1.2501,0.0,0.0,-1.2501,-1.2501,-1.2501,0.0,0.0,0.0,0.0,0.0,0.0,0.0,0.0,0.0,0.0,0.0,0.0,0.0,0.0,0.0,0.0,0.0,0.0,-1.3403,-1.3431,-1.3566,-1.3824,-1.4129,-1.4299,-1.4299,-1.4299,-1.4441,-1.4733,-1.474,-1.4889,-1.5181,-1.5181,-1.5181,-1.5181,-1.5181,-1.5181,-1.5201,-1.5506,-1.5442,-1.5171,-1.5559,-1.5678,-1.5678,-1.5678,-1.396,-1.1644,-1.1644,-0.994,-0.7236,-0.4829,-0.3825,-0.3122,-0.0808,0.0,0.0,0.0,0.0,0.0,0.0,0.0,0.0,0.0,0.0,0.0,0.0,0.0,0.0,0.0,0.0,0.0,0.0,0.0,0.0,0.0,0.0,0.0,0.0,0.0,0.0,0.0,0.0,0.0,0.0,0.0,0.0,0.0,0.0,0.0,0.0,0.0,0.0,0.0,0.0,0.0,0.0,0.0,0.0,0.0,0.0,0.0,0.0,0.0,0.0,-1.2461,-1.2481,-1.2501,0.0,0.0,0.0,-1.2501,-1.2501,-1.2501,0.0,0.0,0.0,0.0,0.0,0.0,0.0,0.0,0.0,0.0,0.0,0.0,0.0,0.0,0.0,0.0,0.0,-1.3403,-1.3403,-1.362,-1.3777,-1.3838,-1.4129,-1.4299,-1.4299,-1.4299,-1.4441,-1.4733,-1.474,-1.4889,-1.5181,-1.5181,-1.5181,-1.5181,-1.5181,-1.5181,-1.5201,-1.5506,-1.4364,-1.2418,-1.2754,-1.2852,-1.2852,-1.2852,-1.1244,-0.884,-0.884,-0.7136,-0.4728,-0.4226,-0.262,-0.0707,-0.0202,0.0,0.0,0.0,0.0,0.0,0.0,0.0,0.0,0.0,0.0,0.0,0.0,0.0,0.0,0.0,0.0,0.0,0.0,0.0,0.0,0.0,0.0,0.0,0.0,0.0,0.0,0.0,0.0,0.0,0.0,0.0,0.0,0.0,0.0,0.0,0.0,0.0,0.0,0.0,0.0,0.0,0.0,0.0,0.0,0.0,0.0,0.0,0.0,0.0,0.0,0.0,0.0,0.0,-1.2501,0.0,0.0,0.0,-1.2501,-1.2501,0.0,0.0,0.0,0.0,0.0,0.0,0.0,0.0,0.0,0.0,0.0,0.0,0.0,0.0,0.0,0.0,0.0,-1.3403,-1.3403,-1.3675,-1.3838,-1.3838,-1.4129,-1.4299,-1.4299,-1.4299,-1.4441,-1.4733,-1.474,-1.4889,-1.5181,-1.5181,-1.5181,-1.5181,-1.5181,-1.4516,-1.3293,-1.3489,-1.2149,-0.9675,-0.9917,-0.9301,-0.8235,-0.954,-0.8439,-0.6032,-0.6032,-0.4328,-0.2016,-0.2016,-0.111,0.0,0.0,0.0,0.0,0.0,0.0,0.0,0.0,0.0,0.0,0.0,0.0,0.0,0.0,0.0,0.0,0.0,0.0,0.0,0.0,0.0,0.0,0.0,0.0,0.0,0.0,0.0,0.0,0.0,0.0,0.0,0.0,0.0,0.0,0.0,0.0,0.0,0.0,0.0,0.0,0.0,0.0,0.0,0.0,0.0,0.0,0.0,0.0,0.0,0.0,0.0,0.0,0.0,0.0,0.0,0.0,0.0,-1.2501,0.0,0.0,0.0,0.0,0.0,0.0,0.0,0.0,0.0,0.0,0.0,0.0,0.0,0.0,0.0,0.0,0.0,0.0,0.0,0.0,-1.3403,-1.3403,-1.3675,-1.3838,-1.3838,-1.4129,-1.4299,-1.4299,-1.4299,-1.4441,-1.4733,-1.474,-1.4889,-1.5181,-1.5181,-1.5181,-1.5181,-1.4704,-1.3381,-1.1396,-1.1021,-0.939,-0.704,-0.7206,-0.5685,-0.3525,-0.6135,-0.5633,-0.3223,-0.3223,-0.1815,0.0,0.0,0.0,0.0,0.0,0.0,0.0,0.0,0.0,0.0,0.0,0.0,0.0,0.0,0.0,0.0,0.0,0.0,0.0,0.0,0.0,0.0,0.0,0.0,0.0,0.0,0.0,0.0,0.0,0.0,0.0,0.0,0.0,0.0,0.0,0.0,0.0,0.0,0.0,0.0,0.0,0.0,0.0,0.0,0.0,0.0,0.0,0.0,0.0,0.0,0.0,0.0,0.0,0.0,0.0,0.0,0.0,0.0,0.0,-1.2501,0.0,0.0,0.0,0.0,0.0,0.0,0.0,0.0,0.0,0.0,0.0,0.0,0.0,0.0,0.0,0.0,0.0,0.0,0.0,0.0,0.0,0.0,-1.3403,-1.3675,-1.3838,-1.3838,-1.4129,-1.4299,-1.4299,-1.4299,-1.4441,-1.4733,-1.474,-1.4889,-1.5181,-1.5181,-1.5181,-1.5087,-1.2904,-1.1673,-1.1301,-0.9112,-0.6685,-0.4309,-0.4352,-0.2898,-0.0707,-0.3424,-0.2821,-0.0505,-0.0505,-0.0303,0.0,0.0,0.0,0.0,0.0,0.0,0.0,0.0,0.0,0.0,0.0,0.0,0.0,0.0,0.0,0.0,0.0,0.0,0.0,0.0,0.0,0.0,0.0,0.0,0.0,0.0,0.0,0.0,0.0,0.0,0.0,0.0,0.0,0.0,0.0,0.0,0.0,0.0,0.0,0.0,0.0,0.0,0.0,0.0,0.0,0.0,0.0,0.0,0.0,0.0,0.0,0.0,0.0,0.0,0.0,0.0,0.0,0.0,0.0,0.0,0.0,-1.2501,0.0,-1.263,0.0,0.0,0.0,0.0,0.0,0.0,0.0,0.0,0.0,0.0,0.0,0.0,0.0,0.0,0.0,0.0,0.0,0.0,0.0,0.0,-1.3756,-1.3838,-1.4048,-1.4211,-1.4299,-1.4299,-1.4441,-1.4733,-1.474,-1.4889,-1.5181,-1.5181,-1.4422,-1.2999,-1.1862,-0.9775,-0.6932,-0.5916,-0.3957,-0.1569,-0.1674,-0.0996,-0.0101,-0.1211,-0.1009,0.0,0.0,0.0,0.0,0.0,0.0,0.0,0.0,0.0,0.0,0.0,0.0,0.0,0.0,0.0,0.0,0.0,0.0,0.0,0.0,0.0,0.0,0.0,0.0,0.0,0.0,0.0,0.0,0.0,0.0,0.0,0.0,0.0,0.0,0.0,0.0,0.0,0.0,0.0,0.0,0.0,0.0,0.0,0.0,0.0,0.0,0.0,0.0,0.0,0.0,0.0,0.0,0.0,0.0,0.0,0.0,0.0,0.0,-1.2501,0.0,0.0,0.0,0.0,0.0,0.0,0.0,0.0,0.0,0.0,0.0,0.0,0.0,0.0,0.0,0.0,0.0,0.0,0.0,0.0,0.0,0.0,0.0,0.0,0.0,0.0,0.0,-1.3546,0.0,-1.3745,-1.3987,-1.4143,-1.4292,-1.4299,-1.4077,-1.3625,-1.3632,-1.3487,-1.3087,-1.3087,-1.214,-1.0342,-0.9681,-0.7308,-0.3803,-0.3044,-0.1731,0.0,0.0,0.0,0.0,0.0,0.0,0.0,0.0,0.0,0.0,0.0,0.0,0.0,0.0,0.0,0.0,0.0,0.0,0.0,0.0,0.0,0.0,0.0,0.0,0.0,0.0,0.0,0.0,0.0,0.0,0.0,0.0,0.0,0.0,0.0,0.0,0.0,0.0,0.0,0.0,0.0,0.0,0.0,0.0,0.0,0.0,0.0,0.0,0.0,0.0,0.0,0.0,0.0,0.0,0.0,0.0,0.0,0.0,0.0,0.0,0.0,0.0,0.0,0.0,0.0,0.0,0.0,-1.2501,0.0,0.0,0.0,0.0,-1.2956,0.0,0.0,0.0,0.0,0.0,0.0,-1.307,0.0,0.0,0.0,0.0,0.0,0.0,0.0,0.0,0.0,0.0,0.0,0.0,-1.3546,0.0,-1.3745,-1.3987,-1.4143,-1.4292,-1.4299,-1.326,-1.1044,-1.1044,-0.9949,-0.788,-0.788,-0.7785,-0.7595,-0.513,-0.3993,-0.3708,-0.1239,-0.0096,0.0,0.0,0.0,0.0,0.0,0.0,0.0,0.0,0.0,0.0,0.0,0.0,0.0,0.0,0.0,0.0,0.0,0.0,0.0,0.0,0.0,0.0,0.0,0.0,0.0,0.0,0.0,0.0,0.0,0.0,0.0,0.0,0.0,0.0,0.0,0.0,0.0,0.0,0.0,0.0,0.0,0.0,0.0,0.0,0.0,0.0,0.0,0.0,0.0,0.0,0.0,0.0,0.0,0.0,0.0,0.0,0.0,0.0,0.0,0.0,0.0,0.0,0.0,0.0,0.0,0.0,-1.2528,-1.263,0.0,0.0,0.0,0.0,0.0,0.0,0.0,0.0,0.0,0.0,0.0,-1.3261,0.0,0.0,0.0,0.0,0.0,0.0,0.0,0.0,0.0,0.0,0.0,-1.3403,-1.3451,-1.3587,0.0,-1.3892,-1.3326,-1.1959,-1.1882,-1.0824,-0.8652,-0.8561,-0.8277,-0.7595,-0.7595,-0.6743,-0.5036,-0.4183,-0.2855,-0.1239,-0.0382,0.0,0.0,0.0,0.0,0.0,0.0,0.0,0.0,0.0,0.0,0.0,0.0,0.0,0.0,0.0,0.0,0.0,0.0,0.0,0.0,0.0,0.0,0.0,0.0,0.0,0.0,0.0,0.0,0.0,0.0,0.0,0.0,0.0,0.0,0.0,0.0,0.0,0.0,0.0,0.0,0.0,0.0,0.0,0.0,0.0,0.0,0.0,0.0,0.0,0.0,0.0,0.0,0.0,0.0,0.0,0.0,0.0,0.0,0.0,0.0,0.0,0.0,0.0,0.0,0.0,-1.2501,-1.2542,0.0,0.0,-1.2807,0.0,-1.3017,0.0,0.0,0.0,0.0,0.0,0.0,0.0,0.0,-1.3403,-1.3403,0.0,0.0,0.0,0.0,0.0,0.0,0.0,0.0,0.0,-1.3403,-1.3403,-1.3403,-1.3532,0.0,0.0,-1.1963,-1.0707,-0.9824,-0.8375,-0.6047,-0.6072,-0.567,-0.4916,-0.4934,-0.3995,-0.2475,-0.2475,-0.1524,0.0,0.0,0.0,0.0,0.0,0.0,0.0,0.0,0.0,0.0,0.0,0.0,0.0,0.0,0.0,0.0,0.0,0.0,0.0,0.0,0.0,0.0,0.0,0.0,0.0,0.0,0.0,0.0,0.0,0.0,0.0,0.0,0.0,0.0,0.0,0.0,0.0,0.0,0.0,0.0,0.0,0.0,0.0,0.0,0.0,0.0,0.0,0.0,0.0,0.0,0.0,0.0,0.0,0.0,0.0,0.0,0.0,0.0,0.0,0.0,0.0,0.0,0.0,0.0,0.0,0.0,0.0]}]]